GFSSW_sfc_temp_000.txt.gz
Temp
62 62 62 62 62 62 62 63 63 63 63 63 63 63 63 62 63 74 86 93 92 80 82 97 96 96 98 96 98 97 89 85 84 84 86 92 88 92 94 87 88 91 90 92 92
62 61 61 61 62 62 62 62 62 62 62 62 62 62 63 62 79 89 92 83 81 80 96 94 93 94 95 95 96 93 89 87 93 94 91 90 91 89 87 86 86 86 91 92 90
61 61 61 61 61 61 62 62 62 62 62 62 62 62 63 66 83 94 80 80 80 83 103 101 101 96 93 98 96 95 88 93 93 95 97 92 90 93 88 84 88 85 87 88 88
61 60 60 61 61 61 61 61 61 61 61 61 62 62 63 76 78 96 81 80 80 94 98 97 97 92 91 91 98 89 96 96 96 95 96 92 95 90 89 90 95 94 91 89 87
60 60 60 60 60 61 61 61 60 60 60 61 62 63 72 82 89 97 82 83 93 95 94 94 93 93 90 95 96 92 95 97 99 96 97 97 92 90 89 93 96 94 90 88 89
60 60 60 60 60 60 60 59 59 59 60 61 63 62 76 78 100 98 96 94 97 95 95 97 96 99 95 95 93 96 96 96 98 96 96 92 90 91 92 96 92 90 89 90 90
59 59 59 59 60 60 59 58 58 58 60 61 63 70 77 87 99 99 97 97 98 98 95 99 101 97 97 93 99 96 90 90 93 95 91 95 84 85 93 93 90 89 89 90 90
59 59 59 59 59 58 57 57 57 59 61 63 63 74 81 97 98 95 98 96 97 99 99 101 102 97 97 99 94 91 92 85 91 92 92 92 83 89 94 91 88 89 89 88 90
58 58 58 58 58 57 56 55 58 61 63 64 71 75 83 85 91 99 99 95 96 97 97 100 98 93 95 88 87 90 82 85 85 93 88 88 85 91 94 92 90 88 89 89 89
58 58 57 57 57 56 55 56 61 63 67 72 75 72 87 89 96 96 99 98 94 92 90 90 90 88 89 88 77 81 83 87 85 88 89 86 88 88 92 92 91 89 90 89 89
57 57 57 56 56 55 59 77 75 74 73 82 87 86 90 96 97 95 97 95 95 91 83 88 82 79 86 90 91 90 87 85 90 92 88 87 87 90 89 91 91 90 89 90 90
57 57 56 56 55 54 64 77 75 75 73 87 87 87 92 94 82 92 99 88 87 81 87 83 78 88 91 91 89 89 85 85 91 91 89 89 86 91 92 88 91 91 91 90 92
57 56 56 55 54 63 72 76 80 81 74 83 86 85 87 89 82 86 94 90 85 82 83 79 85 90 88 87 85 87 85 86 86 87 90 88 83 87 92 92 91 94 94 94 92
56 56 55 53 62 72 76 79 80 79 70 79 80 85 86 88 81 94 97 91 85 81 84 83 91 86 83 82 88 82 92 90 87 84 76 88 75 85 91 88 89 91 92 94 93
56 56 54 52 64 71 76 81 81 78 58 80 82 95 90 84 87 85 97 92 82 83 85 80 83 81 80 83 89 84 94 89 88 85 83 82 78 83 89 87 90 92 93 95 96
56 55 54 66 67 72 78 78 77 66 57 76 84 81 81 85 85 85 86 94 93 85 85 85 91 88 86 90 90 92 88 87 88 85 73 81 79 80 86 87 93 96 95 95 96
54 53 55 65 71 79 77 77 65 61 76 74 77 83 82 81 82 83 79 78 77 71 72 79 82 88 90 84 90 88 83 71 69 70 70 84 79 81 92 96 97 98 98 96 97
53 51 62 69 73 72 73 69 56 69 72 79 79 81 76 81 81 82 79 76 82 81 78 71 68 82 88 86 83 83 83 74 62 67 72 82 73 82 94 99 101 102 101 100 98
52 70 70 74 70 72 69 60 64 70 77 77 79 74 76 80 78 79 79 79 83 84 74 74 72 87 88 89 89 83 79 89 79 81 75 80 82 90 95 95 98 98 98 99 98
58 64 69 74 71 69 64 58 70 77 78 79 70 77 72 77 75 77 78 83 82 87 89 81 70 84 86 89 90 87 90 77 80 65 63 74 77 79 86 91 96 97 97 99 99
61 59 70 73 71 65 58 65 71 79 78 74 73 73 74 74 76 76 77 82 86 86 87 85 77 78 83 79 80 82 81 82 84 79 69 67 74 91 88 92 94 99 99 101 100
59 55 70 73 61 67 63 69 63 74 79 76 77 76 74 75 74 74 74 80 87 88 80 85 80 71 76 87 90 89 83 83 74 70 78 76 78 97 96 96 98 99 103 105 102
54 58 76 69 54 60 67 66 69 68 72 74 73 76 78 74 69 74 77 85 86 85 81 85 76 68 71 81 86 82 85 85 85 83 74 70 76 96 96 95 97 96 100 101 97
55 53 64 65 66 58 58 57 60 71 70 74 74 77 74 72 76 72 74 82 85 85 70 80 80 72 69 73 81 76 80 84 83 77 76 78 81 88 91 92 96 98 98 99 95
56 54 56 53 59 56 57 57 55 59 68 72 68 70 71 66 70 70 75 78 81 77 80 80 70 77 79 81 82 81 80 81 79 80 76 80 81 87 90 93 96 100 100 98 93
47 50 52 49 52 52 52 53 55 59 61 62 64 69 71 67 70 69 74 74 75 82 80 82 70 75 73 80 81 78 81 82 82 82 82 83 82 95 96 96 96 98 99 97 93
55 56 48 48 49 48 52 54 54 57 61 65 63 61 61 67 72 76 78 77 78 76 75 75 74 70 67 78 77 70 79 81 81 85 84 78 85 92 92 94 95 97 98 96 95

GFSSW_sfc_temp_003.txt.gz
Temp
62 62 62 62 62 62 63 63 63 63 63 63 63 63 63 63 63 76 88 96 96 80 82 101 102 103 104 101 105 105 84 86 87 80 90 97 94 97 101 94 95 96 95 95 96
62 62 61 61 62 62 62 62 62 62 62 62 62 62 63 63 81 92 94 85 81 81 98 99 97 101 98 100 101 96 74 86 97 93 94 95 96 95 93 91 91 92 98 96 95
61 61 61 61 61 62 62 62 62 62 62 62 62 62 63 67 87 97 82 82 81 85 106 106 105 101 95 101 100 98 82 93 98 99 100 96 95 99 93 87 92 89 91 92 93
61 61 60 61 61 61 61 61 61 61 61 61 62 62 63 81 79 100 82 81 81 97 102 102 101 96 93 93 101 94 96 97 99 99 99 96 100 95 95 95 99 97 96 93 92
60 60 60 60 60 61 61 61 60 60 60 61 62 63 72 86 92 96 82 83 96 99 98 99 96 96 92 97 99 96 97 99 100 100 100 101 96 95 94 99 101 99 95 93 93
60 60 60 60 60 60 60 59 59 59 60 61 62 62 77 81 107 105 103 100 101 99 99 101 99 101 97 97 97 100 100 99 100 101 100 96 96 96 97 100 98 96 94 94 94
59 59 59 59 60 60 59 58 58 58 59 61 63 72 83 89 107 106 104 103 106 103 99 103 104 100 100 95 103 101 93 97 97 99 96 99 91 91 99 99 95 95 94 94 95
59 59 59 59 59 59 58 56 57 58 61 63 65 78 82 106 108 105 105 102 106 106 104 107 106 101 99 103 99 94 95 87 97 98 98 96 84 94 100 97 95 95 94 93 94
58 58 58 58 58 57 56 56 57 60 64 65 73 81 85 90 96 104 105 99 103 104 104 105 102 96 97 90 88 92 84 87 88 99 96 93 84 95 99 97 95 95 95 94 94
58 58 58 57 57 56 55 54 64 62 68 78 82 79 90 93 102 103 106 104 99 98 95 94 94 89 90 89 77 82 85 89 86 94 95 90 85 95 98 97 96 95 96 94 94
57 57 57 57 56 55 61 84 78 75 81 86 89 90 95 101 104 99 103 100 99 94 85 91 86 81 87 91 92 92 90 88 93 97 93 90 90 93 96 96 96 96 95 95 95
57 57 57 56 55 54 63 83 84 83 76 91 93 94 99 102 91 97 104 92 90 84 89 87 81 91 94 94 91 90 89 88 94 93 94 91 89 96 95 95 96 96 96 96 97
57 57 56 55 55 64 83 83 90 90 78 87 95 93 96 99 90 92 99 94 88 85 87 84 88 94 92 90 88 89 88 89 89 91 94 91 85 90 97 97 97 99 100 99 98
57 57 56 54 64 81 82 88 90 90 72 83 87 92 95 96 87 99 102 95 89 85 87 87 95 90 89 87 90 83 93 92 91 83 78 92 76 87 94 94 94 97 98 99 99
57 56 55 53 67 75 85 90 90 86 60 88 89 102 97 90 93 93 103 96 85 87 88 84 87 88 85 88 93 87 96 92 91 88 78 85 81 83 93 90 94 96 98 100 101
56 55 54 69 73 79 86 86 84 68 60 81 89 85 86 90 92 93 93 99 96 88 90 88 97 93 92 94 94 95 92 91 91 88 76 84 79 82 84 92 96 99 99 99 101
55 54 56 67 74 87 87 81 67 62 83 80 83 87 86 85 87 87 85 84 81 75 76 84 87 94 96 88 93 91 86 74 72 73 72 87 82 77 94 98 99 100 102 102 102
53 53 65 75 82 81 77 70 57 73 76 88 87 87 82 88 87 86 83 81 87 86 82 76 73 86 93 89 85 86 86 75 63 69 75 86 77 86 99 103 104 105 106 106 103
52 74 77 83 83 79 70 60 65 72 83 82 85 80 81 86 86 85 83 82 86 87 78 78 76 91 92 93 91 86 81 92 81 84 77 82 87 95 98 99 101 102 104 105 103
60 67 75 86 81 74 65 58 71 80 85 84 75 81 76 81 81 81 82 88 87 91 92 85 75 89 91 94 92 88 94 80 83 67 66 78 80 83 89 92 97 99 101 103 105
62 66 80 83 79 67 58 64 71 79 82 78 77 78 80 80 83 81 81 87 91 90 92 88 83 82 88 84 82 84 84 86 86 82 71 70 78 95 92 94 95 99 102 105 104
64 58 79 82 62 67 63 68 66 76 83 79 79 78 78 81 79 80 79 86 94 92 85 89 84 75 81 91 93 90 85 85 78 72 80 79 80 99 99 99 99 100 103 106 105
58 63 78 78 56 61 67 69 73 72 75 75 74 78 80 76 72 79 82 91 90 89 86 88 79 71 75 84 89 84 86 88 88 86 76 74 78 99 99 99 100 100 102 103 105
56 55 69 71 69 63 61 63 64 75 72 73 72 77 75 73 79 75 79 87 90 88 74 83 83 75 72 75 84 79 82 86 86 79 78 79 82 90 94 94 97 99 101 103 104
53 55 62 55 60 55 55 53 56 55 68 72 68 70 71 68 71 72 79 83 87 83 83 85 74 80 82 84 85 84 83 84 81 83 78 82 83 89 94 95 98 101 101 101 102
47 50 58 56 58 54 51 53 54 57 58 56 61 68 71 67 71 70 77 78 78 85 82 86 74 78 76 83 83 80 85 85 84 84 84 85 84 96 98 99 98 99 99 99 101
52 53 52 50 54 55 55 53 55 60 60 60 59 55 61 69 70 73 76 83 83 79 78 78 77 72 68 79 79 73 80 83 85 87 86 79 86 94 93 95 97 99 99 99 101

GFSSW_sfc_temp_006.txt.gz
Temp
62 62 62 62 62 62 63 63 63 63 63 63 63 62 62 62 63 75 82 95 96 80 81 101 98 100 104 99 102 103 84 80 82 86 88 96 92 98 100 94 92 92 91 92 94
62 62 62 61 62 62 62 62 62 62 62 62 62 62 62 63 75 84 94 87 84 81 96 97 96 99 96 97 99 93 82 81 87 92 92 95 94 94 92 91 92 91 94 96 95
61 61 61 61 61 62 62 62 62 62 62 62 62 62 62 66 81 93 85 84 82 85 102 103 103 100 94 98 97 94 79 90 93 94 96 95 94 97 91 87 91 86 89 92 94
60 60 60 61 61 61 61 61 61 61 60 61 62 62 63 76 75 99 81 81 81 96 100 99 100 94 91 90 98 90 94 93 96 100 95 95 98 94 94 92 97 95 93 92 92
60 60 60 60 60 60 61 60 60 60 60 60 61 62 74 82 87 99 81 83 94 96 95 96 95 94 89 93 96 94 94 97 101 100 99 100 95 94 94 99 99 97 93 91 92
59 59 59 59 60 60 60 60 59 59 60 60 62 62 74 76 103 99 102 97 101 98 96 98 98 99 95 94 94 99 99 99 101 100 100 95 95 96 96 100 97 95 92 92 92
59 59 59 59 59 60 59 58 58 58 59 61 63 69 79 84 107 109 105 102 102 101 96 101 103 98 98 92 100 99 93 97 97 98 96 99 90 90 97 99 95 93 92 92 93
59 59 59 59 59 59 58 57 57 59 60 63 64 75 77 103 107 104 106 103 106 107 103 105 105 99 97 100 96 92 93 85 96 97 98 95 82 93 98 96 93 93 92 92 92
58 58 58 58 58 58 56 56 58 60 62 65 69 76 81 97 97 105 107 99 102 103 104 106 103 94 95 88 85 88 80 84 89 98 96 92 80 91 99 96 93 93 92 92 92
58 58 58 58 57 56 56 56 65 63 67 77 81 78 87 91 101 103 106 103 98 98 96 95 93 87 87 84 72 79 82 86 86 92 94 89 72 78 89 96 94 93 93 92 92
58 57 57 57 56 56 58 78 78 73 76 81 85 86 96 100 106 101 105 100 99 94 83 89 82 77 83 86 88 88 87 86 91 94 91 87 69 67 81 93 94 93 93 93 93
57 57 57 56 56 56 62 78 86 86 74 88 89 90 96 103 92 97 105 91 90 82 87 85 77 87 91 90 87 87 85 86 92 94 91 90 77 76 86 93 95 94 94 95 96
57 57 56 56 56 65 80 83 94 92 75 82 90 89 92 97 90 93 98 93 87 83 84 79 85 92 90 88 85 85 84 85 87 92 94 90 84 87 92 96 97 98 98 98 96
57 57 56 54 66 74 77 91 94 92 67 78 89 92 95 96 88 100 102 94 88 83 85 85 91 89 87 85 88 80 91 90 89 84 76 89 71 81 86 90 93 96 97 98 97
57 56 55 54 62 68 84 91 91 86 55 89 91 105 100 91 94 94 102 95 84 85 86 81 85 85 84 86 91 85 93 90 89 85 81 82 76 82 88 85 90 94 97 99 100
56 55 55 65 71 75 84 88 85 65 56 83 91 87 87 91 93 96 93 97 96 87 88 87 95 92 90 93 93 94 90 89 89 86 73 81 77 78 85 83 89 95 98 99 100
55 54 55 65 66 85 85 81 63 58 84 81 84 87 86 84 86 89 85 83 80 73 74 83 85 93 94 88 92 90 83 72 69 72 70 85 77 78 89 92 94 84 92 100 101
53 53 61 71 78 78 76 67 53 70 72 89 89 87 81 86 85 86 84 80 86 84 78 73 71 85 93 88 84 85 84 74 60 67 72 84 76 83 94 96 95 92 90 102 101
52 69 70 80 83 80 69 55 61 69 81 82 85 81 81 85 86 85 83 82 86 86 76 76 75 92 92 94 91 84 78 88 78 80 74 80 86 93 98 94 91 95 102 102 101
58 62 69 82 86 77 62 53 67 76 82 82 74 80 76 82 81 83 82 87 86 91 91 83 73 89 91 93 92 88 91 76 78 64 63 75 77 81 87 91 92 93 95 102 104
58 62 78 89 84 67 55 59 65 74 75 71 71 73 78 80 83 81 82 88 91 90 91 87 81 81 89 83 81 83 81 82 83 79 69 67 75 93 89 92 93 96 100 102 103
61 54 82 84 63 64 59 64 64 70 76 76 76 74 74 77 79 80 81 86 94 93 85 89 83 74 80 91 92 89 83 82 73 69 78 76 78 98 93 97 98 98 100 102 101
55 58 75 75 54 58 64 66 69 69 70 71 71 76 79 74 69 76 82 92 94 91 86 89 79 70 73 83 89 84 85 85 84 82 72 71 76 96 96 94 96 98 99 99 103
51 50 64 70 67 62 59 60 61 72 70 71 69 73 73 71 76 72 76 85 92 92 74 84 81 74 71 74 83 79 83 85 83 75 75 77 81 87 91 91 96 96 98 100 100
53 51 59 49 55 54 51 54 51 55 65 65 61 62 64 62 68 69 75 79 86 85 86 85 72 78 80 83 85 83 82 83 80 80 74 81 81 87 91 92 92 98 98 98 99
42 47 52 52 56 54 51 49 50 53 59 56 53 57 58 54 54 49 60 71 76 84 83 85 71 75 74 82 82 80 84 85 84 83 82 83 83 95 97 97 92 96 96 95 96
50 51 45 46 51 52 54 53 50 56 57 59 58 54 52 56 59 62 66 69 73 72 78 77 76 71 67 78 79 72 80 83 85 87 85 78 85 93 91 91 94 92 95 95 97

GFSSW_sfc_temp_009.txt.gz
Temp
62 62 62 62 62 62 62 62 63 63 63 63 62 62 62 62 62 70 73 85 86 81 79 93 91 92 92 87 86 84 66 62 69 77 79 87 83 90 92 82 83 83 83 83 87
61 61 61 61 62 62 62 62 62 62 62 62 62 62 62 62 65 73 85 85 85 81 88 88 87 89 83 85 88 84 71 75 83 86 85 89 86 84 85 81 78 81 85 86 87
61 61 61 61 61 61 61 62 62 62 61 61 61 62 62 62 67 82 84 85 85 83 94 94 93 91 83 87 87 87 75 84 88 91 92 87 87 90 83 78 80 78 80 83 83
60 60 60 60 61 61 61 61 61 61 61 61 61 62 62 63 64 92 81 82 84 89 91 90 88 81 80 80 89 82 89 90 89 91 89 87 88 87 87 84 89 86 84 84 81
60 60 60 60 60 60 60 60 60 60 60 61 61 62 62 65 74 94 82 82 87 87 86 85 83 82 78 83 87 84 87 94 94 92 89 94 88 86 87 89 91 90 88 83 82
60 59 59 59 60 60 60 60 59 59 60 61 61 62 59 62 91 98 89 86 91 88 85 87 85 88 84 84 83 89 90 91 94 91 90 87 89 87 88 90 88 88 85 86 82
59 59 59 59 60 60 59 58 59 59 60 61 62 65 65 71 94 92 92 88 89 91 85 90 92 86 86 82 91 89 83 89 90 89 88 89 74 84 89 91 85 85 85 86 86
59 59 59 59 59 59 58 57 58 59 60 61 63 64 60 89 90 90 92 93 95 93 92 93 94 87 83 88 87 81 78 71 86 89 90 84 67 84 90 87 83 84 85 86 85
58 58 58 58 58 58 57 56 59 62 62 64 59 59 65 90 84 91 94 92 92 92 93 101 91 82 83 75 69 72 66 71 78 91 87 83 70 87 89 86 83 84 85 85 85
58 58 58 58 57 57 56 57 62 63 63 70 73 63 74 81 92 94 97 97 90 88 88 86 79 73 75 68 59 64 67 73 75 83 85 75 73 81 87 86 84 84 85 84 84
58 58 57 57 57 56 55 56 63 60 66 68 69 75 83 92 97 93 96 92 90 83 73 78 69 67 71 76 77 77 75 74 81 87 82 74 73 78 83 81 79 83 83 84 85
58 57 57 56 56 56 54 59 72 76 66 79 81 80 84 87 83 91 97 83 81 73 76 72 67 76 81 81 79 77 74 74 82 88 81 74 74 81 85 83 83 84 84 85 85
57 57 56 56 56 59 64 68 80 81 63 72 79 79 81 84 79 84 89 85 78 74 75 70 73 83 81 78 76 76 72 74 75 85 86 75 66 70 79 83 83 87 88 87 86
57 57 56 54 60 60 64 79 83 82 53 66 75 81 83 84 78 92 95 86 80 74 76 74 82 81 78 76 79 69 81 81 80 77 68 81 62 65 74 78 79 83 87 88 88
57 56 55 54 52 56 70 75 78 73 43 80 81 94 85 78 82 84 95 87 77 77 74 72 76 76 75 78 82 76 83 81 80 75 70 75 65 65 75 71 71 79 88 89 90
56 55 54 57 59 63 70 73 70 51 45 73 86 81 77 79 81 86 85 90 87 79 78 77 85 82 80 85 85 87 81 79 78 73 62 68 70 64 69 71 72 85 89 91 91
54 53 53 58 54 72 66 66 49 46 74 74 75 80 78 75 78 80 79 76 71 64 65 74 77 83 86 77 81 81 69 61 58 59 55 68 68 66 82 84 86 87 89 91 92
53 52 56 65 66 64 61 53 43 62 64 77 76 78 74 78 78 79 76 71 77 73 65 62 60 77 84 79 74 74 73 62 48 54 59 68 65 70 86 88 92 90 93 93 91
52 58 60 66 71 67 57 44 51 60 69 71 69 69 72 78 77 76 74 73 76 78 65 63 64 81 85 86 82 72 68 76 60 61 56 65 70 80 85 86 89 88 88 90 94
51 53 57 69 74 66 53 45 55 67 66 63 53 63 57 64 71 73 73 80 78 83 82 69 58 77 84 86 84 78 76 65 69 54 53 63 64 67 72 81 82 83 85 88 90
51 51 66 76 76 60 47 50 57 65 66 61 59 58 60 61 64 65 74 81 85 83 83 78 70 70 75 74 73 73 71 69 66 68 57 54 63 74 76 79 81 85 89 89 90
52 43 68 70 52 58 52 56 57 61 67 63 64 61 59 62 61 63 65 73 88 86 76 79 71 63 69 80 84 81 70 69 59 55 59 62 64 83 86 81 87 87 87 90 85
46 49 64 65 44 49 56 59 62 61 62 62 61 65 66 61 55 63 67 78 82 80 78 79 71 59 62 71 78 75 78 72 74 60 59 53 64 86 88 81 85 85 87 88 85
45 41 53 57 58 52 47 45 46 56 56 60 59 60 58 55 60 56 61 74 80 79 74 74 70 68 61 62 68 66 75 77 72 64 63 66 67 74 78 79 81 87 86 88 86
44 43 51 39 44 45 47 44 45 45 55 58 51 51 50 45 49 51 53 54 61 67 72 67 66 70 72 75 75 75 74 77 71 72 63 67 69 73 79 80 80 84 83 86 87
40 41 46 42 45 45 46 47 48 50 48 47 48 49 50 41 43 42 47 48 49 58 56 59 58 63 62 74 76 73 77 78 78 77 74 74 72 75 80 81 81 83 85 86 85
49 50 42 40 42 42 44 46 45 50 51 54 50 50 46 52 54 52 55 55 54 52 53 54 54 55 56 67 68 63 73 75 75 79 77 69 77 77 77 78 77 82 85 85 83

GFSSW_sfc_temp_012.txt.gz
Temp
61 61 61 61 62 62 62 62 62 62 62 62 62 62 62 62 61 64 67 80 79 80 81 84 82 85 85 80 80 76 65 67 65 71 75 80 76 83 85 78 81 83 77 79 82
61 61 61 61 61 61 62 62 62 62 62 62 62 62 62 62 60 65 81 82 82 81 84 83 80 83 75 77 78 71 64 70 80 78 79 80 80 79 77 76 77 77 81 82 83
61 61 60 60 61 61 61 61 62 61 61 61 61 61 62 61 62 75 81 82 82 82 88 86 86 83 75 76 78 76 71 80 85 86 85 80 80 83 76 73 76 73 76 80 80
60 60 60 60 60 61 61 61 61 60 60 61 61 62 62 59 63 87 81 80 83 85 85 83 81 74 72 73 82 73 83 85 88 90 87 81 83 79 79 78 82 79 80 80 78
60 60 60 60 60 60 60 60 60 60 60 60 61 62 57 59 67 88 83 82 83 83 81 79 76 74 70 75 79 77 82 87 92 88 88 87 82 79 81 83 84 82 82 79 78
59 59 59 59 60 60 60 59 59 59 60 61 61 62 55 58 84 88 88 84 85 82 79 80 79 80 75 77 76 82 83 84 90 86 86 85 82 83 81 85 81 80 79 79 79
59 59 59 59 59 60 59 58 58 59 60 61 62 62 58 67 85 85 83 80 83 84 79 82 85 76 77 76 84 82 76 81 83 87 84 86 76 76 83 82 79 78 79 80 80
59 59 59 59 59 59 58 57 58 59 61 62 62 59 54 79 82 82 84 84 86 83 85 85 85 79 75 81 80 73 69 64 80 82 86 81 67 78 83 80 76 78 80 79 79
58 58 58 58 58 58 57 57 58 62 63 63 56 54 57 81 75 81 82 84 84 84 85 94 82 75 75 69 63 64 60 65 72 82 82 76 67 81 83 81 78 80 79 80 79
58 58 58 58 57 57 56 57 58 61 63 66 68 58 68 77 83 85 84 87 83 82 81 80 72 67 64 60 54 59 60 65 67 78 78 70 70 79 81 80 78 79 81 82 79
58 57 57 57 57 55 54 48 60 58 59 61 62 66 76 82 89 85 87 85 83 75 67 71 63 62 64 67 70 69 66 66 74 79 73 73 73 77 80 79 77 78 79 80 82
57 57 57 56 55 56 50 55 59 64 54 71 72 74 77 79 75 81 88 77 74 68 68 65 62 68 73 73 72 71 68 67 73 79 75 70 74 78 79 79 79 79 79 80 82
57 57 56 55 55 55 53 58 68 66 53 65 74 73 74 76 70 74 80 79 72 67 68 64 67 76 75 72 70 69 67 69 67 75 74 72 66 71 78 80 81 82 82 82 82
57 57 56 54 53 52 55 65 67 67 47 58 65 72 75 76 69 84 84 82 73 70 69 66 76 74 73 71 70 60 75 76 74 66 59 74 55 66 71 72 77 80 81 82 83
57 56 55 54 45 47 61 63 65 60 41 72 72 82 75 72 75 78 87 79 72 70 68 64 71 71 70 72 75 69 76 74 74 67 59 67 58 63 72 69 72 77 82 83 84
56 55 54 51 47 53 60 59 57 49 41 64 76 71 67 68 73 80 80 79 79 72 72 70 78 76 75 78 78 79 72 70 66 65 52 61 64 59 62 73 76 83 83 85 85
54 53 52 56 46 57 57 55 45 39 65 66 63 68 64 65 71 70 74 70 66 56 60 67 71 75 77 69 73 71 60 54 51 54 52 63 59 65 73 79 81 84 81 84 87
53 52 52 57 51 53 52 48 36 54 56 65 60 64 63 66 68 73 66 67 70 62 57 58 56 70 76 73 65 63 65 58 45 46 52 62 54 64 76 84 85 88 86 84 87
52 47 50 51 59 55 45 35 41 51 59 56 57 54 55 63 60 65 66 67 71 71 58 53 59 72 79 79 75 68 58 70 54 48 50 57 62 71 76 78 82 83 83 85 88
46 42 46 58 60 51 40 38 45 57 59 58 47 53 47 53 55 56 56 70 72 77 76 64 53 67 77 78 78 70 71 57 50 49 49 54 56 64 69 73 75 81 82 87 89
42 39 52 60 58 46 36 39 50 59 61 53 50 49 52 51 53 52 55 66 71 75 77 73 60 64 68 67 67 67 64 56 60 58 54 45 60 69 71 72 73 81 87 89 89
40 33 53 61 39 40 41 46 53 55 60 57 57 55 53 55 52 53 54 61 71 69 61 71 66 59 65 72 76 76 69 63 61 51 56 63 63 74 76 77 76 79 86 90 91
37 36 52 50 32 34 40 46 51 50 48 49 51 53 54 48 45 52 54 66 60 59 53 61 64 57 55 63 62 64 71 72 55 55 59 52 56 75 76 76 77 78 81 82 85
37 32 39 42 46 39 37 41 42 52 52 53 49 51 47 44 46 43 49 55 58 59 61 57 53 57 58 63 64 60 68 70 68 63 61 61 58 66 69 71 74 77 83 84 85
37 33 37 30 37 39 41 42 39 40 50 50 46 47 43 36 40 43 48 48 54 59 54 47 40 51 58 68 72 70 68 71 66 68 63 68 61 66 70 71 77 81 81 80 88
38 38 39 35 35 35 40 40 37 40 42 42 42 46 44 37 42 39 44 40 42 49 47 46 41 48 51 65 72 70 72 73 71 72 70 65 64 72 77 76 75 79 82 80 81
42 46 40 39 33 30 33 39 41 45 44 48 47 44 43 46 48 52 49 47 47 42 45 42 41 43 40 58 67 61 71 72 71 72 72 64 69 71 71 72 73 77 77 79 78

GFSSW_sfc_temp_015.txt.gz
Temp
61 61 61 61 61 62 62 62 62 62 62 62 62 62 62 61 61 62 65 77 75 80 81 79 80 80 80 74 77 74 59 59 63 67 70 76 73 80 83 75 78 79 75 77 79
61 61 61 61 61 61 61 61 62 62 62 62 61 61 61 61 57 60 77 80 80 80 79 74 72 77 71 73 73 67 58 65 75 76 73 77 77 76 74 73 73 74 78 79 79
61 61 61 61 61 61 61 61 61 61 61 61 61 61 61 60 61 73 81 80 81 81 85 82 81 78 70 72 72 70 64 75 79 83 81 77 76 80 73 69 72 69 73 77 76
60 60 60 60 60 60 61 61 60 60 60 60 61 61 61 57 61 82 80 79 80 84 83 80 77 71 67 68 76 69 75 78 81 86 81 77 80 75 75 75 79 77 77 77 76
60 60 60 60 60 60 60 60 60 60 60 60 61 61 56 56 65 84 82 81 80 81 80 77 73 71 68 70 75 72 76 80 84 86 83 82 77 76 75 80 81 79 78 76 76
60 59 59 59 60 60 60 59 59 59 59 60 61 61 53 57 81 82 81 80 80 78 76 77 75 75 71 72 72 77 79 79 81 82 84 78 78 77 78 81 78 77 76 76 76
59 59 59 59 59 59 59 58 58 58 59 60 61 59 54 66 82 81 80 77 78 80 74 78 80 77 74 71 78 77 72 76 78 80 81 82 73 73 80 79 75 75 76 76 77
59 59 59 59 59 59 58 57 57 59 61 62 62 57 53 74 75 77 80 76 81 78 80 80 80 74 71 76 75 69 66 62 74 76 80 80 66 76 78 75 73 75 76 76 76
58 58 58 58 58 57 56 56 58 61 62 63 56 52 56 77 71 75 79 79 77 76 78 90 77 70 70 65 59 61 58 62 69 78 77 74 64 75 78 75 72 74 75 76 76
58 58 58 58 57 56 56 56 57 60 63 65 66 54 64 73 77 80 76 82 79 76 75 75 69 61 59 58 52 56 58 60 64 73 75 67 64 74 76 74 73 74 75 75 75
58 57 57 57 56 55 53 51 56 54 55 58 59 63 71 78 83 79 79 78 76 72 63 67 61 55 60 62 66 65 62 62 68 74 68 69 67 71 75 74 73 73 74 75 76
57 57 57 56 55 55 51 54 58 55 48 63 64 67 74 74 71 76 82 72 69 63 65 60 59 65 69 67 67 65 62 63 69 74 70 67 67 73 74 74 75 74 74 75 77
57 57 56 55 54 53 50 54 61 54 46 60 66 66 69 71 66 71 76 73 67 63 63 60 63 71 70 66 64 61 60 65 64 69 69 65 61 67 74 76 77 78 79 79 78
56 56 55 54 52 48 53 58 59 58 45 56 61 68 69 70 62 79 80 77 69 66 64 61 71 70 67 65 65 54 68 70 68 62 55 65 51 60 69 71 74 76 77 79 80
56 56 54 53 44 44 58 58 59 54 39 69 65 76 69 68 69 70 81 74 67 66 64 61 65 67 64 68 68 65 71 68 67 61 54 61 55 59 68 67 70 75 77 79 81
56 54 54 49 44 49 55 54 53 47 39 62 69 64 63 66 70 72 74 75 76 68 66 68 72 72 69 72 73 73 66 64 60 56 49 62 58 60 59 69 72 76 79 80 81
54 53 52 54 44 51 53 51 43 37 60 59 55 59 58 61 66 67 68 66 62 57 57 63 69 69 73 65 67 65 56 47 45 46 50 60 54 65 68 74 78 77 79 82 83
53 51 50 55 49 49 47 45 34 51 50 58 56 57 56 58 60 63 66 63 69 60 58 54 51 67 70 67 63 59 60 44 40 41 51 56 51 60 76 77 82 85 83 84 83
52 48 43 48 56 49 42 34 39 46 55 53 54 49 49 54 54 55 53 64 69 64 57 52 55 68 75 72 72 60 57 65 49 43 46 51 59 66 73 74 75 80 83 83 83
45 42 41 53 54 46 38 35 40 53 55 54 44 48 43 48 49 49 50 60 61 66 63 59 50 62 72 73 71 69 67 54 45 45 45 49 53 56 64 70 71 75 78 81 82
40 36 48 54 49 41 31 34 46 55 57 51 46 45 46 47 50 47 50 58 60 59 62 56 54 59 64 60 62 58 62 52 54 51 49 48 55 67 68 70 71 73 78 81 81
37 31 51 52 37 33 31 38 49 51 53 51 52 49 47 48 45 47 50 54 60 58 49 52 47 55 60 66 74 70 66 56 53 49 49 55 56 68 75 75 72 75 76 80 84
35 33 47 47 30 32 38 44 48 46 46 47 47 49 49 44 41 46 48 57 58 55 48 50 43 44 49 54 59 61 64 65 61 52 58 51 54 69 72 72 72 74 74 77 78
36 31 36 39 39 36 33 38 39 49 48 49 47 47 44 42 43 42 46 54 56 56 59 50 40 43 44 49 57 56 64 68 62 55 60 61 58 62 67 69 72 72 74 75 77
35 31 34 30 34 33 36 38 38 36 45 48 42 44 40 33 37 39 46 46 52 55 50 43 36 42 47 53 56 59 62 67 61 65 60 65 59 66 67 69 72 74 74 74 76
37 34 39 36 39 33 34 36 37 38 39 39 40 43 40 35 38 36 40 39 41 47 44 41 38 41 44 56 58 58 64 67 68 68 66 67 58 69 74 70 70 74 74 76 77
42 40 40 37 37 35 32 35 37 41 43 44 44 40 39 42 45 45 46 45 45 41 39 39 37 37 35 49 50 51 62 66 70 69 69 63 65 69 70 70 70 73 72 75 78

GFSSW_sfc_temp_018.txt.gz
Temp
62 62 61 61 61 61 62 62 62 62 62 62 62 62 61 61 60 59 62 75 73 78 81 79 77 78 78 74 75 73 57 56 62 65 68 71 71 78 80 73 76 77 73 74 75
61 61 61 61 61 61 61 61 61 61 61 61 61 61 61 61 55 58 75 79 79 80 77 73 71 75 67 69 71 64 55 62 72 72 70 74 74 74 72 71 72 73 76 75 76
61 61 61 61 61 61 61 61 61 61 61 61 61 61 61 60 57 71 81 80 79 80 80 79 78 75 66 69 69 67 61 69 75 78 77 73 74 77 71 67 71 68 70 73 73
61 60 60 60 61 61 61 61 61 60 60 60 61 61 61 55 60 76 79 79 80 81 78 76 73 67 64 64 71 63 71 74 76 80 76 74 76 73 73 72 79 74 74 73 71
60 60 60 60 60 60 60 60 60 60 60 60 61 61 54 53 64 79 79 79 78 78 76 73 69 67 64 66 70 67 72 77 80 77 78 78 74 74 73 78 78 76 75 73 72
60 59 59 59 60 60 60 59 59 59 59 60 61 61 50 54 78 79 77 77 76 76 74 74 73 73 68 68 68 73 74 76 77 76 77 74 75 76 76 77 75 74 73 73 73
59 59 59 59 59 59 59 59 58 58 59 60 61 58 51 63 78 77 75 73 79 78 71 75 76 75 71 66 75 74 69 73 74 75 76 78 69 71 76 76 73 73 73 74 74
59 59 59 59 59 59 58 57 57 59 60 62 62 55 53 71 72 72 75 73 78 75 74 78 77 71 67 72 72 65 64 60 71 74 76 75 63 74 77 73 71 72 73 73 74
58 58 58 58 58 57 56 56 59 63 63 63 54 51 56 74 68 71 76 74 73 72 75 86 75 67 66 62 57 57 55 60 65 75 73 71 63 75 76 72 70 71 72 73 73
58 57 57 57 57 56 55 56 58 61 62 63 63 52 62 69 73 75 72 79 74 72 73 71 64 58 55 56 52 53 55 58 62 68 68 67 65 70 74 72 71 71 72 72 73
57 57 57 57 56 55 53 51 53 51 52 54 56 60 67 74 78 74 74 75 73 67 59 63 56 54 54 60 63 62 60 61 64 71 66 66 63 66 71 72 71 71 71 72 73
57 57 56 56 55 54 50 53 53 52 44 59 58 62 70 69 67 72 78 68 66 59 62 56 56 61 65 64 64 62 59 60 64 71 66 65 66 68 70 71 72 72 72 73 74
56 56 56 55 54 50 47 52 56 50 41 54 59 61 63 66 63 67 74 69 63 60 60 59 60 68 66 62 60 57 58 59 60 65 65 62 59 62 70 72 74 75 76 75 74
56 56 55 53 50 45 50 53 53 53 41 53 57 64 66 65 59 75 77 73 65 64 60 58 66 66 62 62 63 50 63 67 65 59 53 62 50 57 64 67 71 72 74 75 76
56 56 54 53 44 42 54 53 54 49 37 65 59 72 65 63 65 66 76 69 63 62 62 58 62 63 62 63 65 61 68 65 64 58 53 56 53 56 62 62 67 72 74 76 78
55 54 54 48 43 46 50 50 47 44 36 58 64 60 59 61 65 67 69 71 71 64 61 64 67 69 66 68 68 69 63 59 54 52 45 57 55 51 56 64 68 73 76 78 79
54 53 51 52 44 49 48 47 41 35 57 54 52 55 54 56 60 62 62 62 60 52 52 60 65 64 69 62 62 63 54 43 42 43 48 55 53 63 64 72 73 74 76 78 80
52 51 49 52 50 48 44 44 31 48 46 54 54 54 50 53 54 56 59 60 61 58 52 53 48 65 67 64 59 56 54 43 37 38 47 52 50 57 72 73 78 80 80 81 81
51 43 43 47 54 46 42 32 36 41 51 49 51 46 46 51 51 52 50 59 62 59 54 50 53 66 69 68 69 55 55 59 46 41 43 48 55 65 69 71 71 76 79 78 81
43 41 40 51 51 45 36 33 37 50 51 50 41 46 40 45 46 46 48 52 52 58 55 53 48 60 69 70 66 62 62 51 42 40 38 45 49 55 60 68 70 70 73 79 81
38 35 47 52 47 39 28 31 40 50 52 45 43 43 43 43 46 44 47 51 55 54 55 47 50 52 61 59 62 56 54 49 53 45 41 40 51 60 65 66 70 74 75 78 80
37 30 49 49 34 31 33 38 44 45 49 47 48 45 44 45 43 45 45 48 57 55 46 46 41 47 54 60 69 70 63 54 52 45 44 45 53 67 69 74 71 73 73 76 77
37 37 45 45 26 28 38 41 45 41 42 44 44 45 46 42 38 44 46 54 54 52 46 48 40 40 46 53 57 55 62 59 56 49 52 47 53 75 69 69 72 70 71 72 73
39 31 35 44 34 30 30 33 38 48 43 43 44 45 41 39 40 39 44 52 54 54 58 50 37 39 39 43 48 49 56 60 60 55 56 57 60 61 64 67 69 69 70 73 72
34 30 37 29 31 36 29 33 35 33 42 43 40 40 38 31 36 37 42 44 50 53 49 43 37 39 43 49 51 52 54 57 54 61 56 62 62 63 65 65 69 73 70 71 73
37 35 38 35 39 37 33 30 35 38 37 37 35 39 41 32 35 33 37 36 39 45 41 39 38 38 40 51 52 49 55 57 59 59 58 63 58 66 71 69 68 70 70 70 72
40 43 39 38 36 32 31 35 36 38 41 43 39 37 37 42 43 43 42 42 42 39 38 37 35 35 34 45 46 45 56 59 60 62 63 57 65 69 67 65 68 72 71 70 71

GFSSW_sfc_temp_021.txt.gz
Temp
62 62 62 61 62 62 62 62 62 62 62 62 62 62 61 61 61 64 68 81 78 78 81 82 83 82 82 78 79 78 72 69 72 73 76 80 77 82 84 78 80 81 79 81 80
62 62 61 61 61 62 62 62 62 62 62 62 61 61 61 61 61 65 79 78 79 80 81 78 76 79 76 76 77 72 70 73 80 82 81 80 81 80 77 77 77 78 80 80 80
61 61 61 61 61 61 61 61 61 61 61 61 61 61 61 62 65 79 81 79 79 82 85 84 82 79 73 76 75 73 72 78 82 85 86 82 80 83 78 74 80 76 76 78 78
61 61 61 61 61 61 61 61 61 61 61 61 61 61 61 60 68 82 79 79 79 87 83 81 79 74 72 70 77 70 77 80 83 86 84 80 84 80 80 80 86 83 81 79 77
60 60 60 60 60 60 61 60 60 60 60 60 61 61 60 63 72 83 79 80 83 84 81 79 75 75 72 74 75 73 78 82 84 85 86 86 81 82 80 85 87 83 81 79 79
60 59 59 59 59 60 60 59 59 59 59 60 61 61 58 62 85 84 83 82 82 83 82 81 78 81 77 76 76 80 80 83 85 86 86 83 83 82 84 84 81 80 79 80 80
59 59 59 59 59 59 59 58 57 58 59 60 61 60 57 71 85 84 83 82 84 84 79 84 84 81 80 76 83 81 76 82 85 85 84 86 75 77 85 83 79 79 79 79 80
59 59 59 59 59 58 58 57 57 61 61 61 62 60 62 78 82 80 82 80 83 87 86 87 86 84 79 82 79 76 77 73 84 85 86 85 77 82 84 81 78 78 78 78 79
58 58 58 58 58 57 56 56 59 64 64 63 59 57 65 76 73 81 84 80 80 83 85 87 85 79 78 74 72 74 70 71 77 85 82 81 79 86 84 82 79 78 78 78 79
57 57 57 57 57 56 55 56 60 63 63 65 63 57 68 73 78 78 84 83 78 78 78 78 77 73 73 71 62 66 68 72 73 81 82 79 79 81 83 82 80 79 79 78 79
57 57 57 56 56 55 57 63 63 60 60 63 64 65 71 81 83 78 83 81 80 76 69 74 68 64 70 72 73 73 72 72 78 83 80 79 79 81 81 81 80 79 79 79 80
57 57 56 56 55 54 59 60 55 57 49 63 60 65 71 74 72 77 84 76 74 68 72 67 64 73 75 72 71 71 70 71 75 80 78 78 78 83 81 79 81 80 79 80 82
57 56 56 55 54 56 55 57 61 60 49 60 63 65 68 72 67 75 80 78 73 70 68 67 71 75 71 69 68 70 69 72 72 76 79 76 75 76 79 82 82 83 83 83 83
56 56 55 53 57 53 58 59 59 58 51 61 62 68 70 73 66 80 82 80 75 69 71 71 77 71 69 68 71 66 75 74 72 71 67 77 66 73 79 77 78 81 81 82 84
56 55 54 53 51 52 59 59 61 56 47 66 65 77 73 71 73 72 83 79 73 73 72 68 69 68 66 69 73 69 76 73 74 71 70 72 67 75 74 74 77 80 82 83 86
55 54 53 53 52 56 57 57 56 51 44 62 68 66 65 69 71 72 74 82 81 74 75 75 77 76 74 75 75 78 73 72 70 71 59 69 68 71 75 77 81 82 83 84 85
54 52 53 56 55 61 56 56 50 45 62 56 58 62 61 63 67 68 67 68 68 62 62 70 70 76 79 72 75 75 70 60 57 57 58 74 67 71 81 82 87 84 84 85 86
52 51 54 56 59 57 57 54 41 52 51 58 58 60 58 59 62 63 66 65 73 73 67 61 58 72 76 74 69 70 71 63 52 57 62 68 63 72 83 87 88 90 90 89 87
51 54 56 59 60 57 54 43 45 46 49 49 55 54 55 57 58 59 63 66 71 72 65 63 63 74 77 78 77 68 65 76 65 62 62 68 73 77 82 84 86 88 89 88 89
50 48 53 59 58 57 50 39 43 50 51 53 46 51 48 52 55 57 58 56 62 64 65 67 61 73 75 79 78 73 77 62 66 54 53 63 63 70 75 80 83 84 87 89 90
48 46 59 59 59 53 41 40 43 51 51 49 48 47 50 48 53 53 52 56 58 59 63 63 65 64 73 69 69 68 67 70 71 66 59 58 66 77 78 80 83 86 88 90 90
46 42 58 57 46 45 41 42 46 48 51 49 52 50 48 50 50 51 50 53 60 60 55 58 64 62 65 76 80 76 72 70 63 57 64 66 67 81 84 86 85 88 89 90 90
39 42 56 58 36 37 41 42 46 46 46 45 45 49 52 48 46 50 51 56 59 59 55 59 57 57 61 70 72 70 74 74 74 72 60 60 67 85 82 81 86 86 88 86 86
44 39 48 49 46 39 37 39 40 48 44 43 43 49 47 47 50 47 49 55 57 59 58 59 55 56 59 61 61 60 66 72 71 65 64 65 70 77 80 79 82 84 86 88 86
42 39 41 37 41 42 41 38 38 39 45 46 37 38 40 40 45 45 48 51 56 56 57 57 51 53 55 57 58 58 60 63 64 68 64 69 70 75 79 80 84 88 86 84 84
41 39 41 38 42 40 39 38 38 40 40 40 37 39 38 35 42 40 44 47 47 54 53 56 50 51 51 57 59 56 61 62 63 65 66 68 68 81 80 83 82 85 86 86 85
46 47 39 37 39 36 40 40 39 42 44 45 39 38 39 44 47 50 52 51 51 47 47 49 51 49 47 54 55 52 60 63 65 68 68 63 71 79 79 80 79 82 85 85 88

GFSSW_sfc_temp_024.txt.gz
Temp
62 62 62 62 62 62 62 62 62 62 63 62 62 62 62 62 62 73 77 87 85 79 83 91 91 90 91 88 89 87 81 82 82 82 84 89 85 90 92 87 88 89 89 88 89
62 62 62 62 62 62 62 62 62 62 62 62 62 62 62 62 73 79 88 81 81 80 90 87 84 87 85 87 87 83 83 83 89 91 88 89 89 88 86 85 86 85 91 89 89
61 61 61 61 61 61 61 62 62 62 61 61 62 62 62 65 75 89 82 79 79 83 96 94 92 88 85 88 86 86 83 89 90 92 93 91 88 92 87 83 87 83 84 86 87
61 60 60 60 61 61 61 61 61 61 61 61 61 62 62 72 74 92 80 79 79 94 95 91 89 84 83 81 89 81 88 89 91 92 91 89 93 89 90 90 94 91 89 87 86
60 60 60 60 60 60 60 60 60 60 60 60 61 62 68 73 81 94 79 80 87 92 91 89 85 86 82 86 87 82 88 90 92 93 93 94 89 89 90 93 96 92 89 87 88
59 59 59 59 59 60 60 59 59 58 59 60 61 62 71 68 96 96 93 88 91 92 91 92 88 91 87 86 85 90 88 90 92 94 95 91 91 91 92 95 91 89 88 89 89
59 59 59 59 59 59 59 58 58 58 60 62 62 67 69 79 93 95 94 93 94 94 90 95 95 89 90 85 91 89 83 88 91 93 91 94 88 87 95 93 90 89 89 89 90
58 59 59 59 59 58 58 56 57 61 63 61 62 69 71 90 94 90 94 92 96 97 96 97 96 91 89 91 86 84 86 80 91 93 93 92 82 92 96 91 89 89 89 88 89
58 58 58 58 58 57 56 56 60 64 63 63 67 70 74 80 82 91 93 87 92 93 94 95 93 86 88 80 79 83 78 80 85 93 91 90 85 94 96 93 90 89 89 89 88
58 58 57 57 57 56 55 57 62 65 69 71 73 65 76 79 87 90 93 93 86 87 84 83 83 80 81 78 69 75 77 82 81 90 90 88 87 94 95 93 92 90 90 89 89
57 57 57 57 56 55 62 75 71 67 71 73 77 77 79 88 89 87 91 88 87 82 75 81 75 71 78 81 83 84 82 80 85 91 87 87 87 90 93 92 92 90 89 89 89
57 57 56 56 55 55 70 70 61 61 56 73 73 77 83 82 79 84 92 81 79 73 81 76 71 81 84 83 80 80 78 80 86 89 86 86 86 92 93 91 92 91 90 90 92
57 56 56 55 54 65 69 64 71 70 59 71 76 76 77 81 77 81 86 85 79 75 77 75 78 83 81 79 76 77 76 78 80 85 87 85 82 86 93 94 93 95 94 94 92
56 56 55 53 63 68 69 72 73 70 57 71 70 74 79 81 74 89 89 85 81 76 78 79 85 79 78 76 78 73 82 81 81 79 73 87 72 83 90 89 92 94 94 94 93
56 56 54 52 64 65 67 72 71 67 52 74 72 84 81 78 84 80 90 85 78 78 80 74 77 77 75 76 81 76 85 82 80 78 77 79 76 81 89 86 90 94 95 95 96
56 54 53 65 69 70 73 71 67 55 51 69 73 71 71 75 78 83 81 88 87 81 82 80 87 84 81 83 83 84 80 80 79 78 67 76 77 78 84 86 91 95 96 95 95
54 53 57 67 64 73 71 67 55 52 70 63 66 71 72 72 74 76 74 72 72 67 69 76 79 83 85 78 82 80 76 66 64 65 65 80 76 78 89 93 93 95 97 96 96
52 51 61 69 73 71 67 59 46 59 57 65 64 66 65 73 72 74 72 71 76 78 75 68 65 78 84 80 76 76 77 69 58 64 69 79 71 80 92 96 97 98 101 100 97
51 71 71 72 73 70 60 50 53 51 55 54 61 61 66 68 68 70 71 72 76 80 72 71 71 84 84 85 84 76 72 84 75 76 71 78 81 89 92 93 95 96 99 100 98
62 65 68 74 73 67 56 47 52 55 56 58 52 59 57 61 62 67 71 69 76 82 82 77 69 81 82 85 85 82 84 72 75 61 60 72 74 77 83 86 91 93 97 100 101
64 60 68 73 73 63 50 49 52 59 57 53 52 53 57 57 60 64 65 63 68 76 72 78 76 76 81 76 75 77 76 78 80 75 67 66 75 89 86 89 89 94 97 101 101
62 54 68 71 58 57 50 50 49 55 59 56 56 55 55 57 58 60 59 62 66 68 66 76 75 69 74 84 86 83 78 78 71 66 73 74 77 92 92 93 94 95 98 101 102
55 57 70 68 47 47 52 51 53 52 50 50 49 55 57 55 52 57 59 63 65 67 66 72 69 65 69 78 82 78 80 81 81 80 69 68 76 91 90 89 92 93 96 97 98
55 50 60 61 60 49 46 48 48 55 51 53 42 50 51 54 58 54 57 61 65 65 60 63 70 68 67 70 76 72 77 80 79 72 73 75 78 84 87 87 90 92 94 96 96
56 51 50 45 48 46 46 49 44 42 52 54 39 38 38 45 53 52 55 59 63 63 66 67 62 65 72 67 69 76 75 78 75 76 72 78 78 83 87 88 90 93 94 94 94
50 49 52 44 47 47 45 45 44 45 46 46 43 40 43 36 42 42 49 55 56 61 62 66 60 62 62 67 66 66 70 74 76 79 78 79 78 90 92 90 89 90 91 91 93
58 57 48 45 45 46 46 42 42 46 50 50 49 47 45 46 49 53 58 59 58 55 56 58 61 57 57 66 65 60 68 70 73 76 76 71 78 86 85 85 87 89 91 91 93

GFSSW_sfc_temp_027.txt.gz
Temp
62 62 62 62 62 62 62 63 63 63 63 63 63 63 62 62 62 75 78 90 90 79 81 93 95 96 97 93 96 97 80 78 84 79 89 96 92 97 99 92 93 94 90 89 92
62 61 61 61 62 62 62 62 62 62 62 62 62 62 62 62 73 82 90 84 82 80 91 91 90 94 91 91 94 88 73 65 92 96 92 94 92 93 92 90 89 92 94 92 94
61 61 61 61 61 61 61 62 62 61 61 61 61 62 62 66 77 90 84 83 81 82 99 99 97 94 89 94 93 92 78 71 95 97 98 96 94 97 93 88 91 88 88 91 92
61 61 60 61 61 61 61 61 61 61 60 61 61 62 62 74 75 93 82 81 81 95 98 96 94 88 87 87 95 87 91 75 95 98 96 93 97 93 94 95 98 95 93 91 91
60 60 60 60 60 60 60 60 60 59 60 60 61 62 67 77 84 95 80 82 91 92 95 93 90 89 86 92 94 90 93 96 97 97 97 97 93 90 94 99 100 96 93 91 92
59 59 59 59 60 60 60 59 59 59 59 60 61 62 71 72 101 104 98 90 93 92 96 96 93 95 91 92 91 95 94 95 97 97 99 95 95 95 97 101 97 94 92 93 92
59 59 59 59 59 59 59 58 58 59 61 62 63 68 76 81 101 102 100 95 98 96 95 99 100 94 95 90 97 95 88 92 93 96 95 98 91 91 99 98 95 93 93 93 93
59 59 59 59 59 59 58 57 57 61 62 63 63 72 74 98 99 98 101 97 101 101 101 102 102 97 93 97 93 88 89 82 92 95 97 96 82 95 100 97 93 93 93 92 93
58 58 58 58 58 57 56 56 59 64 63 64 70 75 78 84 89 98 100 94 98 99 100 102 99 92 92 85 83 86 79 82 87 97 95 93 87 93 101 98 94 94 93 93 93
58 58 58 58 57 56 55 56 65 63 70 77 80 71 80 84 94 95 100 98 94 94 91 91 90 83 86 82 71 78 81 85 84 93 94 91 90 92 98 98 96 95 95 93 94
58 57 57 57 56 55 63 83 75 71 76 77 80 80 88 94 96 93 97 94 94 89 80 86 79 75 81 84 86 87 86 84 90 96 92 88 89 94 97 98 97 95 95 94 94
57 57 57 56 55 55 70 74 69 70 61 76 79 81 88 92 84 90 97 86 84 78 83 80 74 84 87 87 85 84 83 85 90 94 92 89 87 95 97 97 97 97 96 95 96
57 57 56 55 55 68 76 73 81 79 64 73 83 82 84 88 83 87 91 88 82 79 80 78 82 87 85 84 82 82 82 84 85 91 94 89 85 88 97 99 98 100 99 99 97
57 57 56 54 63 77 76 79 82 79 58 73 79 83 88 87 79 93 94 88 84 79 81 81 89 85 83 81 85 78 88 87 85 84 77 90 73 84 92 93 95 98 99 99 98
57 56 54 52 68 72 75 82 81 75 50 81 79 90 89 81 88 84 96 89 82 81 83 78 83 83 80 82 87 81 90 85 85 82 82 83 78 85 91 89 93 97 99 100 100
56 55 54 71 77 79 81 81 76 56 50 74 79 76 77 80 84 90 87 91 91 84 85 84 92 89 86 88 89 90 85 85 85 82 70 79 80 81 88 90 95 98 100 101 102
54 53 56 72 70 82 81 74 56 50 76 68 68 78 77 76 77 84 79 76 75 69 72 80 83 89 91 84 88 84 80 69 67 68 67 82 78 81 93 97 98 98 100 102 103
53 52 65 78 82 81 75 62 45 62 60 67 65 67 66 77 77 80 77 73 79 79 77 72 69 83 89 85 81 80 81 71 59 65 71 81 74 82 96 100 102 103 104 104 103
52 80 79 79 81 79 66 52 54 59 59 58 62 64 67 73 77 77 76 75 79 82 72 75 74 88 89 90 88 80 76 87 80 82 77 81 84 93 97 97 98 100 102 103 103
64 74 76 81 81 75 61 51 52 59 61 61 53 62 59 67 70 73 74 81 80 84 87 81 73 86 87 90 89 86 88 75 79 65 66 77 79 80 87 90 96 96 99 102 105
67 68 75 81 80 68 51 53 55 63 64 57 55 54 53 54 57 69 73 75 79 81 85 83 81 80 86 80 79 80 80 81 83 80 71 70 78 93 91 93 93 97 100 102 104
70 60 77 79 62 62 51 57 54 61 63 59 59 59 55 54 51 59 68 68 71 74 73 83 80 72 79 88 90 87 82 82 73 70 79 79 83 96 98 98 97 97 100 103 105
62 66 79 75 53 54 57 56 58 56 57 55 54 53 55 53 48 50 59 69 71 73 70 80 74 67 74 82 86 81 84 86 84 84 74 73 78 95 95 95 98 97 100 102 104
62 57 65 68 65 55 51 51 50 59 56 58 52 55 51 52 57 53 52 63 70 70 63 68 72 70 71 76 81 75 81 84 84 77 77 79 82 87 90 91 93 97 100 101 102
60 57 58 51 55 55 55 52 48 48 56 58 45 47 47 44 50 43 51 59 69 67 71 72 64 72 77 82 84 81 80 82 79 81 76 82 82 88 90 91 94 96 97 96 97
53 51 56 51 53 53 52 49 50 50 52 51 49 50 52 44 46 42 47 52 54 63 65 73 62 69 70 79 75 74 82 82 83 82 83 84 85 96 96 96 94 95 95 94 95
55 58 50 49 51 49 48 51 51 50 53 54 53 51 50 52 57 61 59 62 61 57 59 62 65 65 62 72 72 65 76 81 83 85 85 78 86 94 92 91 91 92 94 94 95

GFSSW_sfc_temp_033.txt.gz
Temp
62 62 62 62 62 62 62 62 62 63 63 62 62 62 62 62 62 64 61 76 78 80 81 86 86 86 84 79 84 83 60 55 62 68 72 77 81 87 90 81 81 83 77 78 81
61 61 61 61 62 62 62 62 62 62 62 62 62 62 62 62 59 61 76 80 81 81 81 81 79 82 77 77 81 72 61 62 77 78 75 77 77 85 81 77 75 75 79 82 82
61 61 61 61 61 61 61 61 62 61 61 61 61 61 62 62 61 72 83 79 82 81 84 85 86 82 75 79 79 77 68 76 79 82 77 78 78 77 79 71 73 71 76 80 81
61 61 60 61 61 61 61 61 61 61 61 61 61 61 62 61 61 88 83 81 82 85 84 83 82 76 73 72 82 75 81 79 79 83 83 81 81 75 83 78 81 79 81 80 79
60 60 60 60 60 60 61 60 60 60 60 61 61 61 58 57 64 90 82 81 83 82 81 80 77 78 72 77 81 80 77 82 86 82 80 84 80 79 81 83 84 82 81 79 79
59 59 59 59 60 60 60 60 59 59 60 61 63 61 55 53 85 89 89 83 84 82 81 81 79 84 79 80 79 84 83 80 82 84 82 79 80 77 82 84 82 81 78 79 80
59 59 59 59 60 60 59 59 59 59 60 62 64 63 59 61 89 91 89 81 85 84 79 85 86 82 83 78 87 85 81 82 81 83 84 83 74 70 84 84 81 80 78 80 81
59 59 59 59 59 59 58 58 58 60 61 63 65 61 52 81 80 80 84 85 88 87 86 87 88 83 81 85 84 79 79 71 79 81 84 84 68 83 87 83 79 81 81 81 81
59 59 59 59 58 58 57 57 61 64 62 64 59 57 58 86 78 84 86 86 86 85 87 93 86 79 81 74 70 72 65 69 76 88 88 81 72 82 87 83 80 81 83 83 82
58 58 58 58 57 57 56 59 65 61 64 70 70 56 67 76 86 87 89 90 85 83 82 81 76 72 73 68 58 62 64 69 72 83 83 78 75 79 84 83 72 72 82 83 84
58 58 58 57 57 56 55 58 66 61 66 60 63 66 69 82 86 86 90 86 86 80 69 75 66 63 69 72 74 73 71 71 78 84 80 79 77 79 74 71 72 69 70 82 84
58 57 57 57 55 57 57 67 67 68 57 70 70 70 75 78 69 78 90 77 76 69 74 69 63 73 78 77 74 74 71 71 78 85 81 81 78 79 73 71 70 70 72 78 84
58 57 57 56 56 63 67 70 78 74 56 62 69 69 70 73 69 71 81 80 74 70 71 66 70 79 77 74 72 71 69 71 71 80 83 80 77 70 77 77 76 75 75 80 85
57 57 56 54 60 64 68 76 78 75 46 59 65 73 73 73 68 81 83 81 75 70 73 70 78 76 73 73 74 65 77 77 76 72 63 80 63 71 74 73 72 74 73 79 82
57 57 55 54 54 61 70 78 78 68 36 70 66 83 75 68 74 77 84 79 71 72 73 69 73 72 70 73 78 71 79 77 76 71 64 71 62 73 77 70 70 72 77 76 77
56 55 55 60 62 68 76 77 70 45 39 61 63 62 62 66 70 78 77 81 82 74 75 74 83 78 76 80 81 82 75 72 73 69 58 66 61 62 73 77 77 80 79 79 85
55 54 53 63 59 75 73 67 44 38 60 54 53 59 58 58 62 65 69 68 65 59 61 71 73 80 82 73 79 76 66 54 52 55 54 64 62 65 77 83 85 83 80 81 79
54 52 59 69 70 73 70 54 38 52 50 59 57 57 53 55 54 55 57 64 71 69 61 59 58 73 81 75 70 71 68 51 43 49 55 65 59 68 80 84 88 92 85 82 79
54 63 66 73 73 72 59 43 45 50 56 54 54 50 49 54 50 50 50 54 70 72 60 59 61 78 81 82 79 70 64 70 54 57 52 59 67 75 82 84 84 86 91 87 87
53 59 64 75 76 66 52 45 51 59 58 56 45 50 44 46 44 45 44 57 49 58 69 68 56 75 79 82 81 74 75 61 63 47 48 58 63 65 73 79 82 82 86 90 89
58 56 70 77 73 60 47 50 55 62 59 52 49 47 50 42 43 43 45 49 53 51 58 58 63 64 75 71 70 71 67 69 61 57 48 48 59 79 77 80 80 84 84 94 92
55 48 73 76 55 55 50 55 54 57 57 54 53 54 48 49 43 43 41 44 52 54 48 57 52 58 63 77 82 77 72 70 61 54 58 57 62 79 80 85 85 87 85 88 93
49 54 71 69 46 48 54 54 57 50 50 52 49 52 54 44 37 41 44 54 51 50 47 51 47 51 58 65 74 73 75 73 66 60 57 52 57 82 79 86 85 85 85 84 87
52 46 55 58 57 50 48 49 48 57 53 54 52 54 48 45 47 39 42 51 53 53 56 55 50 48 51 60 66 68 73 75 68 63 63 60 64 73 76 77 79 81 82 84 84
53 48 49 40 45 46 49 50 47 46 53 56 49 48 45 40 44 41 46 48 52 53 50 48 44 54 60 67 70 72 73 74 70 67 64 66 65 69 71 75 77 80 83 84 83
46 41 43 40 44 47 48 46 47 49 50 48 47 49 48 42 42 40 45 46 44 48 47 50 44 53 54 67 70 69 76 76 75 74 70 72 68 76 77 77 79 79 80 79 80
53 52 42 39 42 43 44 47 47 51 52 54 52 48 47 50 53 54 55 55 53 48 45 46 49 45 45 62 66 57 69 75 75 78 75 66 70 75 75 78 78 78 80 81 82

GFSSW_sfc_temp_036.txt.gz
Temp
62 62 62 62 62 62 62 62 62 62 62 62 62 62 62 62 61 61 56 70 71 78 81 78 78 81 80 76 79 71 58 57 60 62 61 69 73 80 80 76 80 80 75 74 77
61 61 61 61 61 62 62 62 62 62 62 61 61 61 61 61 57 56 71 77 78 79 77 76 73 77 70 73 75 70 56 61 70 73 71 67 72 72 75 75 73 72 75 78 78
61 61 61 61 61 61 61 61 61 61 61 61 61 61 61 61 56 67 78 77 78 79 80 81 80 76 69 73 72 70 61 70 74 77 81 76 74 79 72 67 71 68 71 76 77
61 60 60 61 61 61 61 61 61 61 61 61 61 62 61 58 60 82 82 77 79 80 79 77 75 69 66 67 75 67 74 75 77 83 83 79 78 76 77 73 78 75 76 76 75
60 60 60 60 60 61 61 60 60 60 60 61 62 61 55 51 59 82 83 79 80 79 76 74 71 70 66 71 73 72 75 79 83 84 81 83 77 77 78 79 79 78 77 76 76
59 59 60 60 60 60 60 60 59 59 60 61 63 62 52 50 78 81 82 77 78 78 76 75 73 75 71 72 72 77 77 79 83 81 78 79 78 77 75 78 76 77 75 77 77
59 59 59 59 60 60 59 59 59 60 61 61 63 62 53 58 79 80 77 75 77 79 73 78 79 77 75 72 80 78 73 78 79 81 80 83 76 73 76 77 75 75 76 77 78
59 59 59 59 59 59 58 58 59 62 63 61 64 62 49 71 72 72 74 76 80 81 80 81 80 73 70 77 77 72 73 65 78 83 83 80 68 76 77 75 73 74 76 76 77
58 59 59 59 59 58 57 57 60 65 63 64 57 55 49 75 70 74 77 78 77 76 78 88 76 68 70 65 60 64 59 63 72 81 81 78 72 75 76 73 72 73 75 76 77
58 58 58 58 57 57 56 57 61 62 63 66 66 51 62 72 76 80 78 82 77 75 74 74 67 60 64 56 52 56 57 62 66 76 78 75 73 73 76 74 72 72 74 75 76
58 58 58 57 57 56 53 55 61 55 60 54 58 62 67 74 80 75 80 79 78 71 61 67 60 56 62 65 66 66 65 64 72 79 76 75 74 72 75 75 72 71 72 74 76
58 57 57 57 56 55 52 56 58 63 50 65 66 65 70 71 63 71 77 71 69 64 67 59 58 66 70 70 68 68 64 65 73 78 72 72 71 74 75 74 75 74 74 76 78
57 57 57 55 54 57 56 61 66 58 46 57 64 64 64 64 63 65 70 71 66 63 65 61 64 73 70 68 66 65 62 65 65 73 73 75 68 73 76 76 77 77 79 79 80
57 57 56 55 56 53 57 65 64 62 39 51 60 67 69 69 61 75 76 70 69 65 67 64 72 71 68 67 69 59 72 72 70 65 58 72 57 63 69 69 72 75 76 76 79
57 57 55 54 46 51 63 61 68 57 34 61 60 73 68 60 64 65 73 71 63 65 65 64 68 67 65 68 73 66 73 71 70 62 56 65 56 59 68 64 66 71 74 78 78
56 55 55 52 48 55 61 65 56 42 35 55 61 58 57 60 62 63 63 66 74 65 67 69 76 73 71 75 75 76 70 67 67 59 50 63 59 56 62 67 71 75 75 79 80
55 54 52 57 54 59 61 54 39 33 55 50 50 55 54 53 56 55 53 50 48 50 55 65 67 74 76 68 73 71 58 50 48 50 50 65 55 63 72 76 76 75 77 79 81
53 52 53 58 54 58 54 45 32 48 45 54 52 52 48 53 52 52 48 43 51 44 52 54 52 67 75 67 66 66 62 50 42 43 52 57 51 61 75 82 84 80 81 81 81
53 51 52 60 63 57 48 34 35 43 51 49 48 43 45 50 49 47 45 45 49 46 35 49 55 72 76 77 74 62 60 62 50 44 47 55 58 68 75 75 78 78 80 80 81
48 45 51 64 62 54 43 38 41 53 52 50 39 44 39 41 43 42 43 51 48 51 49 43 43 68 72 77 75 70 68 54 48 42 39 50 53 62 68 72 73 78 79 80 81
43 43 57 71 59 47 36 37 47 54 54 46 42 40 43 41 44 40 43 48 50 48 48 45 41 55 63 67 66 62 64 58 58 50 46 43 57 67 69 70 75 77 82 82 82
40 37 57 66 46 41 37 44 51 48 52 48 48 47 44 41 43 43 42 43 53 50 39 47 41 37 55 67 72 73 63 63 57 48 48 49 59 73 78 78 79 78 81 82 84
39 39 56 54 34 36 43 48 51 46 45 46 45 48 45 38 38 42 43 51 53 47 39 42 39 31 46 55 63 62 68 66 56 54 52 54 59 73 75 75 78 83 82 84 84
39 35 43 44 44 37 36 40 43 55 50 50 47 46 41 38 43 41 41 48 52 51 49 45 33 33 34 47 54 56 64 67 67 57 56 59 61 69 72 75 73 80 79 81 88
39 35 38 33 37 37 35 41 43 42 50 50 44 45 39 31 40 40 45 47 50 49 45 40 30 39 45 51 54 55 64 69 63 65 61 63 62 66 70 71 71 74 76 80 85
37 36 38 39 38 37 39 40 42 42 44 43 39 45 42 34 40 37 44 43 42 46 41 43 33 39 41 57 59 61 66 67 70 69 63 62 64 69 75 72 72 72 76 79 84
42 43 41 39 36 34 39 41 41 46 45 48 45 42 40 44 49 49 50 49 48 43 40 39 35 33 35 51 60 53 59 65 70 70 70 58 66 70 69 68 67 72 77 74 80

GFSSW_sfc_temp_039.txt.gz
Temp
62 62 61 61 61 62 62 62 62 62 62 62 62 61 61 61 61 59 54 67 68 76 80 76 75 76 77 72 76 75 57 56 60 62 63 71 68 78 78 74 78 78 70 72 73
61 61 61 61 61 62 62 61 61 61 62 61 61 61 61 61 56 54 69 74 75 78 76 71 68 72 69 70 72 66 55 61 70 69 68 70 68 75 71 74 70 69 72 73 74
61 61 61 61 61 61 61 61 61 61 61 61 61 62 62 60 53 64 78 75 77 78 78 77 76 73 66 69 69 68 59 70 73 77 75 70 70 74 71 67 69 65 67 71 72
60 60 60 60 61 61 61 61 61 61 60 60 61 63 61 56 60 78 80 76 77 77 77 75 72 66 63 63 71 63 72 73 76 79 75 71 75 73 74 73 76 73 72 73 71
60 60 60 60 60 60 61 60 60 60 60 60 61 63 54 50 58 78 80 77 76 75 74 72 68 66 62 66 69 67 71 75 77 77 80 80 75 74 73 77 76 75 74 73 73
59 59 59 59 60 60 60 60 59 59 60 60 61 62 50 50 75 78 78 74 74 74 72 71 70 71 67 67 67 72 73 74 77 77 77 78 74 74 74 76 73 73 72 74 74
59 59 59 59 60 60 59 59 59 60 62 61 62 61 51 58 72 71 72 69 74 75 71 75 73 73 70 66 76 73 67 72 75 76 77 81 71 71 74 74 71 72 73 74 75
59 59 59 59 59 59 58 57 59 62 62 62 64 62 48 68 68 69 69 71 75 74 74 74 75 70 66 72 72 66 65 57 72 76 79 78 63 69 73 71 69 71 73 74 74
58 59 59 59 58 57 56 57 60 64 63 64 56 53 49 73 71 72 73 73 72 71 73 84 71 63 66 61 56 58 52 59 66 77 77 75 67 69 73 71 69 71 72 73 74
58 58 58 58 57 56 55 58 61 62 63 65 64 51 60 67 71 75 74 76 72 70 69 68 63 56 54 53 49 52 54 58 62 71 76 70 66 68 71 70 69 70 72 73 73
58 58 57 57 56 55 52 58 55 52 57 51 56 58 64 69 75 71 74 73 73 65 56 61 54 53 59 62 62 61 60 61 67 74 71 69 71 67 69 69 68 69 70 72 73
57 57 57 57 56 54 52 56 57 57 47 62 62 61 66 66 62 68 74 64 64 57 60 55 53 62 65 64 62 61 58 59 68 73 69 67 70 69 69 69 69 69 70 72 74
57 57 57 55 54 55 51 55 60 56 43 54 60 62 65 61 60 62 66 65 60 59 59 56 59 68 65 62 60 60 58 60 62 68 69 67 64 69 69 71 72 72 73 74 75
57 57 56 55 55 50 56 58 57 58 38 51 56 63 66 64 58 71 69 64 62 59 62 59 68 66 62 61 63 54 66 67 66 64 53 66 52 60 66 66 70 70 71 74 75
57 56 55 53 45 51 60 57 56 55 31 58 57 69 63 57 60 62 70 62 55 56 57 59 62 63 61 63 67 61 68 65 66 57 53 59 56 57 67 62 67 71 73 75 76
56 55 54 50 45 51 57 54 56 41 33 51 57 55 54 56 57 60 60 63 61 54 60 60 70 68 67 70 70 70 64 61 58 53 49 59 55 53 62 66 69 73 75 77 78
54 53 51 55 53 54 57 52 39 32 52 46 45 50 48 49 51 52 51 46 40 36 42 55 61 67 71 64 67 66 55 42 42 42 48 58 53 62 67 73 73 73 76 78 78
53 52 52 58 54 56 52 45 31 45 41 49 48 47 44 47 46 49 45 41 47 42 35 35 46 62 70 65 62 61 57 43 36 40 50 55 49 57 71 77 78 78 79 80 78
52 46 51 56 60 53 48 33 34 39 48 46 45 39 40 45 44 44 41 42 46 43 35 33 38 53 71 72 69 58 56 60 47 41 45 54 54 66 70 74 75 77 79 79 79
44 41 47 61 56 51 42 37 38 48 49 46 35 40 34 39 39 38 39 48 46 45 47 41 31 48 61 72 71 65 65 51 46 40 40 46 51 56 63 66 70 74 76 79 81
40 40 54 60 55 45 35 35 44 51 52 43 39 37 38 36 39 37 39 47 50 46 46 42 39 41 51 58 61 61 58 57 56 47 47 39 54 62 66 69 71 74 80 79 80
37 37 54 55 42 36 34 41 50 46 49 46 45 42 39 39 37 38 39 42 51 46 38 43 38 35 41 54 57 69 59 54 56 46 44 45 55 69 70 70 76 78 79 80 81
39 35 50 52 32 31 37 42 48 45 45 45 44 44 43 37 32 39 42 51 49 45 38 41 37 29 41 48 59 56 65 59 58 50 48 52 55 68 68 70 71 72 76 79 80
39 33 39 41 40 33 33 37 41 53 50 48 46 45 39 37 38 36 40 47 48 47 49 44 36 30 30 36 43 43 50 62 59 50 52 57 62 69 71 67 69 70 75 80 81
36 33 36 30 33 33 36 36 41 40 48 48 42 42 36 31 34 35 41 46 45 47 44 39 31 32 36 40 42 44 46 51 54 60 58 58 57 68 69 67 67 69 72 76 81
36 35 35 38 40 35 38 37 39 42 41 39 38 42 43 33 36 33 39 41 40 43 39 39 33 35 35 45 45 45 53 56 57 62 60 60 61 65 64 63 65 64 70 76 80
42 44 41 40 38 36 36 37 37 39 44 45 43 41 39 41 44 43 44 47 46 40 37 35 33 30 28 45 51 46 50 54 57 53 55 56 57 66 61 63 62 62 66 77 80

GFSSW_sfc_temp_042.txt.gz
Temp
61 61 61 61 61 62 62 62 62 62 62 62 62 61 61 61 61 57 52 66 66 76 78 75 74 74 74 69 75 75 57 54 59 61 65 69 70 75 77 73 76 74 69 70 72
61 61 61 61 61 61 62 61 62 62 62 61 61 61 62 61 54 52 67 73 74 77 72 69 65 70 69 68 69 64 55 59 69 69 68 72 71 74 72 72 68 66 70 71 72
61 61 61 61 61 61 61 61 62 61 61 61 61 61 62 58 52 64 77 74 76 77 75 74 72 70 65 68 67 66 57 68 73 72 77 72 71 74 72 67 68 63 64 68 69
61 60 60 61 61 61 61 61 61 61 61 61 61 61 61 53 56 72 78 76 77 76 75 72 69 64 60 60 68 63 68 72 75 77 74 71 74 71 73 71 75 70 69 69 68
60 60 60 60 60 60 61 61 60 60 60 60 60 61 53 49 58 73 77 76 75 72 72 68 66 63 59 63 66 65 69 73 75 75 74 76 73 72 72 74 74 72 70 69 69
59 59 59 59 60 60 60 60 59 59 60 61 61 61 49 49 71 71 73 71 71 70 70 70 68 68 63 63 64 72 72 72 73 73 75 74 73 73 73 73 70 69 68 70 70
59 59 59 59 60 60 59 58 58 60 62 61 62 61 51 56 69 68 69 68 67 71 67 69 72 70 66 62 72 72 67 70 71 72 71 77 68 68 71 72 68 68 69 70 71
59 59 59 59 59 59 57 57 58 62 61 62 65 58 48 67 66 67 68 68 73 68 70 73 73 65 62 69 67 63 67 55 68 72 75 73 60 69 70 69 66 68 70 70 71
58 58 59 58 58 57 56 56 61 63 63 64 55 49 56 73 68 70 68 68 69 68 70 82 68 60 63 57 53 55 50 57 64 73 73 71 62 67 70 68 66 68 69 70 71
58 58 58 58 57 56 55 57 63 61 62 64 63 50 63 64 69 71 70 72 68 67 66 64 59 53 50 50 43 49 50 55 59 68 70 67 65 66 68 67 66 67 69 70 71
57 57 57 57 56 55 52 54 52 50 54 47 54 56 64 68 71 69 71 69 68 62 53 57 50 51 56 57 58 57 57 58 64 72 67 66 67 64 67 67 66 66 68 70 71
57 57 57 56 55 54 51 54 54 55 45 57 59 58 63 63 60 67 70 62 60 53 57 51 49 58 61 60 58 58 53 55 63 73 67 64 66 65 66 66 68 67 68 70 72
57 57 56 55 54 53 51 56 58 54 43 52 57 58 63 58 58 60 63 60 57 54 55 49 55 64 62 57 55 55 53 55 57 68 70 64 60 61 66 68 70 70 71 72 72
57 57 55 53 55 48 54 56 55 53 38 49 53 61 64 60 55 67 66 60 58 54 57 54 64 62 59 57 57 46 61 63 61 57 51 64 50 57 62 63 67 68 70 71 73
57 56 54 52 45 52 57 52 51 53 30 55 53 67 60 54 57 59 67 59 52 53 53 52 57 58 57 59 62 56 62 61 62 55 51 61 53 56 62 58 63 67 70 72 74
55 54 53 49 45 51 53 51 53 41 32 48 53 52 50 52 54 57 57 58 57 50 52 55 64 61 62 66 66 65 58 56 54 51 47 55 58 52 55 62 65 69 71 73 74
54 53 51 54 53 53 51 51 38 32 49 44 42 47 44 45 47 49 46 41 38 37 36 46 53 62 66 56 64 61 55 39 38 39 45 55 57 57 63 69 70 70 72 74 75
52 51 50 56 54 51 51 44 29 43 39 45 44 43 40 44 43 45 42 37 43 40 34 32 40 55 63 59 55 58 54 41 33 36 47 51 47 56 73 73 75 75 76 77 76
51 43 48 55 57 50 48 32 33 37 44 43 42 37 37 43 41 41 38 39 42 41 33 31 35 50 56 61 64 54 52 57 43 38 40 53 52 65 68 73 72 75 76 76 77
43 38 45 57 53 51 42 36 37 45 46 44 35 38 32 37 36 34 35 44 40 45 43 40 32 44 51 58 62 61 62 49 43 39 34 44 47 56 59 63 69 71 74 76 78
39 40 53 56 51 44 34 33 42 49 50 44 39 36 37 35 37 34 37 44 47 44 44 38 36 39 46 48 53 55 56 55 54 46 43 37 46 61 62 69 67 72 74 77 78
36 37 53 52 40 32 31 36 46 44 48 45 44 41 39 39 34 36 37 42 48 46 37 43 36 32 38 50 53 48 53 53 52 44 42 43 52 65 68 68 71 73 73 76 79
38 38 48 49 31 29 34 39 43 44 43 43 42 44 41 37 31 37 40 48 48 43 38 40 33 30 33 45 49 47 56 56 50 54 50 48 49 67 67 67 69 71 72 75 77
39 33 38 39 35 30 34 35 38 51 48 47 45 44 39 34 34 34 38 46 47 46 50 45 35 32 28 35 39 37 44 56 51 52 52 55 56 63 66 65 66 68 69 71 72
35 32 38 31 32 37 37 36 37 39 46 47 43 41 37 28 32 33 38 41 44 47 44 38 32 35 37 37 38 38 41 45 44 49 53 55 57 63 65 66 65 68 69 71 71
36 35 35 37 38 38 37 36 36 38 38 39 37 42 39 34 37 34 37 34 36 40 39 39 31 35 31 39 40 38 45 47 48 52 55 57 56 59 64 63 62 62 63 64 70
44 45 41 40 39 37 37 37 37 39 40 42 41 38 37 40 44 42 42 40 40 37 36 35 34 31 25 40 42 37 45 49 50 51 50 52 53 57 59 60 59 62 63 63 66

GFSSW_sfc_temp_045.txt.gz
Temp
62 62 62 61 62 62 62 62 62 62 62 62 62 62 62 62 61 60 60 74 72 76 79 80 80 79 79 76 76 77 65 63 66 67 71 74 73 75 80 74 78 77 76 77 76
62 62 61 61 62 62 62 62 62 62 62 62 62 62 61 62 58 58 72 73 74 77 79 76 73 76 74 73 75 71 66 67 75 78 74 73 76 76 74 75 70 72 78 77 76
61 61 61 61 61 62 62 62 62 62 62 61 61 61 62 62 59 72 77 78 76 78 82 81 79 78 73 76 73 73 67 73 78 80 78 74 76 78 75 71 74 70 72 72 75
61 60 60 61 61 61 61 61 61 61 61 61 61 61 61 59 67 76 76 77 76 81 79 78 76 72 71 69 75 68 74 75 76 80 78 74 79 77 77 79 82 77 76 74 75
60 60 60 60 60 60 61 60 60 60 60 61 61 61 60 63 68 78 77 76 78 79 77 76 72 73 70 72 72 70 72 76 78 80 81 82 78 77 78 80 82 78 75 74 76
60 59 59 60 60 60 60 59 59 59 61 61 61 62 61 64 77 77 76 76 78 78 77 78 76 78 74 71 72 77 74 76 79 80 81 78 80 79 78 79 76 74 74 76 76
59 59 59 59 59 59 59 58 58 60 62 62 63 64 63 68 77 76 74 76 77 78 76 79 81 78 76 73 78 76 70 74 76 80 78 81 75 75 78 78 74 74 74 76 77
59 59 59 59 59 58 57 56 58 62 62 63 64 64 67 75 77 77 77 75 79 79 80 81 83 79 75 78 75 72 72 63 75 78 80 80 71 78 77 76 73 73 74 74 76
58 58 58 58 58 57 56 56 60 63 63 65 63 61 67 79 77 80 77 74 75 77 79 84 80 74 74 69 67 68 66 65 72 80 81 79 74 76 77 77 73 73 74 75 76
58 58 58 58 57 56 55 58 63 63 64 66 66 63 73 68 76 77 80 78 72 73 73 73 73 68 68 66 59 63 65 67 69 78 79 76 77 75 76 76 74 73 74 75 76
58 57 57 57 56 55 58 66 66 66 67 62 64 63 69 76 77 76 76 76 74 71 64 68 64 60 66 67 69 67 66 68 71 79 77 76 77 74 74 74 73 73 74 75 76
57 57 57 56 55 55 61 66 62 63 58 64 64 65 72 71 67 72 78 69 68 62 65 62 59 68 69 67 66 66 64 65 72 74 77 76 76 80 75 74 74 74 74 75 78
57 57 56 55 54 62 64 65 66 66 58 62 66 67 69 72 64 66 71 67 65 62 62 61 65 70 66 65 62 64 63 65 65 72 76 75 73 75 75 77 77 78 78 78 78
57 56 55 53 61 59 64 65 63 64 55 56 61 66 70 68 62 72 72 65 65 62 64 63 70 65 64 64 66 60 69 67 66 65 64 75 62 73 77 73 74 77 77 78 79
56 56 54 52 59 65 63 63 63 66 42 58 60 73 69 64 63 64 71 66 58 60 60 62 64 64 62 64 68 64 70 67 67 64 64 67 64 72 75 72 74 76 78 80 80
56 54 53 56 57 64 63 63 66 53 40 52 59 57 57 60 58 62 60 64 61 57 59 61 66 67 69 71 69 71 67 67 67 65 55 63 64 67 72 73 77 79 79 80 81
54 52 53 58 61 67 62 65 51 43 54 49 51 55 53 51 53 55 51 50 49 51 50 55 60 67 71 65 70 68 63 54 51 51 52 68 62 66 78 80 82 80 79 81 82
52 51 55 62 65 61 65 59 42 47 48 54 53 52 48 52 50 51 49 47 51 49 49 46 52 58 59 66 64 64 64 55 46 50 57 67 58 67 80 84 85 86 86 83 82
51 55 61 65 63 62 63 47 47 48 52 50 50 46 46 49 51 49 47 46 47 49 46 45 44 56 60 60 61 64 58 70 60 59 57 64 68 75 79 81 84 84 85 83 82
50 51 60 64 61 65 57 44 49 53 53 53 45 48 43 46 46 47 46 50 46 49 52 46 41 51 55 59 65 62 72 57 60 48 47 59 62 65 72 76 81 83 84 84 85
51 56 64 62 63 58 48 46 49 56 55 51 48 46 47 45 47 45 46 49 50 47 50 48 44 47 53 53 58 62 59 64 65 60 53 52 60 76 75 78 80 82 86 87 86
47 53 63 61 53 47 46 44 46 52 55 53 52 51 47 47 45 45 45 50 54 52 44 49 40 36 45 56 59 56 51 62 57 53 60 59 62 78 81 83 85 86 87 89 87
44 45 60 61 44 42 44 43 46 49 50 50 48 51 51 47 41 45 47 54 52 51 46 47 38 36 44 54 57 52 57 56 64 65 58 54 59 80 79 80 81 85 89 85 86
47 46 51 51 47 40 36 40 42 51 49 50 48 50 47 44 46 43 44 49 52 52 51 49 40 39 37 44 49 43 51 53 57 58 58 62 64 73 77 77 82 82 82 83 83
46 41 42 39 43 40 40 40 39 41 47 49 44 44 41 38 41 41 46 48 50 52 49 46 36 41 43 45 44 44 44 47 47 57 59 64 66 72 77 79 82 83 84 81 82
46 42 43 43 41 40 38 38 38 39 39 38 39 42 39 36 42 41 44 46 45 49 46 45 37 41 38 46 45 42 46 48 50 53 59 64 67 74 75 78 78 80 76 77 79
46 47 43 41 40 38 39 37 38 40 41 44 40 35 35 39 43 48 51 50 49 46 44 40 36 35 34 45 43 40 47 50 53 59 62 60 70 66 69 71 69 70 71 72 73

GFSSW_sfc_temp_048.txt.gz
Temp
62 62 62 62 62 62 62 62 63 63 63 63 62 62 62 62 62 67 72 79 80 77 78 89 89 88 90 82 86 84 75 72 75 75 77 82 76 79 80 78 84 86 84 86 83
62 62 62 62 62 62 62 62 62 62 62 62 62 62 62 62 70 72 80 75 74 76 86 85 82 86 83 84 84 79 77 77 85 86 84 82 76 82 81 82 79 80 85 83 82
62 61 61 61 62 62 62 62 62 62 62 62 62 62 61 66 71 79 78 77 76 78 92 91 90 86 83 86 84 83 77 83 85 87 88 83 81 87 84 80 83 80 76 77 81
61 61 61 61 61 61 61 61 61 61 61 61 61 61 62 71 72 84 77 77 78 86 90 88 86 82 82 79 86 78 84 84 85 87 86 82 88 84 81 86 91 87 83 82 82
61 60 60 60 60 61 61 61 60 60 61 62 62 61 67 74 77 86 80 77 84 87 86 84 82 83 80 83 83 80 83 83 82 85 87 83 82 80 83 89 92 88 84 83 84
60 60 60 60 60 60 60 59 59 59 61 62 62 62 73 73 85 87 85 84 86 87 86 88 85 88 83 81 82 86 85 81 82 88 86 81 85 85 88 90 87 85 83 85 86
59 59 60 60 60 60 59 58 58 60 63 63 63 71 80 75 87 88 85 85 88 88 85 90 89 86 86 80 87 86 79 84 82 84 85 88 83 82 88 88 84 84 84 85 86
59 59 59 59 59 58 57 57 58 62 62 64 64 75 75 86 90 88 86 85 88 90 90 91 90 87 83 86 82 80 82 76 86 86 88 86 75 86 88 87 83 84 84 84 86
59 59 59 59 58 57 56 57 62 64 64 65 74 75 74 81 83 88 86 82 85 86 87 89 88 83 83 77 77 79 74 76 80 88 87 85 82 86 89 88 84 83 84 84 84
58 58 58 58 57 56 55 58 63 64 70 75 77 75 80 74 82 85 87 86 81 81 80 81 80 76 77 76 69 74 74 80 77 85 86 84 84 86 87 88 85 83 84 83 84
58 57 57 57 56 55 62 76 75 75 80 72 73 73 76 82 86 82 84 83 82 78 71 77 71 69 76 78 80 77 79 77 81 88 81 82 84 86 86 87 83 84 83 84 85
57 57 57 56 55 55 70 76 69 72 68 74 73 75 79 80 74 79 86 77 75 70 76 72 67 77 80 79 76 75 73 75 81 84 83 84 83 89 87 86 85 84 84 84 86
57 57 56 55 55 68 76 72 77 75 69 70 74 74 76 80 71 73 79 76 73 72 72 70 75 80 76 73 71 73 73 74 74 77 82 81 80 84 89 88 88 88 88 88 87
57 57 55 52 63 77 76 76 79 76 65 64 69 72 76 76 69 78 79 73 73 70 73 73 80 73 72 70 73 69 78 76 74 73 68 81 70 80 86 84 86 87 88 88 88
57 56 54 52 72 77 74 79 80 75 51 64 67 79 76 71 70 71 78 75 69 70 70 69 71 72 69 71 77 71 79 76 74 72 73 74 71 79 87 83 84 88 89 90 89
56 54 53 67 75 76 79 78 75 60 49 59 66 64 65 68 67 70 69 74 71 68 71 72 75 74 76 78 76 76 74 74 74 73 62 71 72 75 82 85 88 90 91 91 91
54 53 57 72 73 79 77 75 60 53 62 57 59 63 62 60 62 64 62 64 65 59 61 68 69 75 77 72 78 75 70 61 59 61 61 76 71 75 86 91 91 92 92 93 93
52 51 58 73 78 77 75 66 49 58 58 62 61 60 57 60 60 60 59 60 61 63 64 61 59 69 68 71 71 70 71 64 54 60 65 75 67 75 87 92 95 95 97 96 94
52 75 78 76 76 76 70 56 57 57 61 58 59 56 57 58 58 58 57 58 59 62 57 59 59 66 67 68 70 70 66 77 69 73 68 74 76 84 89 88 90 91 94 95 94
64 72 71 77 76 73 64 51 57 61 61 60 53 57 52 56 54 55 56 59 56 59 63 58 52 63 64 68 71 68 79 65 67 54 54 67 70 73 79 83 88 90 92 95 95
67 67 72 77 75 68 58 59 57 63 62 57 55 55 55 54 55 55 55 58 59 57 60 60 55 58 61 64 67 67 64 67 72 68 59 59 68 84 83 85 85 90 94 96 96
66 64 73 77 66 65 60 53 49 59 62 59 58 57 55 56 53 54 52 57 61 60 53 59 55 49 56 68 69 66 63 68 61 59 66 66 70 90 87 89 91 91 95 98 98
62 64 74 75 57 56 55 53 54 55 56 55 54 57 59 54 48 53 54 61 61 59 55 57 51 45 53 62 65 60 66 66 66 67 61 61 66 86 87 86 90 91 94 95 97
62 59 63 63 56 47 44 49 50 56 55 55 55 57 53 52 56 49 52 56 59 60 55 56 53 48 47 54 57 52 57 63 64 58 61 64 67 79 82 84 87 89 91 95 96
61 54 54 46 49 49 49 47 43 43 53 55 51 50 47 43 48 48 51 52 56 57 56 54 43 50 53 54 54 54 55 57 55 58 55 64 68 75 81 84 88 91 91 89 91
56 52 51 46 46 48 47 46 44 42 42 43 44 47 43 38 47 45 47 50 50 55 51 54 44 49 47 53 53 51 55 57 57 57 58 61 62 76 86 87 86 88 90 88 89
55 51 49 43 44 44 44 39 41 43 45 47 44 39 37 41 45 47 53 51 48 50 49 45 45 44 41 51 52 46 53 55 59 61 61 56 67 79 81 82 85 87 88 86 86

GFSSW_sfc_temp_051.txt.gz
Temp
62 62 62 62 62 63 63 63 63 63 63 63 63 63 63 63 62 72 80 81 84 78 77 93 93 94 96 90 89 92 73 71 76 75 80 88 81 82 82 79 84 88 88 87 87
62 62 62 62 62 62 62 62 63 63 63 63 63 63 63 62 73 81 81 77 76 77 85 90 88 91 89 89 89 83 78 75 82 89 78 87 85 84 80 84 85 87 92 89 86
62 62 62 62 62 62 62 62 62 62 62 62 62 63 63 67 78 84 78 78 78 79 91 96 95 91 86 91 89 88 80 86 88 91 91 88 84 87 80 82 87 84 83 83 82
61 61 61 61 61 61 62 62 61 61 61 62 62 63 63 74 75 88 79 78 78 87 88 93 91 86 85 84 92 84 90 90 85 92 88 79 81 86 87 71 94 89 86 84 85
61 60 60 60 61 61 61 61 60 60 61 62 63 63 67 77 84 92 81 81 85 87 87 90 87 87 83 89 90 86 88 88 89 90 89 89 81 82 82 94 95 89 86 86 88
60 60 60 60 60 60 60 60 59 59 61 64 63 63 72 79 92 94 91 89 90 89 90 93 90 93 89 89 88 91 91 87 89 86 87 84 83 87 85 96 91 87 86 89 89
60 60 60 60 60 60 59 58 58 60 64 64 64 71 84 82 93 95 93 92 94 93 91 95 97 91 90 86 93 91 85 89 87 90 78 85 76 79 92 94 89 88 87 89 90
59 59 59 59 59 58 58 57 60 64 63 64 65 79 81 92 97 93 93 92 96 97 96 98 98 91 90 94 87 85 86 80 89 89 89 89 74 90 94 92 88 88 88 88 90
59 59 59 58 58 57 56 57 63 64 65 66 73 81 80 85 88 93 94 89 91 94 93 97 92 86 88 81 79 84 76 79 85 92 88 89 73 68 95 92 88 88 88 89 89
58 58 58 58 57 56 56 56 65 65 69 82 85 80 85 81 88 90 94 93 87 87 85 85 84 80 83 80 71 77 78 84 82 89 90 85 77 74 94 93 89 88 89 88 89
58 58 57 57 56 55 64 78 77 76 83 80 82 80 82 88 92 87 91 89 88 83 75 80 75 73 80 82 84 85 85 82 88 93 85 80 79 67 93 93 89 88 88 88 89
58 57 57 57 55 55 68 82 77 79 72 82 81 83 85 87 81 84 91 82 80 73 80 78 72 82 85 85 82 82 80 82 88 92 86 83 78 84 91 92 91 89 89 89 91
57 57 57 55 55 65 83 79 86 85 73 78 82 80 82 86 78 79 86 84 78 75 77 75 80 84 82 81 78 79 78 80 81 86 88 81 77 81 85 93 93 94 93 92 91
57 57 56 54 62 87 82 85 88 86 67 71 74 79 82 83 76 84 85 81 80 75 79 78 85 81 79 78 80 74 83 82 82 79 73 85 66 75 84 86 90 92 93 93 92
57 56 54 52 75 83 82 89 89 82 54 72 74 85 82 77 77 78 84 80 74 77 78 75 77 78 75 78 81 76 85 82 81 78 77 78 72 75 87 73 88 92 93 94 94
56 55 54 70 79 84 88 88 83 63 53 66 73 71 72 74 74 77 77 82 81 74 77 77 86 82 82 83 83 84 80 80 80 78 67 75 77 78 80 82 86 94 95 95 95
55 53 57 78 80 88 87 81 63 58 71 64 67 71 70 69 70 71 70 71 69 63 65 73 75 80 82 77 83 79 75 64 62 64 63 79 75 79 91 89 91 94 95 96 96
53 51 63 82 87 86 82 70 54 66 66 70 68 68 65 68 69 68 68 67 71 71 68 67 64 76 81 76 75 76 75 67 56 62 68 79 71 79 92 98 79 87 94 99 98
52 80 85 85 85 84 73 61 63 66 68 65 68 62 66 66 64 65 67 67 70 70 63 66 66 76 76 79 79 75 70 80 73 77 72 78 81 89 93 93 95 94 96 92 98
69 79 78 85 87 79 68 57 66 69 68 67 59 65 60 65 61 63 65 68 65 67 71 68 59 75 75 75 77 73 80 69 70 58 58 72 75 77 83 87 92 93 95 95 98
67 73 80 87 84 73 63 65 65 70 68 63 61 61 62 61 62 62 62 66 67 65 68 70 64 67 71 66 68 71 68 71 73 72 62 62 73 90 87 89 90 94 96 98 100
75 70 81 84 67 74 65 61 51 66 68 64 64 62 60 62 60 60 60 65 69 67 61 67 64 59 65 75 79 76 72 73 64 61 71 71 73 94 94 94 94 94 97 100 100
70 74 81 81 59 65 62 62 62 62 62 61 59 63 64 57 51 58 60 68 67 64 61 65 58 52 57 66 71 67 71 72 74 73 65 65 70 92 93 91 92 93 96 97 99
70 65 71 70 67 61 58 57 58 64 61 62 60 61 58 54 59 54 57 62 64 64 58 60 59 56 54 58 63 62 66 70 70 63 65 68 73 83 86 86 89 92 96 97 98
70 61 61 60 60 60 60 57 53 52 60 61 55 54 53 49 52 50 57 59 62 62 60 60 50 55 58 60 61 60 62 64 63 65 62 69 69 78 83 83 89 94 94 94 96
64 61 67 60 57 58 54 49 48 47 47 51 48 51 53 45 48 46 45 49 53 60 57 59 47 51 50 59 60 57 61 62 62 64 65 66 66 80 81 83 84 87 92 92 93
66 65 62 48 55 52 49 48 48 52 53 55 52 48 46 51 56 60 62 59 51 53 51 52 50 46 44 56 57 50 58 60 62 66 65 60 68 75 75 77 80 87 91 91 94

GFSSW_sfc_temp_054.txt.gz
Temp
63 62 62 62 62 63 63 63 63 63 63 63 63 63 63 63 62 69 75 83 85 79 78 91 90 91 93 89 92 92 69 67 66 73 65 77 77 81 86 77 81 83 84 86 90
62 62 62 62 62 62 62 62 62 62 63 63 63 63 63 63 69 76 81 80 79 79 86 87 85 89 86 87 89 81 72 74 78 79 77 76 83 83 80 81 80 84 88 89 89
62 62 61 62 62 62 62 62 62 62 62 62 62 63 63 66 70 84 79 79 78 79 88 94 93 90 84 89 87 85 76 83 80 84 82 82 86 88 79 79 85 79 82 85 86
61 61 61 61 61 61 61 61 61 61 61 62 63 63 63 71 72 86 80 79 78 87 87 87 91 85 82 82 90 82 89 89 89 86 88 74 75 79 70 69 78 86 86 84 84
61 60 60 61 61 61 61 61 60 60 61 62 63 63 64 72 81 91 81 80 85 86 85 85 86 86 81 86 89 86 89 90 92 85 88 84 75 70 74 81 84 87 85 82 85
60 60 60 60 60 61 61 60 59 60 61 62 64 64 69 73 95 97 94 90 90 87 86 88 89 92 87 87 87 91 91 91 91 90 88 83 72 75 79 83 88 85 82 83 85
59 59 59 59 60 60 59 59 59 61 63 65 65 70 75 82 96 97 96 93 92 90 87 92 96 91 90 86 93 91 85 89 89 88 87 89 79 80 82 80 84 83 83 85 86
59 59 59 59 59 59 58 57 59 63 65 65 66 75 77 95 98 95 97 94 96 95 94 98 98 93 90 93 90 84 85 77 89 87 87 86 71 82 77 70 82 83 85 85 85
59 59 59 59 58 58 56 57 60 64 66 67 71 75 79 87 89 95 96 91 93 94 96 99 95 88 87 79 77 81 73 76 82 91 88 85 76 77 72 67 82 83 85 86 84
58 58 58 58 57 56 55 57 66 65 71 80 82 77 87 84 90 93 97 95 89 89 87 86 85 79 79 77 66 73 75 79 79 88 89 82 75 74 70 69 84 85 86 86 84
58 58 57 57 57 55 62 82 74 72 78 80 82 82 84 91 94 90 94 90 89 85 74 80 74 69 75 79 81 81 81 81 86 91 87 80 67 71 72 73 80 85 86 87 85
58 57 57 57 56 55 64 78 80 82 72 87 85 85 88 91 82 86 93 83 80 73 79 77 69 79 84 84 81 80 78 79 88 93 89 76 66 71 73 72 78 87 87 87 88
57 57 57 56 55 65 80 82 90 89 72 80 85 84 85 87 82 83 87 84 79 74 76 72 78 83 81 80 78 79 77 79 80 88 91 86 64 63 72 77 70 91 90 90 89
57 57 56 54 61 84 83 88 91 89 65 72 77 81 84 85 78 88 88 83 80 74 77 76 83 82 79 77 80 73 84 82 81 79 73 86 68 66 69 70 63 68 89 90 90
57 57 55 53 66 77 85 91 91 84 51 74 77 87 85 79 79 80 88 82 73 77 78 74 78 78 77 79 82 77 85 82 80 77 77 79 73 78 77 66 61 67 90 91 91
57 56 54 72 69 82 91 91 84 62 52 68 76 73 74 78 77 80 79 84 83 76 78 78 87 84 81 85 84 86 80 80 80 77 65 74 74 75 80 72 68 68 76 86 92
55 53 55 74 78 90 89 81 61 55 75 66 70 73 74 72 72 74 73 71 68 62 64 73 75 82 84 78 83 81 74 62 60 62 61 77 72 76 87 86 74 71 67 73 93
53 52 67 80 88 89 83 69 53 68 69 75 72 71 67 73 71 71 68 67 75 72 67 65 62 76 82 76 74 75 74 64 53 58 64 76 68 76 90 94 87 79 77 77 95
52 75 77 86 88 85 73 59 62 67 71 69 70 64 66 71 68 68 68 68 74 75 62 63 65 81 83 82 79 73 70 79 69 73 67 73 79 86 91 92 93 81 84 74 80
62 74 80 88 89 81 68 57 67 72 71 70 60 67 61 68 65 66 66 72 70 72 73 66 58 74 78 80 80 76 80 67 69 55 54 67 71 75 82 87 89 81 79 77 75
64 72 82 89 86 73 62 64 68 73 70 64 62 62 64 64 66 64 65 70 71 69 69 67 63 65 75 70 68 70 67 69 71 68 60 59 67 87 86 88 89 82 79 85 81
75 67 83 86 68 71 63 65 53 69 71 67 66 64 62 63 60 61 61 67 72 71 62 69 64 58 63 77 78 74 70 72 62 59 66 66 69 91 89 94 94 94 96 88 85
68 74 84 82 60 62 67 66 67 65 66 64 62 65 65 60 53 60 62 71 70 66 62 66 59 51 56 67 74 69 72 73 73 72 62 61 66 90 91 91 95 94 95 96 83
68 65 73 75 73 65 62 61 61 67 64 65 62 64 60 57 60 55 57 65 67 66 61 63 58 54 51 59 62 61 67 70 69 63 64 67 70 80 79 77 79 86 89 95 95
72 64 65 58 61 64 63 60 55 53 61 63 59 57 54 50 54 55 59 58 59 64 63 61 50 55 57 59 61 61 61 64 64 66 62 68 70 77 70 72 76 82 85 86 93
62 62 68 61 62 62 56 56 52 56 55 55 54 56 56 51 53 51 55 54 52 60 57 62 50 53 50 57 59 57 62 63 64 67 68 69 67 79 80 80 79 81 82 81 82
71 72 67 54 60 58 55 53 54 55 56 59 56 53 52 55 59 62 62 61 61 55 53 54 52 47 42 53 54 49 58 61 63 66 65 60 68 76 75 76 77 77 77 79 80

GFSSW_sfc_temp_057.txt.gz
Temp
63 63 62 62 62 63 63 63 63 63 63 63 63 63 63 63 62 63 65 78 78 79 80 85 84 83 84 78 80 82 65 61 67 68 65 72 72 77 81 73 78 81 78 82 85
62 62 62 62 62 62 62 62 62 62 62 62 62 63 63 63 62 64 78 79 79 78 81 79 77 81 76 78 80 76 67 68 78 78 71 68 73 76 76 74 75 79 83 85 85
62 61 61 61 62 62 62 62 62 62 62 62 62 63 63 63 62 75 81 80 79 79 83 85 85 81 74 78 78 78 69 77 81 82 80 70 66 82 76 72 77 75 78 81 82
61 61 61 61 61 61 61 61 61 61 61 61 62 63 63 63 62 81 79 79 79 83 82 80 79 75 72 72 81 73 81 82 84 82 73 68 68 71 73 69 75 80 82 82 81
61 60 60 60 60 61 61 61 60 60 60 61 62 64 58 60 69 86 80 79 80 80 78 77 75 76 72 76 80 77 81 87 87 80 75 73 74 71 71 73 77 82 82 81 81
60 60 60 60 60 60 61 59 59 59 61 62 64 63 58 60 90 87 83 80 82 79 78 79 79 83 79 78 77 83 84 85 89 81 77 75 73 74 74 77 74 80 80 81 81
59 59 59 59 60 60 59 58 58 59 62 65 65 66 67 68 89 90 87 81 81 82 77 83 85 79 81 76 85 83 76 83 82 83 78 76 66 68 77 79 77 78 80 81 82
59 59 59 59 59 59 58 57 58 60 63 65 66 66 62 86 85 90 89 87 86 85 84 86 88 81 79 83 82 75 72 64 80 81 84 80 62 68 72 72 76 77 79 80 81
59 59 59 58 58 58 56 56 59 62 64 66 60 61 66 84 83 86 84 85 84 84 85 91 86 77 78 69 63 66 57 65 73 84 82 77 63 68 71 73 75 76 78 79 80
58 58 58 58 57 56 55 57 64 63 66 73 74 62 74 79 83 87 87 89 83 81 80 79 75 67 66 59 52 58 60 65 69 79 80 75 63 67 69 72 74 77 79 79 79
58 58 57 57 57 56 54 64 62 58 65 66 67 74 82 84 88 84 89 85 83 77 65 72 61 59 64 68 70 71 69 68 74 82 78 73 65 65 67 71 70 69 75 78 79
58 57 57 57 56 55 54 61 69 70 62 78 78 80 84 82 78 83 86 74 73 65 70 64 59 70 75 74 72 70 67 67 75 82 76 71 67 68 68 69 70 65 75 78 81
57 57 57 56 55 58 66 71 81 77 59 72 78 78 78 78 76 77 79 78 72 67 68 61 68 76 75 72 70 69 64 67 68 77 75 67 61 63 70 74 70 69 72 78 82
57 57 56 55 56 67 69 79 81 79 50 65 70 76 79 76 70 86 83 76 73 67 70 67 75 75 71 70 71 59 74 76 75 67 55 68 50 59 64 66 68 67 66 70 80
57 57 55 53 54 62 75 81 78 71 39 70 71 81 77 69 71 74 84 74 66 68 67 65 70 70 69 72 75 68 76 73 73 64 60 66 56 57 67 60 64 66 67 71 72
56 55 54 61 54 64 74 81 72 49 44 66 73 70 67 69 73 76 76 75 75 68 69 68 78 75 73 79 78 80 72 69 65 59 51 61 57 57 61 63 63 67 68 72 74
55 53 52 65 65 78 80 70 48 43 70 63 63 68 66 66 69 67 68 62 56 47 51 64 68 74 78 69 74 71 55 45 44 48 49 59 56 61 69 72 68 67 69 74 79
53 52 59 70 75 78 71 56 42 62 61 69 69 66 61 67 65 68 61 57 66 62 54 50 51 67 76 68 60 63 59 47 40 44 51 61 51 61 79 78 74 75 74 75 76
53 66 67 74 76 74 59 46 51 60 65 64 64 56 57 64 61 62 57 58 64 62 48 49 53 70 74 77 71 61 55 64 52 59 49 57 63 73 78 75 74 75 77 72 74
54 62 69 81 79 69 55 50 59 65 66 65 54 60 54 61 57 57 57 65 64 66 62 54 45 61 71 75 72 64 66 51 53 41 40 52 56 58 68 76 74 73 73 73 73
58 60 74 82 77 61 50 57 63 70 68 61 57 55 56 55 57 56 57 62 66 65 63 53 47 52 62 58 57 59 53 53 53 49 43 44 53 69 70 73 74 74 75 75 74
62 57 76 78 58 62 57 61 60 65 68 65 63 60 55 56 53 54 55 60 68 64 55 57 47 42 51 64 68 64 54 53 45 46 49 48 54 76 74 73 78 79 80 75 74
55 63 77 76 55 57 62 62 63 61 60 59 59 60 59 52 46 54 57 65 65 61 50 54 44 37 44 52 59 56 59 54 54 51 49 46 53 69 72 72 74 73 77 78 75
57 57 64 68 65 58 55 56 55 62 59 61 58 58 53 49 53 49 54 62 63 61 64 58 44 40 36 43 51 49 55 59 50 43 46 51 56 66 67 68 73 74 75 73 74
60 57 61 52 55 57 57 54 53 51 58 59 55 54 50 43 47 47 53 55 59 61 56 50 39 44 49 53 54 53 53 56 52 52 43 54 57 57 64 67 71 75 76 75 74
55 54 59 55 58 57 52 50 52 52 52 51 49 52 52 43 46 43 48 48 47 53 49 50 39 45 44 52 52 50 54 55 56 58 57 58 58 63 67 69 69 70 73 73 73
64 64 58 54 55 52 50 52 53 54 55 57 53 48 48 51 55 54 55 54 52 48 45 43 38 36 34 46 47 41 50 53 55 59 57 51 57 64 61 65 65 66 69 71 73

GFSSW_sfc_temp_060.txt.gz
Temp
62 62 62 62 62 62 62 62 62 62 62 62 62 62 62 62 61 60 61 74 75 79 80 78 77 79 80 74 78 81 60 59 66 69 66 70 69 73 78 74 79 80 77 79 81
62 62 61 61 62 62 62 62 62 62 62 62 62 62 62 62 59 60 73 78 79 79 77 75 72 76 68 72 74 68 59 63 72 73 70 71 70 75 74 71 75 75 81 82 81
61 61 61 61 61 61 61 62 61 61 61 61 61 62 62 61 58 68 77 79 79 79 80 79 78 75 67 70 71 71 64 73 77 76 73 70 70 74 74 68 75 72 76 79 79
61 61 60 61 61 61 61 61 61 61 61 61 61 62 62 59 60 79 78 79 79 79 78 76 74 67 65 65 74 66 76 78 79 75 71 67 72 71 73 73 79 78 80 80 78
60 60 60 60 60 61 61 60 60 60 60 62 62 63 56 54 62 83 79 79 78 77 74 73 70 68 64 69 73 70 75 79 84 75 74 74 68 71 72 75 79 78 81 79 79
60 60 60 60 60 60 60 59 59 59 60 62 63 63 53 55 81 82 80 77 77 75 72 74 72 75 71 72 70 77 77 79 76 72 70 67 71 71 75 76 75 76 78 79 78
59 59 59 59 60 60 59 58 58 59 60 63 65 63 59 64 82 81 78 73 76 76 71 77 79 72 72 70 79 78 71 75 77 73 71 74 66 69 74 75 72 74 79 79 78
59 59 59 59 59 59 58 57 58 60 61 64 65 59 54 80 77 80 76 75 79 77 77 79 80 74 71 76 76 68 65 59 73 73 75 74 62 69 73 73 72 77 79 79 77
58 58 58 58 58 58 56 56 59 62 63 66 56 53 58 82 78 82 82 79 77 76 77 87 77 70 71 64 58 60 53 59 68 78 70 68 60 70 75 73 72 75 77 78 77
58 58 58 58 57 56 56 56 60 62 63 68 68 55 67 74 78 83 82 83 77 75 74 72 67 60 59 56 47 52 54 58 62 73 72 66 62 67 71 72 72 74 76 76 77
58 58 58 57 57 56 53 54 59 57 59 58 60 66 77 79 83 79 82 81 77 70 60 66 57 52 58 62 64 62 60 60 68 76 71 65 63 65 68 70 70 70 72 75 77
58 57 57 57 56 55 50 54 62 66 57 69 71 72 77 77 73 77 83 70 69 60 64 59 53 64 70 69 67 64 60 60 68 74 69 62 60 65 67 70 72 71 72 75 77
58 57 57 56 55 53 56 64 72 65 53 64 70 71 72 74 70 71 76 72 67 62 62 55 63 71 69 66 64 61 57 61 62 69 67 63 58 60 64 69 72 73 75 72 78
57 57 56 54 55 54 61 69 70 68 45 56 62 72 73 74 65 81 79 72 67 62 64 60 70 69 66 64 64 51 66 69 69 60 53 64 50 57 61 63 65 66 70 70 74
57 56 54 53 45 54 69 66 68 63 36 65 63 77 71 66 67 72 77 71 61 63 60 59 64 64 64 66 68 63 71 67 65 57 54 57 53 53 63 61 62 65 69 71 76
56 55 54 52 47 55 61 65 63 45 39 60 67 65 63 63 67 72 71 71 69 62 60 62 71 67 66 73 73 75 66 62 56 53 45 52 55 49 57 60 64 67 69 72 76
55 53 52 58 57 62 63 59 43 37 61 57 57 60 59 59 63 65 63 56 53 46 46 59 63 67 72 62 67 65 52 43 43 43 43 49 52 56 65 71 67 67 70 75 78
53 52 52 61 56 61 58 50 39 56 53 61 61 59 56 60 58 63 58 53 58 52 47 46 48 61 69 61 59 56 54 44 38 39 44 54 49 60 70 75 74 74 76 74 75
52 52 55 63 64 60 53 40 41 51 60 58 58 52 51 57 58 57 56 52 57 54 46 43 48 64 68 66 64 57 51 57 47 41 45 49 56 66 72 70 70 71 71 70 73
46 49 55 68 65 58 48 43 50 61 62 59 47 52 45 50 50 50 51 58 58 61 53 47 43 53 65 66 66 57 62 51 45 38 37 46 49 53 59 63 68 68 69 73 73
51 52 64 68 65 53 45 46 58 63 64 56 50 48 47 47 49 48 50 57 61 60 57 48 43 48 56 50 49 52 50 50 49 45 39 39 47 59 62 66 66 70 72 75 73
47 51 69 66 52 47 45 51 57 56 60 56 56 52 48 49 46 47 48 53 62 58 48 48 41 38 46 56 60 56 49 45 42 41 42 43 47 65 68 69 70 69 73 72 72
45 47 67 67 43 42 49 55 57 54 53 53 51 52 50 45 42 49 52 60 61 55 48 49 38 34 42 45 51 48 51 46 43 41 41 41 46 66 69 68 70 70 69 73 70
47 47 53 54 50 48 44 48 49 59 55 56 51 50 46 43 43 44 47 57 59 58 62 54 38 36 32 37 45 44 50 52 42 36 38 42 47 55 62 64 67 68 70 67 66
47 47 50 44 47 49 50 49 47 45 52 51 48 47 42 36 39 39 44 47 54 57 51 45 35 38 39 48 49 48 49 51 44 42 39 46 47 52 55 61 64 68 69 68 66
47 46 49 45 49 49 45 43 47 47 47 45 43 48 45 37 37 36 40 39 39 47 45 42 35 37 38 47 47 45 49 50 51 51 49 50 48 55 56 61 62 67 68 65 65
53 51 50 46 44 42 41 44 48 47 50 53 49 44 42 45 48 45 45 44 43 38 39 38 35 32 27 41 42 37 44 48 49 50 48 43 49 54 55 58 60 58 62 63 63

GFSSW_sfc_temp_063.txt.gz
Temp
62 62 62 61 62 62 62 62 62 62 62 62 62 62 62 62 61 59 58 72 72 78 79 75 74 75 77 71 76 78 61 56 62 65 65 72 68 72 75 74 79 78 73 73 77
62 61 61 61 61 62 62 62 62 62 61 61 61 61 61 62 57 57 70 77 78 79 75 71 68 73 66 69 71 66 58 60 69 71 68 70 71 70 72 73 75 74 75 76 75
61 61 61 61 61 61 61 61 61 61 61 61 61 61 61 60 55 67 76 78 78 78 78 77 75 73 64 67 68 67 63 70 74 74 74 70 71 76 72 69 74 70 71 74 73
61 61 60 61 61 61 61 61 61 60 60 61 61 61 62 56 56 77 77 77 79 77 76 74 71 65 61 63 70 62 73 75 74 75 72 68 73 71 73 73 79 77 76 75 72
60 60 60 60 60 61 61 60 60 59 60 61 62 62 55 52 61 78 79 79 75 75 72 70 67 65 61 65 69 66 71 75 78 74 74 75 70 71 71 76 78 79 77 75 74
60 59 59 60 60 60 60 59 59 59 60 61 63 62 52 53 78 78 77 74 74 72 70 71 70 71 66 67 66 75 75 73 75 70 73 71 70 72 73 74 74 77 75 76 75
59 59 59 59 59 59 59 58 58 59 60 61 64 62 55 62 78 77 76 70 72 73 68 72 75 71 69 66 74 73 67 71 68 69 68 72 66 67 71 74 71 75 77 77 77
59 59 59 59 59 59 58 57 57 59 61 62 65 57 54 75 74 76 72 71 74 70 72 74 76 69 66 73 72 65 62 57 66 68 72 68 61 66 71 71 68 72 76 77 77
58 58 58 58 58 57 56 56 58 62 62 64 54 52 58 77 73 75 74 73 71 70 72 84 74 66 67 60 55 57 51 56 62 69 69 65 60 68 72 71 69 71 75 77 76
58 58 58 57 57 56 55 56 59 61 63 66 66 53 65 71 74 78 73 77 72 71 71 68 63 58 55 52 45 50 52 53 58 65 66 62 60 67 71 71 70 72 74 76 76
58 57 57 57 56 55 52 51 56 54 56 57 58 61 70 75 79 76 79 75 73 67 56 62 55 50 56 59 62 60 57 56 62 70 66 61 61 64 69 70 70 70 71 74 76
57 57 57 57 55 54 50 53 57 59 53 65 66 66 72 71 68 74 79 68 65 58 60 56 51 61 66 65 62 61 56 55 63 70 63 61 59 64 66 68 70 70 70 73 75
57 57 56 55 54 51 53 60 65 58 50 61 66 66 68 69 67 68 73 70 64 59 58 53 60 68 66 62 60 55 53 55 59 65 62 59 59 60 64 68 70 71 72 73 75
57 57 56 54 54 51 58 62 62 62 44 53 57 68 70 72 62 76 76 71 65 60 61 57 66 66 62 61 60 48 62 64 63 57 50 59 47 59 60 61 65 68 70 72 76
57 56 54 53 45 54 65 58 58 61 35 61 60 74 66 65 65 69 74 70 61 61 59 56 59 60 59 62 64 59 66 63 61 56 49 54 50 51 58 58 62 66 69 72 75
56 55 54 50 45 53 57 58 62 45 38 57 63 61 61 61 64 68 69 70 66 61 58 60 67 65 63 68 68 69 61 57 52 50 43 51 51 49 56 60 63 67 69 72 76
54 53 52 56 57 56 58 57 43 37 57 54 53 57 56 55 59 60 60 54 51 44 43 55 59 63 67 57 62 60 50 42 40 40 42 47 50 55 61 65 68 67 69 72 73
53 51 52 57 52 58 56 50 37 51 49 56 56 57 52 55 54 59 54 47 56 50 44 43 45 57 65 57 55 54 52 43 36 37 43 48 47 56 65 70 70 73 73 74 73
52 51 52 58 59 56 53 40 39 47 56 54 53 47 48 53 53 53 49 48 53 51 42 41 45 60 64 62 59 54 49 53 42 37 43 46 53 61 66 65 66 69 70 70 73
48 49 56 63 61 57 48 42 46 56 57 55 44 47 41 47 48 47 46 53 52 57 49 44 41 50 60 62 61 53 57 46 43 37 36 43 45 48 56 60 64 65 68 70 72
50 53 63 61 61 53 40 43 52 58 60 51 46 44 43 43 45 43 45 53 56 56 52 41 42 47 52 48 47 47 43 41 43 41 37 37 42 58 56 59 61 63 68 72 71
48 48 68 62 49 41 40 47 54 53 56 53 51 48 45 44 43 44 45 49 58 54 46 45 38 38 41 51 57 53 42 39 37 38 39 41 42 59 60 62 65 65 65 70 70
46 45 62 62 43 39 46 51 53 50 49 50 47 49 47 42 39 45 48 56 57 53 45 47 37 33 36 43 48 45 47 41 38 35 34 37 41 61 59 61 63 65 65 66 67
48 45 52 52 45 44 41 44 45 56 51 50 47 46 44 40 41 40 44 52 55 55 59 51 34 34 30 34 41 41 46 47 39 34 35 39 43 51 55 57 60 61 64 65 65
46 43 45 39 44 45 46 46 45 43 49 48 46 44 38 33 36 36 41 44 51 52 48 43 33 34 37 43 45 44 45 47 41 39 36 41 43 50 52 54 56 60 62 62 61
46 44 47 42 45 44 41 40 44 44 45 43 42 45 43 35 35 33 38 36 36 45 41 40 33 34 36 42 43 42 46 48 48 48 47 47 43 52 54 56 55 55 59 58 60
46 47 47 43 41 39 39 42 45 45 48 50 48 42 40 43 47 45 44 42 38 36 37 36 33 30 27 37 40 34 42 44 45 47 46 40 43 48 48 51 50 50 53 55 57

GFSSW_sfc_temp_066.txt.gz
Temp
62 62 61 61 62 62 62 62 62 62 62 62 62 61 61 62 61 57 57 71 71 77 78 73 73 73 75 70 73 76 60 55 60 64 64 70 68 71 75 73 78 77 71 72 74
61 61 61 61 61 62 62 62 62 62 61 61 61 61 61 62 55 54 69 75 77 78 72 69 66 70 64 67 70 64 59 60 68 69 67 70 71 70 72 73 68 68 72 74 72
61 61 61 61 61 61 61 61 61 61 61 61 61 61 61 59 53 66 75 77 78 78 75 74 72 70 63 65 67 65 59 67 71 72 73 70 70 73 70 68 70 65 68 70 70
61 60 60 61 61 61 61 61 61 60 60 60 61 61 61 54 53 72 76 77 78 76 74 71 68 64 60 60 68 59 70 71 71 73 72 68 73 70 71 72 73 72 72 70 70
60 60 60 60 60 60 61 60 60 59 60 60 62 61 53 50 60 75 78 78 74 73 71 68 65 63 59 63 66 63 69 72 74 72 71 73 69 69 72 76 75 74 72 70 70
59 59 59 59 60 60 60 59 59 59 59 60 62 61 50 51 74 76 75 72 71 70 68 69 67 68 63 64 64 71 71 71 72 69 71 69 68 72 73 75 72 71 70 71 72
59 59 59 59 59 59 59 58 58 58 59 61 63 61 53 61 74 74 72 66 69 71 66 68 72 67 65 63 71 70 64 68 68 66 67 71 64 66 73 72 69 70 71 72 74
59 59 59 59 59 59 58 57 57 59 60 61 65 55 52 71 71 73 72 69 72 68 70 70 73 67 64 70 68 62 60 55 64 66 69 68 58 67 72 68 67 70 72 73 73
58 58 58 58 58 57 56 56 59 63 62 64 53 52 55 73 69 72 71 68 68 68 70 81 71 62 64 58 54 56 50 54 62 67 66 64 60 66 72 69 69 70 72 73 72
58 58 58 57 57 56 55 55 60 61 63 65 65 51 62 67 71 71 70 73 68 67 67 64 59 55 53 52 44 50 51 52 55 62 64 60 59 66 69 69 68 70 72 72 72
58 57 57 57 56 55 52 50 53 53 54 56 56 59 65 72 74 70 72 72 69 64 53 58 52 48 52 58 59 57 55 54 60 66 60 60 59 63 67 69 68 68 70 72 73
57 57 57 56 55 54 50 53 55 56 51 61 63 63 68 68 65 70 76 65 63 55 57 53 48 58 63 61 59 58 54 53 61 66 61 57 58 61 65 68 70 68 70 72 73
57 57 57 55 54 51 51 56 60 55 48 58 61 62 65 67 64 66 72 66 61 56 55 50 58 65 63 60 58 52 50 52 56 63 60 57 54 60 65 67 68 70 72 73 73
57 57 56 54 52 50 56 58 56 57 43 52 55 65 66 67 60 73 74 70 61 57 57 55 63 64 60 59 58 43 60 62 59 55 48 57 45 54 61 61 64 67 68 70 73
57 56 55 53 45 54 62 55 54 59 34 59 57 71 63 62 65 66 71 68 60 59 57 55 59 58 57 59 62 57 63 61 59 52 47 52 49 51 57 57 61 65 68 71 73
56 55 54 48 44 53 55 53 59 44 37 54 60 59 59 59 61 66 66 68 64 59 56 58 64 62 62 65 65 66 59 53 49 47 41 49 49 50 53 57 61 67 69 71 73
54 52 52 54 56 54 55 57 42 37 54 52 50 55 55 55 58 60 57 52 48 44 44 53 56 60 64 55 58 57 49 39 38 39 41 44 49 51 59 62 64 65 68 71 74
52 50 50 55 52 54 56 49 36 50 48 53 52 52 48 52 53 53 50 45 53 48 41 44 43 54 62 55 54 52 50 41 36 35 42 46 45 53 62 64 65 68 70 72 73
51 50 52 57 57 53 53 37 37 47 53 51 49 46 45 50 51 48 45 45 50 47 41 41 43 57 61 60 56 51 46 49 42 36 40 44 50 59 64 64 65 65 67 69 71
48 50 56 61 58 55 47 40 45 55 56 53 43 45 40 44 45 43 43 50 48 53 46 41 41 49 57 59 57 51 51 44 42 36 35 42 42 45 53 57 61 61 63 66 70
50 53 62 58 58 52 38 39 50 56 58 51 48 45 42 40 43 40 41 49 52 52 50 39 43 45 49 45 42 45 41 40 42 39 38 35 40 55 53 56 57 61 63 64 70
49 48 64 61 49 38 38 44 50 49 52 50 50 47 44 42 40 41 42 45 54 51 45 44 41 39 39 49 52 48 41 37 39 38 36 38 41 56 55 57 60 60 63 63 64
46 45 59 59 42 37 43 48 50 47 46 47 45 46 44 38 37 43 45 53 54 50 43 44 35 32 34 42 46 43 44 38 36 34 33 36 41 58 56 57 58 60 63 61 62
47 44 49 49 42 42 40 42 42 53 48 48 44 44 42 38 39 38 42 50 52 51 57 49 33 35 33 35 39 40 44 44 37 33 34 37 41 49 50 51 54 57 61 61 59
45 41 42 38 42 42 42 43 43 41 47 46 43 41 37 32 34 35 40 43 49 50 46 41 32 33 36 43 43 42 43 45 40 40 37 41 42 47 47 49 50 54 57 58 58
45 44 42 38 41 42 41 40 42 43 43 43 41 43 41 34 34 31 36 35 34 43 39 37 32 34 33 40 41 41 44 46 46 46 44 44 44 46 49 51 50 50 52 53 54
44 44 46 41 38 37 37 39 43 43 47 48 46 41 39 41 44 41 40 38 35 34 36 34 31 29 26 35 37 32 38 42 44 44 41 39 41 45 44 46 47 48 50 51 52

GFSSW_sfc_temp_069.txt.gz
Temp
62 62 62 62 62 62 62 62 62 62 62 62 62 62 61 61 61 61 65 78 77 77 79 79 80 79 80 77 78 78 69 64 67 69 66 71 68 70 78 73 77 79 75 79 79
61 61 61 61 62 62 62 62 62 62 61 61 61 61 61 62 60 62 75 75 78 78 79 77 75 77 74 75 77 71 67 68 75 76 72 72 68 69 73 73 69 72 77 78 79
61 61 61 61 61 62 62 62 61 61 61 61 61 62 61 62 62 75 75 77 78 80 83 82 80 77 72 74 74 73 69 74 77 79 78 75 73 74 75 69 70 69 71 76 77
61 61 61 61 61 61 61 61 61 61 60 61 61 62 61 61 67 78 76 77 79 83 82 79 77 73 70 69 75 67 74 75 77 79 77 75 77 74 77 73 74 77 77 77 77
60 60 60 60 60 61 61 61 60 60 60 60 61 62 61 64 71 79 78 79 81 82 79 77 74 73 71 72 73 70 73 78 80 79 78 77 75 75 75 78 79 78 77 77 77
59 59 59 60 60 60 60 59 59 59 59 60 61 62 62 66 80 81 79 78 80 81 78 79 76 77 74 72 72 76 76 78 80 78 79 75 74 76 76 77 75 75 76 78 76
59 59 59 59 60 60 59 58 57 58 59 60 62 63 63 71 80 81 80 78 80 81 77 80 82 77 75 72 78 76 72 78 75 76 74 78 69 71 72 73 70 72 76 77 76
59 59 59 59 59 58 57 57 57 59 60 61 64 63 66 78 79 78 80 77 80 82 81 81 83 78 75 77 75 73 73 70 73 75 74 75 66 74 74 70 67 68 76 76 77
58 59 59 58 58 57 56 56 61 62 62 64 63 61 67 75 73 79 82 77 78 79 80 83 81 75 75 70 68 70 66 68 70 75 73 73 69 71 73 71 68 69 75 77 77
58 58 58 58 57 56 55 55 60 64 65 67 67 61 70 72 77 77 79 80 75 75 74 74 73 69 69 68 60 63 66 68 68 72 72 71 71 71 74 71 72 69 74 76 78
58 57 57 57 57 55 56 63 65 62 62 66 67 67 71 79 80 75 80 78 76 73 65 70 65 62 67 69 69 68 68 67 70 75 73 72 73 71 73 73 72 72 74 77 79
57 57 57 57 55 54 57 68 67 67 61 68 67 68 73 76 72 71 80 73 70 65 67 64 62 68 70 70 67 67 66 66 71 74 73 72 72 71 74 74 73 74 76 78 80
57 57 57 56 55 56 61 68 69 69 61 66 68 69 73 75 73 71 77 74 69 64 65 63 67 70 69 67 65 66 66 65 67 72 72 69 67 68 70 73 74 75 78 79 80
57 57 56 54 57 59 66 68 66 68 59 61 65 72 73 75 71 80 82 77 70 65 66 66 72 68 67 66 69 63 70 70 68 67 64 70 63 66 69 68 70 74 76 79 80
57 56 54 54 57 65 67 67 67 69 44 65 67 79 74 73 75 73 81 77 68 67 67 64 66 66 65 68 71 66 72 70 69 67 66 65 66 66 68 66 67 72 76 80 81
56 54 54 55 55 64 66 66 70 55 43 59 68 67 69 71 71 74 75 78 74 68 68 69 73 73 71 73 73 74 69 66 66 67 59 66 67 64 67 67 71 75 77 79 82
54 52 54 59 69 65 66 70 55 47 61 56 58 65 65 62 65 67 64 62 62 58 59 64 67 72 74 69 70 71 67 57 55 55 58 63 64 61 68 71 71 71 77 79 81
52 52 55 62 65 63 69 63 46 52 54 61 58 62 57 60 59 61 60 57 61 61 60 58 54 65 70 69 67 67 68 60 49 52 59 62 62 62 71 73 73 74 77 81 80
51 64 67 71 65 65 67 51 47 51 56 55 59 57 55 58 61 59 55 54 57 59 57 57 55 66 66 68 68 63 61 70 60 57 60 63 64 69 72 70 69 71 74 76 80
63 67 70 68 68 69 61 47 53 57 57 57 51 54 52 53 56 56 53 56 54 59 60 57 54 60 63 66 67 66 66 61 62 50 51 55 56 58 60 61 64 64 68 75 78
66 68 72 71 71 63 52 51 55 60 59 54 51 51 50 51 53 50 49 56 56 57 59 57 59 56 61 56 54 63 61 59 63 59 56 52 54 63 60 60 58 60 63 69 75
66 61 73 71 60 54 52 53 51 56 58 57 55 51 49 50 50 50 49 52 57 58 53 54 56 50 52 59 59 59 54 55 59 53 55 61 53 65 63 63 60 57 61 64 67
62 60 72 70 53 52 54 53 55 55 53 53 51 53 52 48 47 51 52 57 58 57 54 57 51 48 50 57 59 55 57 55 55 57 50 56 53 64 64 61 62 58 57 59 62
61 57 62 60 53 54 51 50 50 56 54 54 52 54 51 48 51 48 50 55 57 58 56 59 51 50 52 50 54 51 54 56 57 57 52 54 54 58 58 58 60 61 60 59 59
58 53 53 51 53 52 52 50 49 47 54 55 50 49 48 46 46 46 50 53 58 55 56 57 49 50 50 52 53 52 52 54 54 54 54 54 55 55 57 57 59 61 63 61 57
59 56 55 52 50 53 49 49 49 50 51 49 48 50 51 46 47 45 49 50 48 55 52 53 46 49 45 50 51 49 51 52 53 54 55 56 53 55 57 59 59 59 59 59 60
55 56 61 47 51 52 50 50 50 52 53 54 51 50 48 49 53 54 54 52 52 50 49 49 48 46 42 46 47 45 48 50 52 52 54 53 50 53 54 54 55 57 58 56 57

GFSSW_sfc_temp_072.txt.gz
Temp
62 62 62 62 62 63 63 63 63 63 62 62 62 62 62 62 61 72 76 84 83 77 81 89 90 89 90 87 86 85 72 72 75 74 70 74 72 78 84 83 85 86 85 88 89
62 62 62 62 62 62 62 62 62 62 62 62 62 62 62 62 73 77 83 77 79 78 88 87 85 86 85 85 84 78 74 77 83 84 76 70 71 77 75 77 79 81 88 88 88
61 61 61 61 62 62 62 62 62 62 61 61 62 62 62 67 74 85 80 77 78 80 93 93 91 88 83 86 83 82 76 83 85 86 85 78 71 72 76 72 81 80 82 85 86
61 61 60 61 61 61 61 61 61 61 61 61 61 62 62 73 74 86 77 77 78 90 92 89 87 83 81 79 85 75 82 83 85 86 85 80 83 79 74 76 77 85 86 86 85
60 60 60 60 61 61 61 61 60 60 60 61 62 63 68 74 82 86 78 79 86 89 88 86 84 85 80 84 82 75 81 84 86 87 86 84 80 79 79 81 85 86 86 86 87
60 59 60 60 60 60 60 59 59 58 60 61 62 63 73 73 88 87 88 88 88 89 89 90 86 88 85 82 82 84 84 85 87 87 86 81 82 84 82 86 83 83 85 87 86
59 59 59 59 60 59 59 58 58 58 59 61 62 70 73 79 88 91 90 90 92 92 87 92 90 86 87 81 86 84 80 85 85 86 83 84 76 76 83 83 80 83 85 86 87
59 59 60 60 59 59 58 57 57 60 60 61 63 73 76 86 90 88 90 88 91 94 92 90 92 88 86 86 82 80 82 78 83 85 84 85 70 78 81 74 75 81 85 85 86
59 59 59 59 59 58 57 56 61 63 62 64 71 73 76 78 82 89 91 85 88 89 89 89 89 85 83 79 77 80 75 78 77 85 83 82 76 81 82 75 73 70 81 85 85
59 58 58 58 58 56 56 56 61 65 71 75 76 70 78 78 85 86 90 90 84 84 82 81 83 78 80 79 70 73 76 79 77 81 84 81 79 78 81 79 74 70 80 84 86
58 58 58 58 57 55 60 72 71 70 73 76 77 76 81 86 88 84 88 85 84 81 74 79 74 71 77 81 81 82 79 77 79 83 82 81 81 79 82 81 77 70 79 83 86
58 58 57 57 56 55 67 77 75 76 71 79 78 78 82 86 77 82 89 79 77 72 78 73 70 80 82 81 77 77 76 77 78 82 82 81 80 82 84 83 81 73 77 84 86
58 57 57 56 55 61 77 77 81 80 72 74 78 78 81 83 79 78 84 81 76 74 73 72 76 81 76 75 74 77 76 77 76 80 82 80 77 78 81 84 80 82 86 86 86
58 57 56 54 58 78 77 79 83 80 68 67 74 79 81 84 77 87 87 83 77 72 74 75 79 75 74 74 77 73 80 77 76 75 72 82 71 77 78 78 75 75 82 87 88
57 56 54 50 76 79 77 83 84 79 53 70 74 86 85 79 80 79 89 84 74 74 74 72 74 73 72 75 79 75 80 78 77 75 75 75 74 72 79 76 69 74 79 87 84
56 54 54 65 75 80 82 82 78 64 49 65 74 73 74 79 79 81 81 85 83 76 76 76 83 80 79 81 80 81 77 76 76 77 65 75 75 73 76 73 78 82 83 85 90
54 53 56 74 79 83 83 80 64 58 67 62 66 74 74 72 73 76 73 72 70 64 65 71 73 80 82 75 80 78 74 64 62 63 65 79 73 69 75 77 77 78 83 87 90
52 52 62 77 82 80 82 71 54 59 61 68 67 72 67 71 69 72 70 67 71 72 70 64 60 74 78 77 73 74 76 69 56 61 67 74 67 68 78 80 81 83 86 89 90
51 78 86 83 81 81 76 62 56 58 63 62 68 64 64 67 69 68 67 65 66 70 66 66 63 73 74 77 78 73 69 82 71 73 71 71 70 76 77 76 75 75 83 86 89
80 84 80 85 83 82 73 53 60 64 64 66 59 61 60 63 65 66 64 65 64 68 71 70 60 70 70 76 76 75 81 68 71 59 58 68 67 65 67 68 71 67 66 81 86
80 78 83 86 83 79 64 60 63 67 66 62 60 59 58 60 63 61 59 63 64 64 69 70 69 65 71 68 69 71 70 72 76 72 65 62 64 70 67 65 65 66 64 66 69
82 73 84 85 73 72 63 62 54 65 67 63 62 62 59 59 59 57 56 59 65 66 61 67 70 62 64 67 69 70 69 72 66 63 70 70 60 72 71 66 61 61 63 64 66
76 75 85 84 66 62 63 62 64 64 63 63 60 62 61 58 54 59 60 62 65 66 63 63 62 57 59 65 67 67 68 69 72 73 66 65 59 72 71 69 60 59 60 62 63
77 69 74 74 72 66 61 59 58 64 62 63 61 64 62 59 62 57 58 62 64 66 59 65 62 55 57 60 68 61 63 67 70 67 68 69 60 64 67 67 68 61 60 61 62
73 65 65 64 64 64 64 60 57 56 62 63 59 59 58 56 58 56 60 62 65 63 66 68 59 60 59 61 63 63 62 63 65 66 65 66 64 64 66 66 68 70 69 61 60
72 71 71 65 62 64 57 58 57 58 59 56 56 59 60 55 56 55 59 61 59 65 64 66 58 61 56 59 60 59 60 61 62 64 66 68 61 68 67 68 67 68 67 66 65
74 73 72 55 63 66 60 58 57 60 60 61 59 58 56 56 61 63 64 62 62 60 58 59 61 56 55 57 57 54 61 61 62 64 65 63 62 64 64 63 63 66 67 65 65

GFSSW_sfc_temp_075.txt.gz
Temp
62 62 62 62 62 63 63 63 63 63 63 63 63 63 63 63 62 73 80 87 87 78 79 95 96 94 97 93 92 92 70 69 74 76 74 79 76 85 86 86 86 88 89 92 95
62 62 62 62 62 62 62 62 62 62 62 62 62 62 63 63 75 82 84 80 80 79 88 91 89 92 90 91 90 86 69 76 85 85 74 77 79 82 84 82 84 88 93 93 94
62 62 61 61 62 62 62 62 62 62 62 62 62 63 63 66 77 90 79 79 79 82 96 97 97 93 88 92 86 84 73 83 86 89 84 77 73 78 80 81 85 85 87 90 92
61 61 61 61 61 62 62 62 62 61 61 61 62 63 63 76 75 90 79 78 79 91 95 95 94 88 88 86 85 78 85 87 90 92 88 80 84 80 80 78 88 90 91 90 91
61 60 60 61 61 61 61 61 60 60 60 61 62 63 69 79 85 89 79 80 89 90 92 92 89 89 86 90 84 82 87 90 91 92 91 89 85 80 74 78 87 93 91 90 92
60 60 60 60 60 61 61 60 59 59 60 61 62 62 74 77 95 92 91 90 92 91 93 94 92 95 91 89 87 89 89 90 93 93 91 84 84 82 81 86 87 89 89 91 92
60 60 60 60 60 60 60 59 59 59 60 60 62 70 80 84 96 97 95 94 96 95 92 97 98 92 93 87 95 90 85 89 91 92 84 90 77 79 85 89 85 88 89 91 93
59 60 60 60 60 60 59 58 58 61 61 61 63 76 80 95 98 94 97 95 98 99 98 100 97 94 92 94 90 85 87 82 90 91 90 86 69 82 88 85 84 86 89 90 92
59 59 60 60 59 59 57 57 59 63 63 63 72 77 81 83 89 96 98 91 94 97 97 96 93 89 90 84 81 84 78 81 83 93 89 84 74 85 88 85 82 81 87 88 89
59 59 59 59 58 57 56 56 61 63 70 79 84 77 84 83 91 93 98 95 91 90 87 85 87 83 85 82 73 77 79 84 82 87 89 83 65 83 85 80 80 80 81 84 86
59 58 58 58 58 56 61 75 73 74 79 81 82 82 86 94 95 90 95 91 90 86 78 83 79 75 81 84 88 87 84 81 87 90 88 84 77 82 86 84 81 74 73 84 84
58 58 58 58 57 55 66 80 82 84 76 85 85 86 90 92 81 87 94 83 81 75 82 79 74 85 88 88 86 85 84 84 86 88 88 86 84 86 84 85 83 76 72 81 84
58 58 58 57 56 63 82 84 91 89 76 80 85 84 85 90 83 83 90 87 80 77 79 77 81 87 85 83 80 82 83 84 81 84 88 86 82 82 86 89 83 78 83 82 84
58 58 56 55 58 88 83 89 92 89 69 72 78 83 88 88 81 92 92 88 81 77 80 80 87 83 81 80 82 78 87 87 83 80 74 86 71 80 84 83 79 76 82 83 84
57 57 55 52 75 83 86 93 93 86 55 75 79 93 89 82 86 84 93 88 79 79 80 76 80 79 76 79 84 80 88 84 84 80 82 80 77 66 84 79 78 80 84 86 86
56 55 54 67 78 89 92 92 87 64 53 70 79 77 78 82 82 85 84 90 88 81 82 81 88 85 82 86 86 86 83 82 83 81 70 79 79 71 77 70 81 83 78 86 86
55 53 58 80 84 94 92 84 65 59 73 68 73 77 77 76 79 79 76 75 73 68 69 76 77 85 86 81 86 83 78 67 65 67 68 82 78 74 81 83 85 84 82 88 83
52 52 67 85 92 91 86 73 55 65 68 74 74 77 72 78 77 76 74 72 79 78 74 69 65 79 85 82 78 79 79 71 59 64 70 82 72 73 83 86 86 88 92 90 89
51 82 88 95 93 90 79 60 60 65 69 70 73 70 71 74 74 75 74 73 77 78 67 71 70 83 82 86 85 78 73 86 78 81 75 76 74 80 82 81 78 78 88 91 89
82 89 88 95 94 87 75 58 66 71 73 73 65 70 64 69 70 70 69 72 71 75 79 73 64 78 79 82 84 80 85 73 76 63 63 72 69 71 74 74 74 71 75 76 72
82 82 90 97 93 81 65 67 69 73 74 70 64 66 63 66 69 68 66 70 71 74 77 78 73 71 76 73 74 76 75 78 81 77 68 66 66 77 72 72 70 64 69 71 68
87 77 91 95 77 78 70 70 59 72 75 70 71 67 64 65 66 63 65 68 72 75 71 76 74 67 70 78 79 79 78 79 70 67 75 73 61 78 72 71 68 62 64 68 64
83 82 93 90 68 70 70 70 71 70 70 70 68 69 71 63 61 66 66 69 71 73 70 73 71 62 64 71 76 73 77 78 80 80 70 69 62 77 70 66 65 62 62 63 66
82 75 81 85 82 73 67 66 65 70 69 70 69 71 69 63 68 65 64 67 71 72 61 67 71 64 59 65 74 68 72 75 76 70 71 72 64 69 70 64 61 62 63 65 64
82 73 74 69 72 72 71 68 63 63 69 71 66 67 68 63 64 63 68 67 69 64 70 74 60 66 66 69 73 72 71 71 70 74 70 66 66 69 71 72 68 66 64 63 63
79 78 79 75 71 70 61 65 64 64 66 63 63 65 67 64 65 64 67 68 68 71 70 75 62 63 60 65 67 65 68 69 71 72 73 71 66 74 74 74 72 72 70 64 64
85 83 79 62 71 72 67 65 64 66 66 68 65 65 63 64 68 71 73 72 71 67 66 66 67 63 57 63 60 56 65 68 71 73 73 68 68 72 70 70 71 72 70 69 70

GFSSW_sfc_temp_078.txt.gz
Temp
63 63 63 62 62 63 63 63 63 63 63 63 63 63 63 63 63 72 76 87 88 80 80 93 93 93 95 90 91 90 72 69 70 74 72 76 76 84 87 80 82 88 88 91 95
62 62 62 62 62 62 63 63 63 63 63 63 63 63 63 63 72 77 87 82 81 81 87 90 88 92 88 88 90 71 67 75 82 81 75 78 79 82 82 79 82 81 91 94 95
62 62 62 61 62 62 62 62 62 62 62 62 62 63 63 66 73 86 85 81 81 83 93 96 96 92 86 90 87 67 70 83 85 86 84 82 80 83 73 75 83 81 86 91 93
61 61 61 61 61 62 62 62 62 61 61 61 62 63 63 72 72 87 80 80 80 91 90 94 93 87 85 82 86 77 86 89 87 88 84 79 82 83 76 77 86 89 90 91 91
61 61 61 61 61 61 61 61 61 61 61 61 62 63 69 74 82 86 79 81 89 89 88 90 89 88 84 88 88 69 78 88 94 88 86 84 83 77 74 83 89 90 90 90 92
61 60 60 60 61 61 61 60 60 60 60 61 62 62 70 72 99 91 92 88 91 89 90 94 92 94 91 90 87 88 79 89 93 91 91 85 77 81 72 85 87 88 88 91 91
60 60 60 60 61 61 60 60 59 59 60 61 62 69 75 81 99 96 95 91 94 92 90 97 98 93 93 88 95 92 81 89 91 92 87 87 77 77 78 86 86 86 88 90 91
60 60 60 60 60 60 59 58 58 59 62 62 63 74 74 98 100 97 96 93 97 97 97 100 100 94 92 95 91 86 86 78 90 92 89 85 68 79 85 85 85 86 88 89 90
59 59 60 60 60 59 58 58 58 63 64 64 68 74 77 87 90 97 98 92 95 96 98 100 96 88 90 83 80 83 75 79 79 93 88 85 69 78 85 85 84 85 87 87 88
59 60 60 60 59 58 57 57 65 62 66 75 80 74 82 83 91 95 99 97 92 92 90 88 85 80 82 80 69 74 76 80 75 87 89 78 64 65 82 83 83 84 85 85 87
59 59 59 59 59 57 60 74 70 70 77 78 81 81 88 94 97 92 96 93 92 87 77 82 75 72 79 83 84 84 82 79 82 85 87 77 68 70 82 84 81 81 77 82 84
59 58 58 58 57 56 62 76 84 87 75 83 86 87 93 94 83 88 96 84 82 75 81 78 72 83 86 86 84 83 82 82 79 82 80 72 69 71 79 81 81 82 76 77 83
58 58 58 57 56 60 77 84 93 92 75 82 86 86 86 90 82 84 90 86 80 77 78 75 80 86 85 83 81 82 81 82 77 71 80 79 69 68 79 83 84 83 80 79 82
58 58 56 55 57 85 83 92 95 93 67 74 79 84 88 88 80 93 92 87 82 76 79 79 87 83 81 80 84 77 87 87 81 78 72 86 68 76 80 75 77 78 79 79 83
58 57 55 52 74 82 89 95 94 87 52 77 80 95 90 81 84 85 93 88 78 79 80 76 80 80 78 81 86 80 89 86 81 79 79 79 74 76 76 69 75 77 80 83 85
57 56 55 67 74 86 95 94 88 64 52 71 81 78 78 81 83 86 84 89 88 81 83 82 89 86 83 86 86 88 85 84 83 78 68 76 76 69 67 62 69 80 82 78 85
55 54 57 81 81 95 94 85 64 56 72 70 73 78 76 75 78 80 76 74 72 67 69 77 80 86 87 80 85 84 78 67 64 65 65 80 76 71 69 66 64 83 82 76 80
53 52 65 81 92 95 88 73 50 57 59 77 77 77 72 77 77 77 74 71 78 77 73 68 65 79 85 81 78 79 78 68 56 61 67 79 71 71 79 72 71 88 88 88 86
52 80 80 91 90 93 78 60 49 52 72 72 74 70 71 76 77 75 73 73 77 80 68 65 69 84 85 86 85 78 73 83 75 77 71 73 73 79 80 79 81 79 77 72 70
77 85 87 97 98 86 68 57 66 74 76 75 66 72 65 71 70 70 71 77 73 80 80 72 63 80 84 87 86 77 84 71 74 59 57 66 66 67 72 72 74 73 70 68 65
78 78 92 99 96 74 59 67 72 77 77 71 68 67 64 68 67 66 62 70 76 76 78 76 72 70 79 75 74 76 71 75 77 74 64 57 58 78 72 73 69 69 67 63 62
82 72 94 97 76 79 70 73 61 75 77 74 74 71 68 68 62 64 59 66 76 77 70 76 73 63 71 81 84 82 77 77 68 65 72 56 53 75 72 70 67 66 67 64 59
78 83 95 92 60 70 73 72 74 74 73 72 70 69 72 66 60 67 65 73 75 76 67 72 68 61 64 74 78 74 77 78 79 77 68 56 60 73 69 67 65 65 66 65 61
79 75 83 87 83 75 70 69 68 74 72 74 72 73 68 66 68 64 68 71 75 75 65 70 68 62 50 60 72 68 73 77 76 68 70 61 60 64 64 63 64 64 65 65 65
82 76 78 70 73 74 73 70 66 66 72 73 68 70 65 57 64 62 70 70 73 66 72 73 63 67 68 70 71 73 73 75 71 72 65 62 63 65 65 65 65 66 66 65 65
76 76 82 76 74 73 63 67 67 68 68 66 66 68 69 56 56 55 63 69 66 73 71 74 63 64 62 70 68 67 73 73 74 74 73 68 65 74 71 69 67 67 67 66 66
85 86 79 66 75 73 68 68 67 69 69 71 68 67 66 67 71 70 75 74 63 67 68 67 64 58 55 66 65 58 67 69 71 75 65 58 65 72 70 70 70 70 69 68 68

GFSSW_sfc_temp_081.txt.gz
Temp
63 62 62 62 62 63 63 63 63 63 63 63 63 63 63 63 62 64 67 80 79 81 81 86 85 86 85 81 85 83 61 63 67 67 67 73 71 78 76 79 80 86 83 85 86
62 62 62 62 62 62 62 62 62 63 63 62 62 62 63 63 63 66 79 82 82 81 82 82 79 83 77 80 72 64 59 67 75 75 69 72 75 74 68 74 78 82 87 89 88
61 61 61 61 61 62 62 62 62 62 62 62 62 62 62 62 63 75 82 82 81 81 87 87 87 84 78 83 70 65 61 76 78 78 79 76 77 74 72 71 79 78 82 86 83
61 61 61 61 61 61 61 61 61 61 61 61 61 62 63 63 62 83 81 82 81 85 85 83 83 77 75 77 73 67 72 77 79 83 81 77 77 69 69 74 85 85 86 86 85
61 61 61 60 61 61 61 61 61 60 60 61 61 62 61 60 68 83 80 81 82 82 82 80 77 78 74 79 81 69 75 82 86 84 82 82 75 71 72 74 88 88 87 84 83
61 61 60 60 60 61 61 60 60 60 60 60 62 62 57 58 88 84 83 80 84 81 81 82 81 85 81 83 78 74 77 78 80 80 82 76 74 76 76 85 85 86 83 85 84
60 60 60 60 60 60 60 60 60 60 60 61 62 65 64 66 89 85 84 77 81 83 79 86 87 82 83 81 88 78 72 75 79 80 77 77 68 72 78 82 82 84 84 86 87
60 60 60 60 60 60 59 58 59 60 61 64 63 63 60 86 87 88 86 82 85 85 86 88 90 83 79 85 85 75 73 63 81 85 81 77 63 67 76 77 78 83 84 84 86
60 60 60 60 60 59 58 57 59 61 64 65 57 58 65 85 83 88 88 83 83 85 87 94 86 75 79 70 65 70 61 69 73 86 80 76 63 66 78 77 76 81 82 83 84
59 60 59 60 59 58 57 56 60 60 62 70 72 60 71 78 85 88 89 90 83 82 82 81 73 65 66 60 53 61 64 68 69 81 78 63 60 64 67 72 78 80 82 80 83
59 59 59 58 57 56 56 62 57 58 66 64 67 71 82 86 90 85 90 87 85 78 66 73 61 57 64 69 73 73 70 70 78 79 67 62 61 66 70 69 77 79 80 80 79
59 58 58 58 56 56 53 61 72 74 64 73 77 79 84 86 79 84 89 76 74 66 71 64 58 70 76 77 75 74 70 71 75 77 67 63 61 65 71 69 79 77 77 80 79
58 58 57 56 55 52 62 71 83 81 62 74 78 78 81 84 78 78 82 79 72 68 69 62 68 78 76 75 73 70 65 68 68 72 72 69 62 61 67 76 78 78 79 80 80
58 58 57 54 54 71 72 79 81 82 52 67 71 79 82 79 74 88 87 80 74 68 71 68 77 76 74 73 73 60 76 79 72 66 58 68 50 60 68 71 74 76 74 76 77
57 57 56 54 55 68 79 84 81 74 42 73 74 88 80 72 75 78 88 79 70 72 69 66 71 72 71 74 77 70 79 77 73 64 63 62 58 58 68 65 66 71 74 78 80
57 56 55 57 58 68 80 83 76 52 46 65 77 73 71 73 76 80 79 81 81 73 73 72 81 77 74 80 80 82 76 74 71 67 57 63 63 56 61 66 69 65 69 77 78
55 54 53 68 69 83 85 74 52 43 61 65 66 71 69 68 72 73 71 66 60 52 56 69 73 77 81 70 76 72 60 50 50 49 54 66 64 55 64 67 66 65 66 72 80
53 52 57 69 79 82 78 61 42 53 56 68 68 70 65 70 70 72 67 61 69 66 58 55 54 70 79 69 65 65 60 51 44 47 53 64 53 56 69 70 70 73 72 73 74
52 66 70 78 76 76 65 45 49 53 61 64 69 62 63 70 69 69 65 63 69 70 55 57 59 76 79 77 72 65 61 68 58 57 52 55 59 65 66 66 68 66 66 64 67
60 70 74 88 87 75 60 51 60 66 72 70 58 60 56 64 65 64 61 68 72 75 69 60 52 67 77 78 77 68 69 58 55 45 48 54 54 52 58 63 61 59 59 61 62
64 66 81 88 86 64 55 57 68 75 73 65 63 60 61 58 62 58 58 67 70 70 69 61 55 62 70 65 64 62 58 57 58 55 48 46 46 60 59 60 56 56 57 58 59
71 61 84 84 64 63 58 65 63 71 73 69 67 65 60 61 58 55 58 61 71 70 62 63 61 50 57 70 73 67 62 62 50 50 52 50 48 63 61 62 60 57 58 58 59
62 69 83 81 58 58 64 70 71 68 68 69 67 65 66 60 54 60 61 71 74 69 57 58 53 47 54 63 66 61 68 61 60 57 54 47 47 61 60 60 60 57 59 59 58
63 63 71 73 72 66 62 63 64 73 70 70 67 67 61 57 58 56 60 70 72 70 66 63 58 51 45 53 58 57 64 66 56 49 52 55 50 56 57 57 57 59 61 60 59
65 64 68 59 63 64 64 65 65 63 69 68 63 65 58 51 53 55 61 65 70 65 65 59 50 54 60 63 63 63 64 67 60 56 52 53 53 55 57 57 61 62 63 62 62
62 63 69 65 67 65 58 60 63 64 63 62 61 66 60 51 51 51 55 56 55 60 56 60 50 55 52 63 63 61 65 69 68 64 59 60 54 61 61 61 62 63 63 61 59
71 72 65 62 65 63 60 63 65 66 66 68 66 61 59 62 63 61 60 61 56 54 55 54 50 47 43 58 60 51 59 62 62 66 62 51 55 61 59 61 61 62 64 61 61

GFSSW_sfc_temp_084.txt.gz
Temp
62 62 62 62 62 62 62 63 63 63 63 63 62 62 62 62 62 62 62 76 75 80 81 81 78 81 81 76 80 77 61 59 62 65 65 71 70 75 77 79 81 82 78 81 81
61 61 61 61 61 61 62 62 62 62 62 62 62 62 62 62 59 60 74 79 80 79 78 77 75 79 72 74 72 67 58 64 72 73 69 71 70 72 74 76 78 79 81 83 81
61 61 61 61 61 61 61 61 62 62 62 62 62 62 62 61 58 68 79 80 81 80 82 81 81 78 71 74 69 64 62 72 74 77 77 73 70 72 69 65 76 74 76 80 81
61 61 61 61 61 61 62 61 61 61 61 61 62 62 62 58 59 81 81 79 80 81 79 79 77 70 69 70 73 65 70 72 77 80 77 73 71 67 69 73 82 82 81 80 79
61 61 61 60 61 61 61 61 60 60 60 61 61 62 57 54 62 81 80 80 79 79 76 76 72 71 68 72 72 68 74 75 80 81 80 77 71 70 69 77 83 85 82 79 80
60 60 60 60 60 61 61 60 60 60 60 60 61 62 53 54 81 80 79 78 78 77 76 77 75 77 74 78 74 76 76 69 75 80 78 72 71 74 72 77 83 84 79 80 81
60 60 60 60 60 60 60 59 59 60 60 60 62 63 57 63 83 79 77 72 72 77 74 80 80 73 75 74 84 81 72 72 76 75 74 75 68 69 76 78 80 83 81 83 82
60 60 60 60 60 60 59 58 58 60 60 63 63 58 54 78 77 79 77 74 77 76 79 79 81 75 74 79 77 71 70 64 74 76 75 72 59 72 73 78 78 81 81 81 81
60 60 60 60 60 59 58 57 59 61 62 65 53 52 57 80 75 79 80 77 74 75 78 88 78 71 73 65 59 67 57 64 70 78 73 68 58 66 73 76 76 80 79 82 81
59 59 59 59 58 57 56 57 58 59 62 67 68 55 65 73 78 81 81 82 75 74 76 74 68 62 61 57 51 57 58 66 69 73 71 63 61 65 70 73 76 79 78 81 78
59 58 58 58 57 56 52 55 56 54 56 58 61 64 72 77 83 79 83 79 75 70 61 67 59 55 60 62 66 65 63 65 71 72 64 62 60 64 70 71 74 77 78 78 80
58 58 58 57 56 54 49 53 63 65 57 66 70 70 77 75 73 79 82 71 68 61 63 60 54 64 69 70 68 66 62 66 72 73 66 62 62 66 68 69 72 76 77 77 77
58 58 57 56 55 49 52 62 71 69 55 66 69 69 71 74 71 73 77 74 67 62 62 56 63 72 70 67 66 63 58 62 64 68 67 63 59 62 68 69 71 75 80 77 79
58 57 57 55 54 58 61 69 68 69 47 58 62 72 75 75 69 83 81 76 68 63 64 62 70 70 67 65 65 54 70 73 67 61 54 64 47 59 62 65 68 71 74 74 79
57 56 54 54 51 58 71 68 69 66 37 67 66 81 72 68 71 73 82 73 65 67 63 60 65 65 65 67 70 65 72 72 69 60 59 58 53 56 63 62 63 66 69 71 78
56 55 54 52 49 58 65 69 66 49 41 58 71 67 65 65 69 73 75 75 74 66 65 66 74 70 69 75 75 77 68 67 62 59 49 60 56 51 59 63 67 68 70 73 75
55 53 53 63 63 67 68 62 47 44 61 58 59 62 60 62 66 66 66 60 57 49 49 63 66 71 74 66 68 67 55 46 45 47 47 59 57 59 65 69 69 69 73 74 76
53 52 52 61 61 66 63 54 41 53 55 62 63 62 58 63 63 65 62 56 62 58 51 49 51 66 72 67 62 59 57 48 44 43 51 64 53 54 63 70 68 69 69 72 71
52 50 55 63 64 64 57 41 44 51 61 59 60 55 55 61 61 62 60 57 63 61 52 48 53 69 72 73 71 59 54 61 54 49 51 50 53 60 62 59 61 61 62 63 66
50 57 62 74 70 63 52 45 50 61 67 61 51 55 50 56 57 56 58 62 64 67 59 54 49 59 72 71 69 64 65 53 49 42 41 47 47 48 54 53 56 56 58 60 60
57 59 71 72 70 57 47 48 61 67 66 59 55 54 51 53 56 54 52 60 65 65 62 52 51 56 62 57 61 60 54 54 53 49 45 41 45 59 54 54 52 53 57 57 58
55 53 72 72 56 48 47 55 61 63 65 62 61 57 54 58 53 55 54 58 68 63 56 53 48 45 53 65 67 63 56 54 52 51 47 44 47 61 56 55 54 54 56 57 58
54 55 71 71 49 46 53 61 63 62 60 62 60 60 59 56 52 56 58 67 69 65 55 55 48 42 50 57 60 58 59 51 51 48 47 45 45 56 56 56 56 54 57 57 58
54 53 61 59 53 54 52 54 56 68 64 63 60 61 55 51 55 55 58 66 68 64 66 60 48 49 43 51 53 53 60 59 51 45 48 45 47 50 53 53 55 55 58 58 58
55 55 57 51 54 53 54 56 58 56 61 60 59 58 53 44 48 50 54 57 64 65 62 57 47 47 60 59 58 57 59 61 51 54 51 48 48 50 52 54 55 56 59 58 58
56 55 56 51 56 56 51 50 57 57 57 55 54 58 55 47 46 45 50 50 48 58 55 53 46 48 51 61 58 56 60 61 62 61 54 51 46 55 56 58 57 58 60 60 60
58 59 57 51 52 52 49 52 58 61 60 62 59 55 54 56 58 56 51 51 49 48 53 51 44 42 39 53 58 48 54 58 58 62 55 48 50 56 55 58 60 61 62 61 62

GFSSW_sfc_temp_087.txt.gz
Temp
61 61 61 61 61 61 61 62 62 62 63 62 62 62 62 61 61 60 60 74 73 78 80 77 76 78 78 75 78 76 60 57 62 63 64 71 70 76 77 75 77 79 75 75 77
61 61 61 61 61 61 61 61 61 62 62 61 62 62 62 61 57 57 72 77 78 79 77 74 72 74 67 71 71 66 57 62 71 71 67 69 72 73 73 72 71 73 77 77 76
61 61 61 61 61 61 61 61 60 60 61 61 61 62 62 60 56 68 78 78 79 79 78 78 79 76 68 70 68 66 61 70 73 75 74 69 68 71 71 68 71 69 71 74 74
61 61 61 61 61 61 61 61 61 60 60 60 61 62 62 56 56 77 80 77 79 77 76 77 75 68 64 66 69 65 71 73 75 77 74 70 73 71 68 73 78 76 76 75 74
60 60 60 60 60 60 61 60 60 60 60 60 60 62 56 53 62 78 80 78 77 75 73 73 70 66 63 66 69 68 71 76 79 76 76 73 71 69 71 76 79 79 77 75 75
60 60 60 60 60 61 61 60 60 59 60 60 61 62 53 55 77 78 76 74 75 74 72 74 73 73 69 69 69 69 74 72 77 76 76 72 71 71 72 78 77 77 75 77 76
60 60 60 60 60 60 60 59 59 59 60 60 62 61 55 62 78 77 74 68 69 74 69 75 77 71 70 69 77 75 66 69 71 76 71 75 65 69 75 80 75 76 76 77 79
59 60 60 60 60 60 59 58 58 59 60 61 63 55 55 74 73 75 72 71 73 69 73 77 78 71 69 74 73 69 66 57 72 73 73 69 60 67 74 74 74 75 77 77 78
59 59 60 59 59 58 57 57 58 60 62 63 51 49 56 76 71 74 75 72 70 70 72 85 75 68 69 63 58 60 54 61 64 69 69 67 59 68 75 74 74 76 77 78 76
59 59 59 58 58 57 55 56 58 59 62 65 64 52 63 70 74 76 74 77 72 72 73 71 64 59 57 56 49 53 53 61 65 68 67 64 61 68 70 73 74 77 78 78 77
59 58 58 58 57 55 51 53 55 52 53 58 59 63 69 75 79 74 77 74 71 68 59 63 57 53 59 61 63 62 59 62 68 72 67 65 62 65 69 70 73 76 75 76 77
59 58 58 57 56 55 48 53 60 62 55 63 66 66 72 73 68 73 79 67 64 58 61 57 53 62 67 66 64 61 58 64 64 66 65 62 62 65 66 67 71 75 74 75 76
58 57 57 57 56 50 51 59 65 60 51 62 64 65 68 71 68 69 75 69 62 59 59 53 60 69 67 63 61 56 55 61 59 63 64 62 59 61 66 67 69 72 75 76 76
57 57 56 54 53 54 57 62 65 64 45 57 60 70 70 71 65 78 77 73 64 60 61 58 67 67 62 62 62 47 65 70 64 58 52 60 49 56 62 62 65 68 72 74 75
57 56 54 53 50 57 66 62 62 62 37 64 64 76 68 66 68 70 78 72 63 63 60 58 62 61 60 63 65 61 68 70 65 56 54 55 50 53 61 59 62 65 70 74 75
56 55 54 50 48 57 62 62 64 48 41 57 66 63 61 63 66 70 72 74 71 64 60 63 68 66 65 69 69 71 65 63 56 53 46 54 54 50 56 62 65 68 70 73 75
55 53 53 60 62 61 63 60 46 40 58 57 56 59 57 59 62 63 64 57 55 48 47 59 62 66 70 60 63 61 53 46 43 44 45 53 52 51 58 67 68 67 69 72 71
53 51 51 58 57 64 61 53 39 51 51 58 58 57 55 58 62 62 59 55 58 55 48 47 48 62 68 64 59 56 56 45 41 40 47 54 48 51 59 64 67 68 67 70 69
51 50 52 59 58 60 57 41 43 48 59 57 57 51 51 58 60 56 56 55 59 58 51 45 50 66 69 68 67 55 51 58 49 43 46 46 49 57 60 56 60 61 62 62 64
53 56 59 65 66 62 51 43 47 58 63 57 48 50 48 52 52 51 51 58 60 62 57 51 47 56 68 68 65 62 63 52 48 41 38 44 44 48 55 53 56 58 58 60 62
55 58 67 64 66 56 46 46 56 63 65 55 52 51 50 54 53 49 49 57 62 61 60 48 48 54 59 55 53 57 52 50 50 46 41 39 44 53 53 53 52 55 57 58 59
51 54 68 66 56 43 45 51 59 60 61 59 57 53 52 53 51 51 53 55 64 60 55 50 46 44 50 61 61 59 50 49 49 44 43 42 44 57 54 53 53 53 57 58 59
50 51 64 67 49 46 50 57 59 59 58 59 57 57 54 50 49 55 57 65 66 61 56 53 45 41 47 52 58 55 56 46 46 45 44 44 44 57 55 53 53 52 53 57 58
52 53 57 55 48 50 48 50 53 64 59 59 56 57 53 50 50 51 55 62 65 62 66 60 46 46 42 49 50 49 55 54 47 44 43 45 48 51 50 50 52 53 54 55 58
52 51 53 48 53 50 49 52 54 52 58 57 55 54 48 43 48 52 56 55 61 60 59 56 47 48 54 56 56 54 55 57 50 50 47 48 46 50 50 51 52 54 57 57 57
53 52 52 48 50 51 46 46 52 53 54 52 51 54 52 45 45 45 52 48 46 56 52 50 46 47 48 60 56 53 57 57 57 52 49 47 44 51 53 54 53 55 57 56 58
53 55 54 50 47 48 46 50 55 57 56 59 58 52 52 53 54 53 51 50 48 45 48 45 43 43 40 48 55 47 52 53 54 55 50 46 48 53 52 54 53 55 57 57 60

GFSSW_sfc_temp_090.txt.gz
Temp
61 61 61 61 61 61 61 61 61 61 62 62 61 62 62 62 61 58 58 73 70 77 79 74 76 78 80 71 78 75 60 59 62 62 64 70 69 76 77 73 75 76 72 72 73
61 61 61 61 61 61 61 61 61 60 61 61 61 61 62 62 54 55 71 77 78 78 74 72 70 75 70 70 71 65 56 62 70 69 67 69 72 72 71 69 69 68 72 73 73
62 61 61 61 61 61 61 61 61 61 60 60 61 62 62 60 54 66 78 77 78 78 77 77 75 71 64 69 67 65 60 69 71 73 74 70 70 73 69 64 69 65 67 70 71
61 61 61 61 61 61 61 61 61 60 60 60 61 61 62 55 53 73 78 77 78 76 76 74 72 63 62 62 68 62 70 73 72 75 73 70 71 71 71 71 75 72 72 71 70
61 61 60 60 61 61 61 61 60 60 60 60 60 61 55 52 62 76 80 78 74 73 72 71 67 64 62 64 67 65 68 75 76 76 74 73 70 71 69 75 75 74 73 71 71
60 60 60 60 60 60 60 60 60 59 60 60 61 62 50 53 73 75 72 72 71 71 69 71 69 68 65 65 65 71 70 74 74 73 73 71 70 70 72 73 74 73 71 72 72
60 60 60 60 60 60 60 59 59 59 59 60 61 60 53 62 74 73 71 67 69 72 68 72 76 71 69 64 70 72 65 71 72 70 70 74 65 68 74 72 72 72 72 73 73
60 60 59 60 60 59 58 58 58 59 60 61 63 53 53 71 71 72 71 70 72 68 71 74 76 70 67 71 71 66 63 58 70 71 71 69 59 69 73 71 70 72 73 73 74
59 59 59 59 58 57 56 56 58 60 61 63 50 50 56 74 69 73 71 70 68 67 70 84 74 65 67 61 56 57 52 57 63 72 69 67 61 69 71 72 70 71 73 74 75
59 59 58 58 57 56 55 56 59 59 61 63 63 50 63 68 70 72 70 74 69 68 68 68 62 57 56 55 48 50 53 56 60 65 65 65 62 67 71 71 70 71 73 74 73
58 58 58 58 57 55 51 51 54 52 51 57 58 61 67 73 75 68 73 72 68 63 56 60 55 52 56 59 61 59 57 57 66 68 65 62 61 65 68 71 71 73 71 73 74
58 58 57 57 56 55 50 52 58 59 52 60 62 62 67 68 65 69 74 65 61 55 60 56 51 61 63 64 63 60 56 55 61 68 64 58 60 66 67 68 72 73 73 74 75
58 57 57 56 56 50 50 58 62 58 48 60 60 62 64 68 65 67 70 66 60 56 56 53 58 66 66 61 60 53 53 57 58 60 63 61 57 61 65 68 68 71 75 75 75
57 57 56 54 53 53 55 60 61 60 45 56 58 66 67 67 62 74 74 70 61 57 59 56 63 64 60 60 60 48 63 68 61 58 52 61 50 57 62 63 65 68 72 73 74
57 56 55 53 51 57 64 58 57 60 37 63 62 72 64 62 66 66 75 69 60 60 59 56 59 59 57 61 64 60 65 68 62 54 52 54 51 54 60 59 62 65 69 72 73
56 55 55 50 49 57 60 57 61 48 39 56 62 61 59 61 63 68 69 71 68 61 58 60 65 64 63 65 67 67 62 58 56 51 46 52 53 51 53 59 64 68 70 71 73
55 53 52 58 61 59 59 60 46 39 56 55 53 56 53 55 61 61 61 55 54 48 44 55 58 62 66 58 60 59 51 47 41 44 42 48 52 52 57 60 64 67 68 71 72
53 51 51 56 55 60 60 53 38 50 49 56 55 53 49 54 60 61 57 53 55 54 46 46 46 59 64 61 56 54 53 44 38 38 45 51 47 53 59 61 65 69 67 68 66
51 49 50 57 55 55 57 40 42 46 56 55 54 49 49 54 57 58 54 53 57 55 48 44 48 62 66 64 65 53 50 55 46 41 44 45 50 56 60 59 61 61 62 63 66
50 53 58 61 60 60 52 43 46 55 59 56 46 49 45 50 50 51 50 56 57 60 53 51 45 53 63 64 62 58 60 50 45 40 37 44 46 48 54 55 58 58 60 61 63
53 57 63 59 61 56 46 44 54 60 60 56 51 49 47 49 50 50 51 58 60 59 57 48 47 51 56 52 52 55 50 47 48 45 40 39 45 53 54 57 56 57 59 60 61
51 54 63 63 54 41 44 49 57 57 59 56 55 51 51 53 47 51 51 55 63 59 54 51 46 43 47 56 58 53 48 47 46 42 41 42 46 55 54 54 56 57 58 59 60
50 50 61 63 48 44 47 53 56 57 54 56 54 54 53 51 46 49 55 62 64 60 55 56 46 41 46 50 55 53 52 45 44 44 42 45 47 54 53 52 53 54 57 58 58
51 53 55 51 45 47 45 47 50 60 55 55 53 54 51 48 48 49 51 59 63 60 64 60 48 47 41 44 48 48 52 52 45 43 43 46 47 51 50 50 51 52 54 58 58
50 48 49 48 50 45 46 48 51 50 55 55 53 51 47 44 45 49 49 57 60 59 57 56 49 49 52 54 53 51 52 53 47 46 46 49 49 49 50 50 51 53 57 57 57
51 51 49 45 46 47 46 44 50 50 51 50 50 53 50 45 43 43 48 49 47 54 50 52 47 50 47 53 54 51 54 54 54 51 48 47 48 51 52 52 52 53 55 56 58
50 50 53 46 45 46 45 48 52 53 54 55 55 51 50 51 52 50 47 51 49 43 47 46 45 45 41 47 54 48 51 51 52 52 49 45 48 51 50 52 52 53 55 55 56

GFSSW_sfc_temp_093.txt.gz
Temp
62 62 61 62 61 61 61 62 61 61 61 61 61 62 62 62 61 63 67 79 77 78 80 81 82 82 80 77 78 77 63 60 64 64 66 73 72 79 81 78 78 79 79 80 79
62 62 61 61 61 61 61 61 61 61 61 61 61 61 62 62 60 63 77 77 78 78 81 81 78 80 76 76 78 72 66 65 73 77 70 73 75 75 75 74 72 73 77 79 79
61 61 61 61 62 61 61 61 61 61 61 61 60 61 61 63 63 77 79 77 78 80 84 84 84 77 70 77 75 71 67 73 75 79 78 75 74 79 74 72 74 72 74 77 78
61 61 61 61 61 61 61 61 61 61 60 60 60 61 62 60 68 80 79 77 79 83 84 81 79 72 68 70 75 69 74 75 77 80 76 72 77 75 77 75 80 79 79 78 77
61 60 61 61 61 61 61 61 61 61 60 60 61 62 62 65 72 82 79 79 80 81 81 79 77 72 68 68 71 70 74 77 80 79 75 75 74 74 73 78 80 79 78 78 79
60 60 60 60 60 60 60 60 60 59 60 60 61 62 62 64 81 79 79 79 81 81 80 82 78 77 72 69 69 75 76 76 78 76 77 71 73 75 71 79 77 77 78 80 80
60 60 60 60 60 60 59 59 59 59 59 60 62 63 63 73 80 79 81 79 81 82 79 81 83 78 76 70 75 77 72 75 76 75 72 73 66 65 72 77 76 77 79 79 80
60 59 59 59 59 59 58 58 58 59 60 61 63 62 66 78 81 78 82 78 82 83 83 84 85 80 78 77 72 70 74 66 73 75 66 69 62 70 71 72 75 77 78 78 80
59 59 59 59 58 57 56 56 58 60 61 63 61 61 68 77 76 81 82 79 79 81 83 86 83 77 77 73 67 65 64 64 67 73 68 66 59 70 70 74 76 77 78 79 79
59 59 58 58 58 56 55 56 61 62 64 65 65 61 73 74 77 80 81 82 77 78 78 77 76 73 73 72 61 60 64 68 66 70 68 64 63 66 66 73 75 77 78 79 79
59 58 58 57 57 56 57 62 65 64 62 68 70 68 73 80 81 77 81 80 78 76 68 72 69 65 70 73 72 70 68 64 70 73 70 66 64 65 69 74 72 76 77 77 76
58 58 57 57 56 55 55 69 71 71 63 67 66 67 73 76 72 74 82 74 72 67 70 68 65 72 73 72 72 72 69 68 68 72 68 63 61 64 70 72 75 76 78 77 82
57 58 57 56 55 55 61 69 71 73 63 68 69 68 72 75 72 73 80 75 70 66 68 66 70 72 71 69 70 70 70 67 68 64 65 61 57 62 70 74 76 77 81 82 82
57 57 56 55 56 63 66 71 70 70 61 65 69 73 74 74 71 80 83 78 71 67 69 70 72 71 70 69 72 68 74 72 67 67 56 66 49 60 67 67 70 76 79 82 83
57 57 55 54 62 65 73 70 68 68 46 67 70 80 75 73 74 73 82 78 69 68 69 66 68 68 68 70 73 70 74 73 69 65 65 60 54 62 66 64 66 73 78 83 84
56 55 55 54 56 68 70 70 71 59 46 62 70 68 69 72 73 75 76 80 77 70 71 70 75 75 74 74 75 75 72 70 69 68 59 65 64 62 63 68 71 73 76 78 82
54 53 54 63 73 70 70 72 59 50 62 60 62 65 64 67 70 72 69 68 66 60 61 66 69 74 76 71 72 73 68 55 57 57 59 64 63 69 69 67 71 74 76 77 80
53 51 55 61 66 68 73 68 50 57 58 65 63 63 62 65 68 68 67 64 67 67 63 59 57 69 74 73 69 69 71 59 51 54 60 63 61 68 65 66 70 73 80 79 80
52 60 63 69 64 66 71 56 56 58 63 62 63 59 59 64 66 65 63 66 69 70 62 60 60 71 73 75 76 66 64 75 63 61 63 63 65 64 65 63 67 72 76 77 77
60 67 71 69 69 72 68 51 59 63 65 64 57 58 56 59 62 63 61 65 66 69 70 65 59 68 72 75 72 73 76 65 64 54 53 57 59 66 62 59 61 64 64 67 72
66 71 72 70 71 71 62 60 62 67 66 63 61 59 59 59 61 59 59 65 68 65 70 68 64 64 67 67 69 68 67 66 70 64 59 56 61 65 66 64 60 60 63 63 64
66 67 72 72 68 57 62 61 56 67 68 66 65 62 59 59 59 60 60 64 68 70 64 66 67 61 61 67 70 70 66 69 64 57 61 65 64 63 64 67 65 63 65 66 65
65 66 72 74 63 62 62 64 65 66 63 64 63 63 60 57 54 57 60 68 68 68 64 65 60 56 59 65 68 64 64 64 65 67 61 62 65 62 62 62 61 61 62 61 63
64 64 68 65 61 64 62 61 62 66 63 63 62 64 61 57 56 56 58 65 67 66 63 66 59 59 58 59 63 59 62 63 67 65 63 67 63 56 60 61 59 59 61 61 62
62 61 61 63 63 61 62 61 60 59 64 64 62 59 59 56 55 55 58 61 65 63 65 65 57 61 62 64 65 64 62 63 64 63 64 64 65 64 63 63 63 64 60 60 61
63 64 61 59 58 62 56 59 59 60 60 60 59 60 60 56 57 56 58 59 58 64 62 65 54 57 56 61 63 63 64 63 62 61 61 60 62 62 66 64 62 63 60 61 62
61 62 65 52 59 63 61 61 61 62 62 63 61 60 60 60 63 63 62 61 58 61 59 58 58 53 52 57 61 57 62 64 62 62 62 63 62 62 60 62 63 63 64 63 63

GFSSW_sfc_temp_099.txt.gz
Temp
63 63 63 63 63 63 63 63 63 63 63 63 62 62 62 63 62 76 83 87 88 80 78 96 96 95 96 90 90 88 66 63 67 79 79 88 84 90 89 89 90 93 91 94 96
63 63 62 63 63 63 63 63 63 63 63 62 62 62 62 62 76 84 85 80 81 80 90 92 90 93 88 87 87 80 72 68 79 88 84 85 86 84 86 84 86 90 93 94 95
62 62 62 62 62 63 62 63 63 62 62 62 62 62 62 66 79 89 80 79 79 82 97 98 97 92 84 89 85 80 72 80 85 90 90 87 83 90 82 80 89 85 88 91 93
62 62 62 62 62 62 62 62 62 62 62 62 62 62 63 75 76 91 82 78 79 92 95 95 94 87 80 79 86 77 82 82 85 90 90 86 90 86 89 88 94 92 92 92 92
61 61 61 61 61 62 62 62 61 61 61 61 62 62 71 79 86 94 78 80 89 91 93 92 90 88 80 84 86 80 79 84 85 90 90 88 87 87 86 92 95 93 92 92 93
61 61 61 61 61 61 61 61 60 60 61 61 62 62 73 76 96 97 94 90 94 93 93 95 92 94 83 84 83 81 83 83 83 86 84 85 85 88 87 93 91 90 91 93 94
61 61 61 61 61 60 60 59 59 60 60 61 63 72 79 84 96 97 97 95 99 97 93 98 99 93 90 83 87 84 75 78 77 84 78 83 79 77 88 92 88 90 92 93 94
60 60 60 60 60 60 59 58 58 59 61 62 63 78 79 95 99 95 98 97 100 102 99 101 98 95 92 88 82 79 74 63 73 83 78 79 65 81 88 88 87 90 91 92 93
60 60 60 59 60 59 57 57 58 60 62 64 71 79 81 83 89 96 97 93 95 97 98 97 95 90 90 82 64 75 60 65 67 79 71 73 65 77 88 87 88 89 89 91 92
59 59 59 59 58 57 57 56 60 61 66 78 82 77 86 85 92 94 99 97 92 92 89 88 88 84 86 82 61 67 58 71 67 71 74 62 59 69 75 73 85 86 90 90 91
59 59 59 59 58 57 61 75 74 74 81 82 83 83 85 92 94 91 95 93 92 88 80 86 80 77 83 86 71 64 60 58 72 71 66 65 63 64 67 69 73 84 85 88 88
59 58 58 58 58 57 66 84 85 87 77 88 85 86 89 93 83 89 96 85 83 78 84 81 77 86 87 88 85 80 67 56 67 73 70 63 60 64 63 66 69 77 86 88 90
58 58 58 57 57 62 84 87 95 92 79 82 86 85 86 89 84 85 90 88 82 79 81 79 84 89 85 83 81 81 70 62 56 67 66 62 57 60 63 64 68 74 86 89 91
58 58 57 57 59 92 87 93 95 92 72 75 80 84 86 88 81 93 93 88 84 79 83 82 90 85 81 80 84 75 74 65 60 72 58 63 51 62 61 61 63 77 80 87 88
58 57 56 53 74 86 91 96 96 89 57 77 81 93 90 83 85 85 94 89 80 81 82 79 83 82 78 80 86 77 84 66 64 71 70 65 63 63 68 59 61 77 80 85 87
57 56 55 66 77 91 96 96 89 68 55 73 81 79 79 83 83 87 86 92 90 83 84 84 90 87 85 88 87 86 83 83 79 76 54 71 70 64 67 63 62 68 76 83 87
55 54 57 80 88 97 96 87 69 65 76 71 74 79 78 77 79 80 78 77 75 69 71 78 79 88 89 83 86 84 79 66 63 50 65 74 71 71 77 69 67 67 74 84 79
53 52 64 83 95 94 90 77 62 69 72 79 77 77 73 77 78 79 77 74 81 80 77 71 68 81 86 84 79 79 81 69 58 63 65 73 66 70 82 81 83 82 84 88 89
52 80 87 94 92 91 80 68 69 72 76 75 77 73 73 75 75 77 77 76 81 82 73 73 72 86 86 88 87 79 74 85 71 75 61 69 72 78 84 83 83 83 88 85 89
79 90 91 96 95 88 77 61 74 79 79 79 70 72 69 73 72 74 75 81 80 84 87 79 70 83 84 87 88 84 88 74 77 60 55 65 70 71 72 76 83 84 86 88 88
79 84 92 98 94 83 73 74 75 82 81 75 73 72 73 68 75 72 70 78 79 79 83 81 77 76 81 77 77 79 78 80 81 77 66 62 69 80 77 81 79 86 88 90 90
87 79 94 97 78 83 81 77 65 79 82 79 78 76 71 62 72 72 67 69 81 81 74 81 77 70 75 85 87 86 81 81 72 68 76 73 58 85 83 83 83 78 79 81 84
80 86 95 93 72 77 79 78 79 78 78 76 75 76 77 72 65 72 65 76 79 79 74 79 74 66 68 80 83 79 82 84 84 83 72 70 68 83 82 78 79 77 76 77 75
82 76 84 87 87 80 75 75 74 79 77 77 76 77 75 70 75 66 72 76 77 78 67 74 75 71 64 69 79 73 78 83 83 74 75 75 70 77 80 78 76 73 71 70 72
83 81 84 76 80 81 78 75 71 72 78 78 74 74 73 67 70 69 73 74 75 70 77 78 68 74 75 76 79 79 78 79 77 80 75 78 76 80 80 79 79 75 73 71 71
80 80 85 86 78 77 67 73 72 74 73 72 71 73 75 68 69 57 71 67 68 73 74 78 65 70 71 74 78 76 79 80 80 81 81 79 77 84 85 83 79 76 75 74 74
88 87 82 69 79 77 78 74 73 75 75 77 74 74 72 73 78 80 79 78 77 67 68 69 63 66 58 74 73 67 75 77 79 83 82 76 74 84 81 80 79 77 76 75 75

GFSSW_sfc_temp_102.txt.gz
Temp
63 63 63 63 63 63 63 63 63 63 63 63 63 62 62 62 62 75 79 88 90 81 80 95 93 95 96 89 87 86 61 59 60 76 77 89 84 91 93 88 90 91 89 88 94
63 63 63 62 62 63 63 63 63 63 63 63 63 62 62 62 70 78 89 81 81 81 88 89 90 93 86 84 82 74 62 63 73 81 82 87 85 84 84 84 86 88 93 94 95
63 63 63 62 62 62 63 63 63 63 63 63 62 62 62 65 74 87 80 81 81 83 93 97 97 92 84 81 82 76 62 72 73 76 89 86 84 89 83 79 88 85 87 92 94
62 62 62 62 62 62 62 62 62 62 62 62 62 62 63 71 73 90 81 80 80 91 91 93 93 87 82 77 82 75 81 79 84 84 90 84 86 86 86 85 93 91 91 92 92
62 62 62 62 61 62 62 62 62 61 62 62 62 63 71 76 83 90 81 80 88 88 89 90 89 88 78 79 82 76 78 83 80 87 89 87 85 80 83 86 93 93 91 92 93
61 61 61 61 61 61 61 61 61 61 61 62 62 62 71 73 99 97 95 88 92 90 91 94 91 94 86 84 76 82 81 81 85 78 87 86 87 86 80 92 91 90 90 93 93
61 61 61 61 61 61 61 60 59 60 61 61 62 70 76 81 98 101 97 93 96 94 91 97 98 93 92 84 88 86 77 76 77 79 82 87 80 78 90 92 88 89 90 92 93
60 60 60 60 60 60 60 59 58 59 60 62 63 73 75 98 100 97 99 96 98 99 98 101 100 94 90 89 86 79 79 66 70 73 82 79 65 80 90 88 86 89 89 90 92
60 60 60 60 59 59 58 58 59 61 62 64 68 74 79 86 90 97 99 94 97 98 99 101 97 89 89 80 74 72 63 67 68 78 76 76 64 72 89 87 86 87 88 89 90
60 60 59 59 59 58 57 57 64 62 66 78 80 76 85 86 93 96 99 98 93 93 90 88 87 81 82 78 62 66 64 68 66 66 74 65 60 77 82 84 86 85 87 88 89
59 59 59 59 58 57 61 75 73 73 77 80 82 82 88 93 96 92 97 93 92 88 78 84 77 74 79 82 82 66 61 64 60 67 69 64 61 63 71 77 73 84 84 85 88
59 59 58 58 58 57 63 77 87 89 77 88 89 88 92 93 83 89 96 85 83 77 83 81 73 84 87 83 71 65 61 57 57 61 61 63 61 63 65 67 69 73 75 87 89
59 58 58 57 57 61 80 86 97 95 77 84 88 87 88 90 83 85 91 87 81 77 80 76 82 88 86 82 73 71 69 57 55 56 59 63 57 61 64 64 68 71 76 73 86
58 58 57 56 60 87 87 96 98 97 70 75 81 86 88 88 81 94 93 88 84 78 81 80 88 86 83 80 78 63 67 64 58 53 50 64 50 57 59 61 63 68 71 76 81
58 57 56 53 72 82 93 99 98 91 53 79 82 95 90 82 86 86 95 88 79 80 82 78 82 82 80 81 82 69 74 66 61 53 53 58 59 58 62 58 61 65 71 75 81
57 56 55 67 72 86 97 98 92 67 53 75 83 80 79 83 84 88 86 90 90 82 84 82 91 88 86 88 87 79 75 65 60 53 48 62 65 56 59 64 64 69 73 74 80
56 54 56 75 84 99 98 89 66 58 79 73 75 81 79 77 80 80 78 76 73 68 70 79 81 88 89 82 87 80 75 57 50 46 52 58 64 62 68 73 70 68 68 72 79
54 53 62 78 95 96 91 76 56 72 74 81 79 80 74 78 79 79 76 73 80 78 75 69 67 81 87 82 80 79 74 63 48 50 53 58 60 66 75 77 74 74 76 73 74
53 80 82 89 90 92 80 65 64 74 79 77 79 71 72 78 76 76 75 75 80 81 71 72 71 87 87 88 86 79 73 83 69 65 61 57 65 75 77 74 75 77 74 71 72
69 84 89 98 100 90 75 62 75 81 81 80 70 73 66 70 73 73 73 81 80 85 86 78 67 83 86 88 87 83 86 72 66 55 53 60 55 62 69 71 73 75 75 75 74
73 79 95 102 97 82 69 71 78 84 82 76 73 73 74 62 73 70 72 75 80 80 84 82 76 74 83 78 76 78 76 79 79 73 57 58 59 68 77 78 78 82 82 81 82
82 74 97 100 78 80 74 78 65 82 84 80 79 76 74 72 67 64 68 73 81 82 74 80 77 68 73 85 87 84 79 80 70 66 73 70 64 70 69 80 83 85 87 82 86
77 82 97 95 71 74 78 80 80 79 79 78 76 79 79 69 62 62 70 76 79 79 71 76 71 64 68 77 83 78 81 82 82 80 69 67 57 69 65 77 79 79 80 76 82
75 74 85 87 86 79 76 77 75 82 79 79 77 79 75 71 69 55 54 72 79 80 70 74 72 67 63 65 73 73 78 81 80 72 73 74 70 73 75 75 76 77 78 75 75
78 79 84 75 79 81 80 78 74 74 80 81 75 75 74 61 56 65 64 71 77 71 77 77 66 71 74 75 76 75 77 78 76 78 73 76 74 78 78 77 77 74 74 73 72
74 78 84 83 81 79 69 75 74 76 75 75 72 77 76 70 56 54 66 54 68 75 74 78 66 68 66 74 74 73 77 79 80 81 80 75 71 70 66 67 75 73 71 71 72
84 86 80 72 80 78 77 76 75 77 78 79 77 74 74 75 78 75 73 80 73 71 71 70 66 61 59 64 70 66 72 73 80 82 81 66 70 73 63 63 73 75 73 72 70

GFSSW_sfc_temp_105.txt.gz
Temp
63 63 63 63 63 63 63 63 63 63 63 63 63 63 62 62 62 69 68 81 81 81 81 86 88 87 88 83 85 76 58 56 61 72 73 79 75 85 87 84 83 86 81 83 87
63 63 63 63 63 63 63 63 63 63 63 63 63 63 62 62 63 68 81 82 81 81 84 82 81 85 80 82 78 69 59 60 69 70 75 82 80 81 81 82 80 80 85 87 88
62 62 62 62 62 63 63 63 62 62 62 62 62 62 62 62 64 78 81 82 81 82 85 87 87 87 81 80 78 68 60 66 69 71 73 82 79 85 79 72 80 77 81 86 86
62 62 62 62 62 62 62 62 62 62 62 62 62 62 62 61 63 83 81 81 81 84 84 83 82 79 78 74 80 68 70 69 70 70 73 79 84 81 79 81 86 85 86 88 86
61 61 61 61 61 61 61 61 61 61 61 61 62 62 60 62 70 85 80 80 82 81 81 80 78 79 76 78 77 74 76 70 70 70 72 84 83 79 82 86 88 88 87 85 87
61 61 61 61 61 61 61 61 60 60 60 61 62 62 58 60 90 88 84 81 84 81 80 82 82 86 82 81 74 78 73 72 71 69 68 80 77 81 81 87 85 85 83 87 87
61 61 60 60 61 61 61 60 60 60 60 61 62 65 64 67 91 90 86 80 81 83 79 86 88 82 82 78 83 77 70 74 68 69 72 78 74 74 83 87 83 84 85 88 86
60 60 60 60 60 60 59 58 59 60 61 61 63 62 60 88 88 88 90 85 87 85 87 89 90 83 78 87 81 74 69 62 70 69 70 74 63 74 80 83 80 83 85 87 85
60 60 60 60 59 59 58 58 59 61 63 63 58 58 65 86 84 88 88 86 85 85 88 95 87 78 79 71 68 65 56 61 64 67 66 72 64 74 81 82 80 81 82 85 84
60 59 59 59 58 58 57 57 62 61 63 71 73 62 74 80 86 88 90 92 86 84 83 82 74 66 67 63 52 58 58 65 60 59 62 64 63 69 73 81 80 82 81 83 82
59 59 59 58 58 57 58 65 60 58 67 68 70 74 83 87 91 84 89 87 85 77 66 72 62 58 66 72 74 65 62 58 59 60 58 62 62 63 67 70 69 79 78 81 81
59 59 58 58 57 57 53 65 73 78 67 82 79 82 87 87 79 84 88 76 74 66 71 65 59 71 78 78 73 65 59 57 57 60 59 58 61 63 64 66 66 69 72 74 81
59 58 57 56 56 54 65 74 86 85 66 77 82 81 81 80 78 79 82 79 72 67 69 63 70 80 78 73 71 65 61 58 58 57 58 56 57 60 65 66 67 71 72 72 76
58 58 56 54 57 72 75 84 84 86 57 70 73 81 83 82 74 88 88 81 75 69 71 67 78 78 76 68 70 59 68 63 58 55 49 56 49 57 61 63 66 68 71 71 71
58 57 55 54 57 68 81 90 87 78 45 77 76 89 80 73 78 81 89 80 71 72 68 67 72 73 73 76 72 61 68 64 61 52 54 55 51 55 60 59 65 69 71 71 76
57 56 55 60 56 67 80 85 82 56 50 72 80 76 73 76 79 83 82 81 81 74 74 72 81 77 76 81 74 72 65 61 58 54 46 54 52 53 55 61 66 70 71 72 74
56 54 54 67 69 83 83 75 55 50 75 70 70 75 72 71 75 76 73 68 61 53 57 69 73 78 82 69 71 65 57 47 44 44 44 56 53 55 65 67 67 68 70 72 72
54 53 56 66 76 81 79 63 50 64 68 77 75 74 67 73 72 75 69 63 70 67 61 56 55 71 79 71 64 63 60 48 44 44 48 59 51 56 70 73 74 72 72 72 72
53 68 68 76 71 73 65 54 57 66 75 72 72 66 65 71 71 68 68 65 70 70 56 56 60 77 80 80 75 66 58 68 51 51 50 52 56 61 70 69 72 70 70 69 71
56 67 76 88 88 77 62 55 65 77 77 73 62 68 61 65 63 65 64 72 71 76 73 66 55 70 78 79 78 68 72 56 57 44 43 51 51 53 61 62 68 69 71 75 74
62 66 83 92 89 69 58 64 73 80 79 69 66 64 66 61 64 60 62 72 75 74 74 62 58 63 71 66 65 64 59 61 60 58 51 45 50 62 64 69 68 71 73 74 73
70 63 86 90 66 67 64 72 69 77 79 74 72 70 66 66 61 59 60 65 76 75 65 64 57 52 61 76 78 70 65 62 53 53 56 56 51 68 69 70 73 72 74 73 76
63 71 88 85 61 65 72 74 78 74 72 72 69 72 72 62 55 61 65 74 74 73 61 64 54 48 56 65 70 65 68 62 62 61 55 55 51 68 70 71 74 73 72 72 71
63 63 74 75 75 70 68 70 71 80 76 75 70 71 67 61 61 55 57 67 73 74 70 67 56 52 48 56 66 63 69 69 58 54 56 57 56 59 65 65 67 64 66 66 72
65 67 74 64 67 71 72 71 72 69 76 73 68 71 65 54 51 51 56 60 67 70 68 62 52 57 63 67 69 69 69 70 63 62 54 59 60 58 58 66 64 66 67 66 67
60 65 70 69 72 70 65 65 71 73 70 68 66 72 70 58 57 51 56 52 54 61 63 63 53 55 56 61 64 62 70 72 71 71 67 61 53 60 62 64 65 66 68 66 65
70 71 67 63 68 66 66 70 74 73 73 76 73 68 67 68 68 66 64 63 63 58 60 58 53 50 45 55 58 57 60 65 62 63 70 60 59 59 59 62 65 67 69 67 67

GFSSW_sfc_temp_108.txt.gz
Temp
63 63 63 63 63 63 62 63 63 63 63 63 63 63 62 62 62 64 64 77 75 80 80 82 82 83 83 80 79 73 59 57 63 70 69 79 78 83 84 78 81 84 78 79 81
62 62 62 62 62 62 63 63 63 63 62 62 62 62 62 62 59 62 76 79 81 80 79 78 78 80 73 78 77 69 58 59 68 70 68 75 74 79 76 76 76 80 80 81 82
62 62 62 62 62 62 62 62 62 62 62 62 62 62 62 61 58 72 80 81 81 81 82 81 81 80 76 78 76 68 60 66 68 72 73 73 74 83 75 73 78 76 76 79 79
62 61 61 61 62 62 62 62 61 61 61 61 62 62 62 58 60 81 81 79 81 81 78 77 76 72 71 73 75 64 68 68 72 75 72 71 79 78 74 76 83 82 82 81 79
61 61 61 61 61 61 61 61 61 60 60 61 62 62 57 56 65 83 81 81 79 79 77 75 72 74 69 75 77 68 68 71 69 69 71 72 72 77 77 82 84 84 83 80 79
61 61 60 60 61 61 61 60 60 60 60 61 62 63 54 56 83 82 80 77 78 76 74 76 75 79 74 79 73 78 74 68 66 68 69 68 74 77 79 82 82 82 81 82 80
60 60 60 60 60 61 60 59 59 60 60 61 62 64 57 64 83 81 78 74 75 76 73 79 79 73 75 73 83 79 68 64 64 68 65 72 68 70 80 84 80 81 81 85 82
60 60 60 60 60 59 59 58 58 60 61 62 62 57 56 78 78 79 80 77 78 76 78 80 79 75 73 77 80 72 65 60 65 66 66 65 60 74 81 80 79 80 82 83 81
59 59 59 59 59 58 57 57 59 61 63 63 53 53 59 81 78 82 82 80 76 75 78 89 77 71 74 65 61 66 55 60 60 64 63 63 61 74 79 79 78 78 78 81 80
59 59 59 58 58 57 56 57 59 59 62 66 68 57 68 77 79 83 83 84 78 75 77 74 68 60 61 58 49 55 60 59 56 59 62 58 61 70 74 77 77 76 80 80 79
59 58 58 57 57 56 53 57 61 59 57 63 66 70 77 82 86 79 84 81 78 71 62 67 59 54 61 64 65 64 58 56 58 61 60 56 58 61 67 74 72 73 76 78 78
58 58 57 57 56 55 51 56 66 68 61 70 74 73 79 77 76 80 82 71 69 63 64 60 55 66 70 70 70 61 56 55 58 61 60 57 56 62 65 64 66 70 76 78 78
58 58 57 56 56 52 55 65 76 73 58 70 76 74 74 76 74 74 76 73 66 62 61 57 65 73 71 67 63 61 60 55 57 59 59 56 54 59 65 65 68 69 70 73 77
58 58 56 54 58 58 63 72 74 73 51 61 65 76 77 77 69 83 81 76 68 64 65 61 72 71 68 67 66 53 66 63 57 55 48 56 48 56 61 62 64 68 70 70 74
58 57 55 54 51 58 73 70 75 68 41 72 69 84 75 69 71 76 83 74 67 67 63 62 66 66 66 69 70 58 67 62 59 52 52 54 50 54 59 59 63 67 70 71 72
57 56 55 53 48 59 65 70 68 52 44 67 73 70 65 68 70 75 77 77 77 68 65 66 74 71 69 74 69 68 62 60 58 52 44 53 52 51 55 60 65 70 70 72 73
56 54 53 61 61 67 68 65 51 44 68 66 62 66 63 63 67 70 69 64 61 51 50 63 67 70 71 62 67 61 51 45 45 45 44 53 51 54 62 65 68 69 67 71 72
54 52 52 58 57 64 65 58 43 59 60 68 67 66 62 65 66 70 64 60 65 60 52 50 51 66 70 63 57 57 53 49 43 41 47 55 50 56 67 71 74 74 72 71 72
52 51 53 60 60 62 59 46 50 57 67 65 65 59 60 64 63 67 64 59 67 63 53 49 54 71 74 70 66 57 54 60 49 46 47 51 57 62 68 68 69 70 72 70 72
48 51 59 71 68 63 54 48 56 67 68 66 52 57 52 58 58 56 57 66 65 69 64 58 51 63 73 73 70 65 67 52 48 41 41 47 49 51 61 63 66 67 69 71 71
51 56 68 73 71 58 48 51 64 72 73 63 57 56 58 56 57 54 56 65 70 69 65 56 54 59 64 58 61 61 56 54 54 51 45 43 48 59 63 65 65 66 70 70 72
50 52 71 78 57 52 51 60 65 69 70 66 65 60 57 59 52 54 57 61 72 70 59 56 51 49 58 66 70 66 61 56 49 50 51 52 51 69 67 69 68 68 70 71 75
47 54 71 72 51 51 58 66 70 68 65 64 62 62 62 54 51 55 58 68 69 66 61 60 49 46 52 58 65 59 61 54 53 52 51 51 52 68 65 64 65 67 68 68 69
48 51 60 62 59 59 56 61 64 75 71 69 65 62 57 53 50 51 55 64 67 69 69 64 48 51 48 53 56 55 63 63 54 49 51 54 58 60 61 60 62 64 66 66 66
49 52 59 54 58 60 57 61 65 65 69 66 63 62 56 45 47 48 53 58 66 67 66 62 50 52 59 59 61 61 59 62 55 54 56 59 56 56 59 60 62 64 66 66 65
49 52 57 55 59 59 54 61 65 64 64 59 61 64 62 52 54 51 52 50 55 63 58 59 53 51 52 61 59 59 59 61 58 57 59 57 53 59 63 64 63 64 66 65 66
56 57 55 53 56 56 56 64 68 67 66 71 68 62 60 61 63 61 59 58 55 55 54 51 49 48 42 52 58 48 55 56 56 57 54 54 57 58 59 63 61 63 65 64 65

GFSSW_sfc_temp_111.txt.gz
Temp
62 63 63 62 62 62 62 63 63 62 63 62 62 62 62 62 61 61 62 75 73 79 80 78 79 80 80 76 78 72 59 57 61 66 68 76 73 78 82 76 77 80 74 76 76
62 62 62 62 62 62 62 62 62 62 62 62 62 62 62 62 57 59 74 78 78 79 75 74 75 78 71 72 75 67 59 61 67 69 67 73 75 75 74 73 73 74 77 77 76
62 62 62 62 61 61 61 61 62 62 61 61 61 62 62 60 58 71 80 78 79 79 78 78 79 77 71 72 74 67 61 66 71 71 71 71 75 79 72 68 73 71 72 75 74
61 61 61 61 61 61 61 61 61 60 60 61 61 62 62 56 58 78 81 78 80 78 76 76 74 70 67 66 73 65 69 68 71 74 73 70 73 76 75 76 79 78 76 75 73
61 61 60 61 61 61 61 61 60 60 60 60 61 62 56 54 65 79 80 80 77 76 74 72 69 71 65 71 71 67 68 68 71 71 72 72 70 74 74 80 81 79 77 75 74
60 60 60 60 60 61 61 60 59 60 60 61 62 62 53 55 79 80 77 75 75 74 72 73 73 75 69 71 70 73 70 69 71 69 71 68 72 73 77 82 78 77 75 76 75
60 60 60 60 60 60 60 59 59 59 60 61 62 62 55 64 79 78 76 73 71 72 68 73 76 72 70 68 79 74 65 65 64 66 67 69 67 68 77 78 77 77 77 76 76
60 60 60 60 60 59 58 58 58 59 60 62 62 56 55 74 74 75 74 74 74 71 71 73 78 71 67 73 74 69 66 58 63 65 64 66 59 69 76 77 75 78 76 76 76
59 59 59 59 58 58 57 57 58 61 62 62 53 52 60 78 73 75 76 74 73 69 72 86 73 67 68 62 57 61 57 59 58 64 64 63 59 68 74 75 74 77 77 75 74
59 59 58 58 57 56 55 57 60 60 61 65 66 56 67 73 76 79 75 79 74 72 73 70 63 58 57 55 48 52 55 57 56 59 62 59 59 65 71 72 76 76 74 75 73
59 58 58 57 57 55 52 54 60 58 57 62 64 68 74 78 81 76 80 77 74 68 59 62 57 53 59 59 63 62 58 55 58 60 58 57 57 60 65 70 73 71 73 73 74
58 58 58 57 56 55 52 59 62 64 58 67 70 69 74 75 70 75 79 69 67 60 61 58 53 62 66 66 64 63 56 54 58 60 58 57 56 58 62 65 67 71 73 74 75
58 58 57 56 55 52 56 62 68 64 54 66 69 69 71 73 69 71 75 69 63 59 60 55 61 69 67 62 60 57 57 55 56 58 59 57 54 56 62 64 67 70 74 75 74
58 58 56 54 58 55 61 64 66 67 49 60 63 73 72 73 66 79 78 73 65 62 60 57 67 67 63 62 60 53 65 62 56 54 48 57 46 55 58 61 64 68 69 73 74
58 57 55 53 53 58 68 62 64 65 41 68 67 79 69 66 67 72 78 71 63 63 60 59 62 61 61 64 65 58 65 60 58 51 51 53 48 54 59 58 62 66 68 69 75
57 56 54 51 47 57 62 62 66 52 44 63 69 66 62 64 67 71 72 74 72 64 61 64 69 66 64 67 69 66 59 56 53 50 45 54 51 51 55 59 64 67 69 70 75
55 53 53 58 60 60 62 63 50 44 64 62 61 61 59 60 64 65 65 61 57 49 51 62 63 65 67 59 64 59 49 41 41 42 45 52 50 52 61 64 67 66 67 71 72
53 52 51 55 53 62 63 57 42 58 56 63 61 60 58 61 62 64 60 57 62 58 54 52 53 61 67 59 56 54 49 44 40 40 44 53 48 55 65 67 67 68 69 71 71
52 48 49 54 57 58 59 46 49 55 63 60 60 57 55 61 59 59 56 55 61 57 50 51 54 67 69 67 66 57 49 55 46 44 43 50 57 62 66 66 68 68 73 69 70
48 49 54 61 62 61 54 46 52 64 64 60 51 55 49 54 55 54 54 61 62 66 60 55 51 60 67 67 65 60 62 50 46 42 36 46 49 50 60 63 67 67 67 69 71
49 54 64 61 64 57 48 49 60 68 67 60 55 52 53 51 52 50 52 60 65 66 64 53 50 55 61 57 57 56 53 51 50 47 41 40 48 60 65 66 65 67 70 70 72
47 53 65 64 56 45 47 55 61 65 69 62 61 58 54 55 50 50 52 58 67 64 60 57 49 46 55 61 64 58 51 51 48 46 46 47 51 64 65 65 64 66 68 69 73
44 48 64 65 50 48 52 61 66 64 63 61 60 60 59 51 48 53 56 64 67 67 59 60 50 43 49 55 60 58 58 49 48 47 45 46 52 63 66 63 63 64 65 68 69
46 49 56 58 53 54 51 58 60 71 67 66 62 60 55 49 48 50 54 62 63 64 68 62 50 50 42 49 52 51 56 56 50 46 46 50 57 60 61 62 61 62 64 66 67
46 49 52 49 54 53 55 58 62 61 66 63 59 59 55 45 46 48 51 55 62 65 62 59 51 49 51 57 58 54 55 55 50 47 48 54 56 59 59 60 61 63 65 65 65
47 49 52 51 54 53 51 55 61 64 63 58 59 62 57 52 54 51 51 49 50 56 55 56 51 49 48 58 60 53 56 57 55 53 53 53 53 58 61 62 62 63 65 64 66
51 53 52 49 52 52 54 57 64 67 64 67 64 60 58 60 61 56 55 53 51 49 51 49 50 48 42 50 58 48 51 54 54 56 52 47 52 62 60 59 59 61 63 63 65

GFSSW_sfc_temp_114.txt.gz
Temp
62 62 62 62 62 62 62 62 62 62 63 62 62 61 61 62 61 59 61 74 72 78 80 76 76 77 78 74 75 73 58 57 62 66 65 73 70 76 77 73 75 76 70 72 74
62 62 61 62 61 61 62 62 62 62 62 62 61 62 62 62 55 57 73 78 78 79 74 74 73 76 70 71 73 67 60 62 68 68 66 71 72 73 71 71 70 69 72 73 72
62 62 61 61 61 61 62 61 61 61 61 61 61 62 62 60 56 70 80 78 79 78 74 76 77 75 69 69 70 66 62 65 70 71 70 68 72 76 70 66 70 67 68 70 70
61 61 61 61 61 61 61 62 61 61 60 61 61 62 62 54 58 74 80 78 79 75 73 74 73 69 65 64 71 65 69 69 64 66 73 69 73 72 72 74 77 74 72 71 70
61 61 61 60 61 61 61 61 61 60 60 61 61 62 54 54 65 76 79 79 74 74 71 70 68 69 64 68 69 66 69 70 67 69 72 72 71 71 72 78 78 75 73 71 71
60 60 60 60 60 61 60 60 59 59 60 61 62 62 51 53 76 76 74 74 73 71 67 69 70 73 67 68 66 70 69 68 70 69 70 68 71 72 74 79 75 73 71 72 72
60 60 60 60 60 60 60 59 59 59 60 61 62 61 54 65 76 75 73 69 69 71 66 70 73 71 67 66 74 69 64 65 65 68 67 68 66 66 73 76 74 72 72 72 73
60 60 60 60 59 59 58 57 58 59 60 61 62 54 56 72 71 72 72 70 72 68 70 70 73 68 65 70 70 65 64 57 63 65 66 67 58 69 71 74 71 72 73 73 72
59 59 59 59 58 57 56 56 59 60 62 63 52 52 61 75 72 73 73 72 70 66 69 84 72 64 66 59 55 57 52 57 59 64 64 62 59 65 70 73 70 71 72 73 72
59 59 58 58 57 56 55 57 61 60 61 64 64 55 67 70 74 74 70 76 72 69 69 67 61 57 55 53 47 50 52 56 56 60 62 57 58 63 68 68 72 73 72 72 72
59 58 58 57 56 56 51 51 58 57 54 58 60 65 71 76 76 72 73 74 71 66 56 59 56 51 53 58 59 59 57 54 58 62 60 56 56 59 63 66 68 71 71 71 72
58 58 58 57 56 55 50 61 59 62 55 65 66 66 70 71 67 71 78 67 64 57 59 56 49 60 64 62 61 58 54 53 58 61 59 57 56 59 62 62 66 70 70 72 71
58 58 57 56 55 53 55 60 65 59 52 63 66 66 67 70 67 68 73 67 61 56 56 53 58 66 64 58 59 55 55 53 55 58 58 57 54 57 61 63 66 68 70 72 71
58 57 56 53 57 54 61 62 62 62 50 60 61 71 70 69 64 75 74 71 63 58 59 55 63 64 59 59 59 51 61 60 55 53 47 57 46 54 59 59 62 66 68 71 72
58 57 55 53 49 56 63 59 59 63 41 66 64 74 66 64 65 68 74 70 61 60 59 57 59 59 58 61 62 56 63 57 57 50 50 52 48 54 57 55 60 64 66 73 73
57 56 55 50 46 55 59 59 63 51 43 61 66 63 60 61 64 67 69 72 68 61 57 61 65 64 62 64 66 63 57 54 52 49 43 51 50 48 53 56 61 66 67 70 74
55 54 53 55 59 56 59 62 50 43 61 59 56 58 57 58 61 61 62 57 54 46 47 57 59 61 64 57 62 56 47 39 39 39 41 50 48 52 60 61 63 64 66 69 73
54 52 51 53 51 58 61 57 40 56 53 60 59 57 55 60 59 60 57 54 58 54 48 46 48 58 64 57 53 51 48 41 38 38 43 51 46 53 66 69 68 72 71 70 71
52 48 48 51 54 56 59 45 48 53 60 57 57 54 53 58 57 56 54 53 57 56 50 45 50 63 65 65 63 54 48 52 44 41 43 47 54 61 64 63 65 66 68 68 70
47 48 53 57 57 58 54 46 51 59 61 58 49 52 46 52 53 51 50 58 58 61 56 52 47 59 64 64 62 57 61 49 44 38 37 45 48 50 57 59 63 64 66 68 69
48 53 61 57 57 57 48 47 57 64 64 58 54 52 50 50 50 47 50 58 61 61 57 51 49 55 56 53 54 54 50 49 48 44 40 40 47 59 61 64 62 67 70 72 71
45 52 60 59 54 42 47 52 59 61 64 59 59 56 53 53 48 49 51 57 63 60 54 52 50 46 55 62 61 57 53 52 45 44 43 44 48 61 65 66 69 69 71 71 74
43 45 59 61 48 45 48 57 62 61 60 61 59 58 55 50 46 50 54 62 63 60 54 55 47 45 52 54 58 53 53 47 46 44 43 45 49 65 63 63 65 64 66 68 70
44 49 53 54 49 50 49 54 57 66 64 63 63 60 53 47 46 48 52 59 61 60 67 63 46 50 45 48 55 51 53 52 47 43 44 47 51 56 61 61 61 61 63 65 66
44 47 48 48 50 50 53 55 58 57 63 60 58 59 55 46 45 47 50 54 59 62 57 54 48 49 54 56 56 53 52 53 48 45 46 49 51 55 57 60 61 61 63 64 65
46 46 48 48 50 50 50 54 58 58 61 57 59 61 57 50 52 50 51 48 49 54 50 50 48 50 50 57 56 54 54 54 53 52 50 50 50 61 62 63 62 62 63 64 65
48 49 48 48 49 49 52 57 59 59 62 65 65 59 57 58 59 53 52 51 49 47 50 50 47 47 45 51 54 48 50 52 53 57 54 48 52 62 58 59 61 62 64 62 64

GFSSW_sfc_temp_117.txt.gz
Temp
62 62 62 62 62 62 62 63 62 62 62 62 62 62 62 62 61 65 70 81 79 78 81 83 84 85 85 82 80 78 69 65 67 69 69 77 74 79 81 78 79 79 80 82 80
62 62 62 62 62 62 62 62 62 62 61 61 61 62 62 62 61 66 80 78 78 79 84 83 80 83 81 79 78 71 68 65 69 69 67 76 77 76 76 76 74 75 79 80 80
62 62 61 62 62 62 62 62 62 62 61 61 61 62 62 63 66 79 80 78 79 80 85 86 85 83 77 79 76 68 65 67 66 69 68 71 76 80 76 73 76 75 75 78 79
61 61 61 61 61 62 62 61 61 61 61 61 61 62 62 62 69 81 80 78 79 82 84 84 82 77 75 74 77 70 72 72 67 70 68 70 77 76 75 79 83 81 80 79 78
61 61 61 60 61 61 61 61 60 60 60 61 62 62 64 70 76 82 79 80 81 83 82 80 79 78 74 75 76 72 72 71 72 72 70 74 75 73 76 79 82 80 79 79 80
60 60 60 60 60 61 61 60 59 60 60 61 62 63 66 71 83 81 81 82 83 83 80 82 80 82 77 76 74 75 74 71 71 70 72 71 75 75 79 82 76 78 78 80 80
60 60 60 60 60 60 60 59 58 59 60 61 62 64 67 75 81 82 83 81 82 83 79 81 83 81 79 76 79 76 66 69 68 70 68 73 70 70 80 80 74 78 78 80 81
60 60 60 60 60 59 58 56 56 59 60 61 63 64 70 80 82 81 82 80 81 82 83 83 84 81 79 79 75 71 71 63 65 68 66 70 59 70 78 78 73 78 77 78 80
59 59 59 59 59 58 56 56 59 60 62 63 64 66 75 80 79 82 84 81 80 80 82 85 84 78 78 74 69 67 63 61 61 67 66 66 61 69 73 77 77 77 78 79 79
59 59 59 58 57 56 55 57 62 63 64 66 67 67 79 78 83 80 82 83 80 79 79 78 77 74 73 73 61 62 61 62 61 63 66 61 61 63 68 76 77 76 77 79 80
59 58 58 58 57 55 57 65 71 70 67 71 72 72 77 84 84 81 82 82 82 77 71 72 71 67 70 72 71 68 65 63 63 65 62 61 60 62 65 72 73 72 72 79 80
58 58 58 57 56 55 59 75 72 73 66 72 70 72 77 79 77 79 85 77 75 69 71 70 67 72 73 72 70 68 65 62 61 63 63 61 61 62 61 68 72 70 70 79 81
58 58 57 56 55 61 66 73 73 75 67 72 74 74 77 79 77 78 83 78 73 69 69 67 70 72 72 69 67 66 67 62 61 61 63 62 60 59 61 64 70 70 78 80 81
58 57 56 53 62 64 72 72 73 72 67 70 74 78 78 78 75 83 84 81 74 69 69 70 72 71 70 69 70 63 71 66 60 59 56 61 55 58 61 61 68 72 76 79 82
58 57 55 54 62 68 73 70 72 73 53 73 75 85 79 77 78 78 84 81 72 71 71 68 70 69 67 70 73 67 70 67 63 59 58 56 54 60 62 58 66 70 76 79 81
57 56 55 56 57 68 70 70 74 64 52 68 75 74 74 75 76 78 79 82 78 72 71 71 75 74 72 70 73 70 65 63 61 59 52 60 58 61 59 60 67 72 76 80 81
56 54 54 59 71 67 69 75 63 56 68 66 68 71 71 69 71 73 72 71 68 62 62 68 70 71 72 67 70 67 65 55 51 50 52 59 56 62 68 69 72 71 74 78 81
54 52 55 58 63 66 73 70 53 62 64 70 69 69 67 69 68 69 68 67 69 68 65 61 59 67 72 70 66 66 67 60 49 51 54 58 53 65 73 76 72 73 74 76 79
52 60 60 64 61 65 73 59 61 64 68 68 69 65 65 68 68 67 65 66 68 70 63 61 61 71 71 71 72 64 61 70 59 57 54 58 63 71 73 72 69 68 73 73 73
56 61 67 64 64 72 68 54 63 68 70 70 63 66 62 65 65 65 64 68 68 70 71 66 59 69 71 73 71 69 71 58 58 50 50 58 57 61 65 67 68 68 70 75 74
61 66 67 66 67 71 62 62 65 71 71 69 66 65 65 63 64 62 63 68 70 70 71 68 64 66 68 67 67 66 65 64 62 61 56 53 62 69 68 70 66 68 72 75 73
59 64 68 67 66 59 63 63 59 71 73 72 70 69 65 63 63 63 63 66 70 71 67 68 66 61 65 72 71 71 69 70 62 56 61 59 62 69 69 73 71 71 72 73 71
56 58 69 68 61 61 61 65 68 70 71 70 70 71 67 65 61 63 64 69 68 70 67 68 63 58 62 66 68 66 66 65 65 65 61 59 64 72 71 71 72 72 74 76 75
56 59 64 66 63 64 63 65 65 71 71 71 69 69 65 62 62 61 63 67 67 69 66 68 64 60 57 60 63 60 62 64 62 62 65 65 66 68 65 66 68 71 75 75 75
55 57 57 59 61 64 65 64 64 65 71 71 66 69 67 61 61 61 63 66 67 66 67 68 60 61 63 63 64 61 61 61 60 60 59 64 61 63 63 64 68 69 70 71 70
55 56 59 59 58 61 57 62 64 66 67 67 66 70 67 64 66 64 65 62 65 67 65 65 61 60 58 64 64 59 60 61 59 59 61 61 61 64 64 67 68 69 69 70 69
56 57 56 54 58 59 61 64 65 66 69 72 71 67 65 68 70 70 70 68 67 65 63 61 61 58 55 61 59 53 57 60 61 63 61 60 63 64 61 63 64 68 70 70 70

GFSSW_sfc_temp_120.txt.gz
Temp
63 63 62 62 62 62 63 63 62 62 62 62 62 62 62 62 62 76 82 85 86 80 79 93 93 93 94 89 88 86 74 74 75 77 75 84 80 85 88 85 87 87 89 90 89
62 62 62 62 62 62 62 62 62 62 62 62 62 62 62 62 75 82 84 79 79 80 92 91 89 91 90 87 89 80 76 72 77 73 71 80 82 83 83 83 82 84 89 89 89
62 62 62 62 62 62 62 62 62 62 62 62 62 62 62 66 78 86 80 79 80 82 94 95 95 91 84 88 84 70 66 77 71 71 73 75 81 85 81 80 84 83 84 87 88
62 62 61 61 62 62 62 62 62 61 61 61 62 62 63 75 75 89 80 79 80 92 93 91 91 85 83 82 85 74 77 74 77 75 71 71 84 81 83 83 91 90 89 88 88
61 61 61 61 61 61 62 61 61 61 61 61 62 63 72 80 83 91 79 81 91 93 91 89 87 85 81 82 84 79 79 74 80 80 76 81 80 80 82 87 92 91 89 88 89
61 61 61 61 61 61 61 61 60 60 61 62 62 62 77 79 90 91 91 91 93 93 91 91 89 89 85 83 82 83 80 78 78 78 78 78 80 82 84 87 88 87 88 89 90
61 61 60 60 61 61 60 59 58 58 60 62 63 72 79 81 91 94 94 93 93 93 89 92 92 89 88 83 85 83 74 75 74 75 73 77 74 74 86 87 85 86 88 89 90
60 60 60 60 60 59 58 57 58 59 60 62 64 76 82 90 94 90 94 91 92 93 93 93 93 90 87 88 83 79 79 70 73 75 74 73 65 71 84 84 82 84 87 88 89
60 60 60 59 59 58 57 57 61 61 62 64 74 78 81 80 87 94 95 89 91 91 91 91 91 87 86 82 78 76 74 70 67 74 71 70 65 71 77 84 81 80 87 88 88
59 59 59 58 58 57 56 57 62 63 69 75 78 77 86 84 90 90 94 93 88 88 86 86 87 82 83 80 70 71 71 72 70 70 73 71 70 66 74 81 84 85 88 88 89
59 58 58 57 56 55 62 77 79 79 79 81 83 81 85 91 93 89 92 90 89 86 79 83 79 75 80 82 80 76 73 71 71 71 71 72 72 68 69 72 81 85 81 88 89
59 58 58 57 55 55 69 85 81 82 78 84 82 83 87 90 83 87 93 84 82 77 80 77 75 82 82 80 79 77 74 71 70 70 70 70 70 74 73 71 78 84 75 86 90
59 58 57 56 56 65 82 83 87 86 79 82 85 85 87 89 83 84 90 85 80 76 78 77 80 81 79 77 75 76 75 73 70 69 71 70 69 71 72 74 75 82 83 82 89
59 57 56 54 64 82 84 85 88 84 76 77 82 86 87 88 81 91 93 86 80 76 77 78 82 78 77 76 79 72 79 77 70 68 66 70 65 70 72 69 72 74 82 77 88
58 57 55 53 74 81 84 88 89 85 61 79 82 93 89 84 85 84 93 87 78 77 78 75 76 75 74 77 80 75 79 77 74 70 68 67 64 76 75 67 70 74 81 80 89
58 56 55 68 74 84 87 88 85 71 58 74 83 80 81 83 83 85 84 89 86 78 79 78 83 80 80 80 81 80 76 74 73 69 62 72 68 73 72 72 73 74 79 84 89
56 54 55 71 84 85 86 85 71 64 77 73 76 80 79 77 78 81 78 77 76 69 70 75 77 82 82 77 80 78 75 64 61 62 62 71 67 73 80 81 80 77 79 85 90
54 53 61 73 83 82 84 77 61 71 73 80 78 79 75 78 77 78 76 75 79 76 75 69 66 78 82 79 75 75 77 68 55 62 67 68 63 77 82 85 87 84 81 86 89
53 79 77 82 78 80 79 67 69 73 78 76 78 74 73 76 76 76 75 75 77 79 70 71 69 80 80 82 81 75 68 81 72 74 66 71 73 81 84 83 85 85 83 83 87
68 78 83 81 81 80 75 64 73 79 79 79 71 74 69 73 73 74 73 77 75 78 81 74 66 77 80 81 80 77 81 69 71 56 56 67 67 69 75 78 81 81 79 78 83
71 76 78 81 82 78 70 74 76 82 80 77 74 72 73 71 73 72 73 76 78 77 80 79 73 72 77 74 75 74 72 73 76 71 59 57 66 77 76 78 80 80 82 79 77
71 71 78 81 73 77 74 75 65 81 82 80 80 77 74 73 72 71 71 74 79 79 73 78 75 68 73 80 81 80 77 78 68 64 70 69 57 77 78 80 83 82 74 78 78
69 75 80 79 69 71 76 76 78 79 80 79 77 80 79 73 68 72 73 77 77 77 74 78 71 63 68 76 78 75 77 77 77 75 50 61 64 79 77 79 80 79 79 75 79
66 67 73 75 79 74 73 73 73 80 80 81 79 80 76 73 75 71 71 76 76 78 68 72 73 68 63 66 64 67 70 73 74 69 68 69 72 78 71 72 77 77 79 76 73
68 69 68 66 72 74 76 75 72 72 79 80 75 77 76 70 71 70 74 75 76 68 74 75 66 71 73 73 72 69 68 70 70 71 66 73 71 77 71 67 74 77 77 78 78
63 64 71 68 70 72 65 71 72 75 75 74 73 77 78 73 74 70 73 72 72 76 74 77 66 69 66 73 72 68 70 71 70 71 71 72 72 75 73 69 75 78 76 75 77
68 69 64 62 69 68 71 71 73 77 77 80 78 77 75 78 81 82 83 80 79 74 72 70 70 65 61 68 69 63 69 71 71 74 72 67 73 76 73 65 65 76 77 76 77

GFSSW_sfc_temp_123.txt.gz
Temp
63 63 63 63 63 63 63 63 63 63 63 63 63 63 63 63 63 77 87 86 89 83 82 99 99 98 99 97 95 92 76 63 74 74 79 86 84 91 93 90 91 92 93 94 95
63 63 63 63 63 63 63 63 63 63 63 63 63 63 63 63 78 88 83 82 81 81 93 95 93 96 93 93 87 85 67 71 81 79 76 81 85 87 86 87 87 90 93 94 94
63 63 62 62 63 63 63 63 63 63 63 63 62 63 63 67 82 91 81 81 81 84 98 101 100 96 90 94 86 79 71 82 81 79 75 75 83 90 86 79 90 87 88 91 92
62 62 62 62 62 63 63 63 62 62 62 62 62 63 63 78 78 93 82 80 80 94 98 97 96 90 89 83 92 78 81 81 83 81 74 72 75 84 85 79 94 93 93 92 91
62 61 61 61 62 62 62 62 61 61 61 62 63 63 74 83 88 93 80 82 93 96 96 95 92 92 86 88 90 79 82 78 84 84 78 80 77 75 85 91 96 94 93 92 90
61 61 61 61 61 61 61 61 60 60 60 62 63 63 79 82 98 98 97 95 99 97 97 97 95 96 91 88 87 83 86 84 84 82 82 80 80 82 88 91 93 92 92 94 91
61 61 61 61 61 61 61 59 59 59 59 61 64 75 86 86 99 101 100 99 100 99 95 100 99 93 94 88 91 89 80 80 77 79 78 84 75 78 88 90 89 90 93 94 93
61 60 60 60 60 60 59 58 58 60 60 62 64 80 86 98 102 98 100 97 99 101 99 101 99 96 93 94 90 85 85 72 80 79 78 73 65 76 84 87 87 87 92 92 91
60 60 59 59 59 58 57 57 60 62 63 65 74 84 84 86 93 100 101 95 97 98 97 97 97 93 92 85 82 83 71 73 75 80 79 75 60 68 74 83 82 82 91 92 90
60 59 59 59 58 57 56 57 62 62 69 82 87 84 92 88 95 97 101 98 93 93 90 90 90 86 87 85 74 78 76 78 73 77 78 75 71 76 72 76 71 85 88 92 92
59 59 59 58 57 56 63 80 80 80 88 88 89 87 91 97 99 95 98 95 94 90 83 88 82 79 84 87 88 82 79 76 79 78 76 76 76 77 78 74 78 78 83 92 92
59 59 58 57 56 56 68 89 88 90 84 92 90 91 94 97 87 91 98 88 86 81 87 83 78 88 91 87 83 83 78 77 78 79 76 77 76 82 78 77 82 69 84 89 91
58 58 57 57 56 67 90 90 97 95 83 87 92 91 92 95 88 88 93 90 84 82 82 81 85 89 84 82 80 82 80 79 75 76 79 76 74 77 82 81 82 80 80 92 92
58 58 57 55 66 93 90 95 98 95 77 81 86 91 92 93 85 96 97 90 84 81 83 84 89 81 81 81 84 77 86 81 77 72 66 74 65 75 80 78 80 83 82 90 90
58 57 56 54 77 88 92 99 99 92 63 85 87 99 95 89 89 88 97 90 82 82 83 80 81 79 79 81 85 80 86 81 79 75 75 75 69 77 83 76 77 81 86 86 90
57 56 55 72 79 92 98 98 93 74 63 79 87 85 85 88 88 90 88 93 92 82 84 84 89 87 85 86 85 87 81 81 80 77 66 75 72 75 75 79 81 83 84 83 91
56 55 57 75 88 97 97 90 73 67 83 78 81 85 84 83 83 85 82 81 78 72 73 80 81 86 87 80 86 83 79 67 65 66 66 77 75 77 78 85 87 84 84 84 87
54 53 64 80 94 93 90 79 64 77 80 86 83 84 80 83 83 82 81 79 83 82 79 74 70 82 87 82 79 80 79 71 59 65 61 75 69 76 74 90 92 91 89 87 86
53 85 85 91 88 91 82 69 72 80 85 82 83 78 78 81 81 80 80 81 83 84 74 75 73 85 86 87 86 79 74 85 75 78 72 72 74 85 82 84 89 88 88 82 86
68 82 88 93 92 86 76 66 80 86 86 86 76 81 75 79 77 78 79 83 81 83 86 79 70 83 85 87 86 82 76 70 75 61 59 70 70 74 75 79 83 85 85 86 86
71 79 87 94 91 81 71 76 83 88 87 83 80 78 80 77 78 78 78 82 83 83 85 84 78 76 81 78 77 79 76 72 74 71 61 63 66 59 79 80 83 83 86 88 87
77 74 87 92 74 78 75 82 78 86 88 86 85 83 80 79 77 77 75 80 85 84 78 83 79 72 76 84 88 84 75 78 71 65 62 64 59 70 84 85 83 79 84 83 87
73 79 88 87 69 75 80 83 85 83 84 83 82 84 84 78 72 77 78 84 83 82 78 82 74 67 71 80 84 78 82 82 77 75 66 64 68 73 77 85 85 83 83 76 84
72 70 79 78 81 78 78 78 77 86 86 86 84 86 81 78 80 75 76 81 82 83 71 77 75 70 66 70 75 71 76 71 67 71 69 72 71 68 70 79 82 83 82 77 74
74 73 76 69 73 77 80 80 75 77 84 87 81 82 80 74 76 75 78 80 82 71 77 79 69 74 76 78 78 76 69 57 53 67 71 73 68 75 62 75 74 80 81 76 71
66 67 72 70 74 75 70 75 76 80 80 79 78 81 82 76 78 75 78 77 76 81 78 83 69 72 70 77 77 74 75 62 65 75 68 76 72 79 80 76 75 80 79 77 79
70 73 67 63 71 72 74 75 76 81 84 84 83 81 80 83 87 87 87 86 84 78 77 75 73 69 64 74 71 66 74 71 75 79 66 64 77 66 74 70 68 70 79 70 81